U21991 / G-EZBZ 7700 Squawk Report (13th of May, 2022)

Aircraft A319 Reg No. G-EZBZ Age 15 years old
Model A319 Jet engines 2 First flight 25-06-07
Registered 13-07-07 Rollout 06-07 Delivered 13-07-07
Construction No. 3184 Line No. N/A Series 111
ADSHEX 4010EE Airline name easyJet Owner N/A
Airfield based Luton~Beds~G First tracked N/A

Flight history for G-EZBZ

Route Flight No Date Playback
Inezgane (AGA) - Gatwick (LGW) U28150 2022-06-28 11:23:00
Gatwick (LGW) - Inezgane (AGA) U28149 2022-06-28 11:01:00
Dubrovnik (DBV) - Gatwick (LGW) U28520 2022-06-27 23:09:00
Gatwick (LGW) - Dubrovnik (DBV) U28519 2022-06-27 20:45:00
Krakow John Paul I (KRK) - Gatwick (LGW) U28512 2022-06-27 15:30:00
Gatwick (LGW) - Krakow John Paul I (KRK) U28511 2022-06-27 11:28:00
Inverness (INV) - Gatwick (LGW) U2860 2022-06-27 08:34:00
Gatwick (LGW) - Inverness (INV) U2867 2022-06-27 06:22:00
Pisa (PSA) - Gatwick (LGW) U28234 2022-06-26 19:13:00
Gatwick (LGW) - Pisa (PSA) U28233 2022-06-26 16:41:00
Madeira (FNC) - Gatwick (LGW) U28136 2022-06-26 13:29:00
Gatwick (LGW) - Madeira (FNC) U28135 2022-06-25 18:55:00
Jersey (JER) - Gatwick (LGW) U2894 2022-06-25 15:04:00
Gatwick (LGW) - Jersey (JER) U2893 2022-06-25 12:49:00
EuroAirport Basel Mulhouse Freiburg (BSL) - Gatwick (LGW) U28430 2022-06-25 11:23:00
Gatwick (LGW) - EuroAirport Basel Mulhouse Freiburg (BSL) U28429 2022-06-25 08:14:00
Tirana Rinas (TIA) - Gatwick (LGW) U28942 2022-06-25 06:34:00
Gatwick (LGW) - Tirana Rinas (TIA) U28941 2022-06-24 17:55:00
Václav Havel Airport Prague (PRG) - Gatwick (LGW) U28994 2022-06-24 15:06:00
Gatwick (LGW) - Václav Havel Airport Prague (PRG) U28993 2022-06-24 11:19:00
Time Lat Lon Altitude Heading Speed Vertical Rate
2022-05-13 12:16:06 GMT 38.009491 20.181242 8,325 68 252 -768
2022-05-13 12:16:00 GMT 38.006969 20.172930 8,400 68 257 -768
2022-05-13 12:15:50 GMT 38.002533 20.158627 8,525 68 265 -704
2022-05-13 12:15:40 GMT 37.997955 20.144192 8,650 67 273 -832
2022-05-13 12:15:29 GMT 37.992874 20.129057 8,850 65 277 -1536
2022-05-13 12:15:19 GMT 37.987232 20.113400 9,125 64 280 -1472
2022-05-13 12:15:09 GMT 37.981522 20.098085 9,375 65 282 -1600
2022-05-13 12:14:58 GMT 37.976395 20.082422 9,675 74 282 -1984
2022-05-13 12:14:47 GMT 37.973923 20.064716 10,050 87 284 -1984
2022-05-13 12:14:37 GMT 37.974930 20.047186 10,350 100 289 -1472
2022-05-13 12:14:27 GMT 37.979408 20.030106 10,550 115 301 -960
2022-05-13 12:14:17 GMT 37.987000 20.014940 10,675 130 315 -704
2022-05-13 12:14:07 GMT 37.997425 20.002819 10,825 146 330 -1280
2022-05-13 12:13:57 GMT 38.011532 19.993923 11,125 162 333 -2048
2022-05-13 12:13:46 GMT 38.027779 19.988848 11,500 168 334 -1984
2022-05-13 12:13:34 GMT 38.045563 19.984774 11,875 170 335 -1920
2022-05-13 12:13:25 GMT 38.059387 19.982220 12,125 172 337 -1408
2022-05-13 12:13:15 GMT 38.075089 19.979923 12,325 174 343 -1088
2022-05-13 12:13:05 GMT 38.091293 19.978287 12,550 176 347 -1600
2022-05-13 12:12:54 GMT 38.108826 19.977409 12,975 179 345 -3136
2022-05-13 12:12:44 GMT 38.124252 19.977468 13,475 182 343 -3072
2022-05-13 12:12:34 GMT 38.141052 19.978403 14,050 185 340 -3200
2022-05-13 12:12:24 GMT 38.156544 19.980070 14,550 187 341 -2880
2022-05-13 12:12:13 GMT 38.174240 19.982904 15,050 189 344 -2432
2022-05-13 12:12:03 GMT 38.189220 19.985983 15,425 191 349 -2432
2022-05-13 12:11:53 GMT 38.205917 19.990267 15,875 194 355 -2432
2022-05-13 12:11:44 GMT 38.220200 19.994707 16,200 195 360 -2304
2022-05-13 12:11:41 GMT 38.225189 19.996403 16,325 196 361 -2688
2022-05-13 12:11:32 GMT 38.238876 20.001488 16,775 198 361 -3200
2022-05-13 12:11:22 GMT 38.256119 20.008789 17,325 200 363 -2944
2022-05-13 12:11:13 GMT 38.269913 20.015394 17,700 202 365 -2496
2022-05-13 12:11:10 GMT 38.274273 20.017628 17,825 206 377 -1856
2022-05-13 12:11:01 GMT 38.288750 20.025688 18,125 205 374 -1856
2022-05-13 12:10:51 GMT 38.304531 20.035360 18,450 208 380 -2112
2022-05-13 12:10:47 GMT 38.310165 20.039122 18,575 209 384 -2176
2022-05-13 12:10:41 GMT 38.320408 20.046347 18,825 211 385 -2048
2022-05-13 12:10:37 GMT 38.325947 20.050467 18,950 211 386 -2048
2022-05-13 12:10:30 GMT 38.336426 20.058699 19,150 213 391 -1856
2022-05-13 12:10:25 GMT 38.344162 20.065243 19,300 217 397 -2624
2022-05-13 12:10:20 GMT 38.351349 20.071671 19,475 217 397 -2432
2022-05-13 12:10:12 GMT 38.364536 20.084202 19,925 218 398 -3136
2022-05-13 12:10:08 GMT 38.368698 20.088326 20,075 219 398 -3200
2022-05-13 12:10:02 GMT 38.379044 20.098553 20,450 217 398 -3072
2022-05-13 12:09:59 GMT 38.382156 20.101416 20,550 215 398 -3008
2022-05-13 12:09:49 GMT 38.398819 20.113337 21,025 205 397 -2816
2022-05-13 12:09:44 GMT 38.407318 20.117579 21,275 200 397 -2944
2022-05-13 12:09:39 GMT 38.416763 20.120863 21,550 193 394 -3008
2022-05-13 12:09:36 GMT 38.422028 20.122192 21,700 189 393 -3008
2022-05-13 12:09:29 GMT 38.434692 20.123779 22,025 182 391 -2880
2022-05-13 12:09:26 GMT 38.439331 20.123848 22,150 177 390 -2880
2022-05-13 12:09:20 GMT 38.450008 20.122864 22,425 172 388 -2752
2022-05-13 12:09:16 GMT 38.458015 20.121338 22,625 169 389 -2432
2022-05-13 12:09:11 GMT 38.467606 20.119141 22,850 169 392 -2304
2022-05-13 12:09:08 GMT 38.471466 20.118237 22,925 169 393 -2304
2022-05-13 12:09:05 GMT 38.477005 20.116982 23,050 169 395 -2304
2022-05-13 12:09:00 GMT 38.486134 20.114868 23,350 169 397 -2368
2022-05-13 12:08:57 GMT 38.490646 20.113831 23,350 169 397 -2432
2022-05-13 12:08:54 GMT 38.496048 20.112610 23,475 169 398 -2560
2022-05-13 12:08:51 GMT 38.504517 20.110653 23,675 169 398 -2496
2022-05-13 12:08:47 GMT 38.509686 20.109436 23,775 169 398 -2304
2022-05-13 12:08:44 GMT 38.514763 20.108276 23,900 169 398 -2112
2022-05-13 12:08:40 GMT 38.523327 20.106262 24,050 169 399 -1792
2022-05-13 12:08:34 GMT 38.533401 20.103907 24,200 169 401 -1536
2022-05-13 12:08:27 GMT 38.546219 20.100861 24,375 169 405 -1664
2022-05-13 12:08:23 GMT 38.552673 20.099308 24,475 169 405 -1728
2022-05-13 12:08:19 GMT 38.562386 20.096985 24,625 169 407 -1728
2022-05-13 12:08:16 GMT 38.565876 20.096130 24,675 169 408 -1536
2022-05-13 12:08:13 GMT 38.572208 20.094604 24,775 169 410 -1344
2022-05-13 12:08:06 GMT 38.584358 20.091675 26,000 169 422 -2304
2022-05-13 12:08:03 GMT 38.591526 20.089966 24,975 169 416 -1664
2022-05-13 12:07:58 GMT 38.599857 20.088013 25,125 169 417 -1920
2022-05-13 12:07:55 GMT 38.606518 20.086487 25,225 169 418 -2048
2022-05-13 12:07:52 GMT 38.611683 20.085266 25,325 169 419 -2112
2022-05-13 12:07:49 GMT 38.619598 20.083426 25,475 169 420 -2368
2022-05-13 12:07:46 GMT 38.623810 20.082470 25,575 169 420 -2304
2022-05-13 12:07:41 GMT 38.632538 20.080444 25,750 169 421 -2368
2022-05-13 12:07:35 GMT 38.643898 20.077820 26,000 169 422 -2304
2022-05-13 12:07:32 GMT 38.650646 20.076233 26,100 169 423 -2304
2022-05-13 12:07:28 GMT 38.659012 20.074350 26,275 169 423 -2368
2022-05-13 12:07:25 GMT 38.663170 20.073364 26,425 169 424 -2368
2022-05-13 12:07:21 GMT 38.670712 20.071655 26,525 169 424 -2304
2022-05-13 12:07:18 GMT 38.680481 20.069393 26,725 169 424 -2368
2022-05-13 12:07:15 GMT 38.683365 20.068739 26,775 169 424 -2368
2022-05-13 12:07:11 GMT 38.691242 20.066895 26,925 169 424 -2304
2022-05-13 12:07:07 GMT 38.698547 20.065247 27,075 169 424 -2304
2022-05-13 12:07:04 GMT 38.703506 20.064079 27,275 169 424 -2304
2022-05-13 12:07:00 GMT 38.711349 20.062317 27,350 169 424 -2304
2022-05-13 12:06:54 GMT 38.723831 20.059423 27,575 169 424 -2304
2022-05-13 12:06:50 GMT 38.731834 20.057556 27,750 169 425 -2368
2022-05-13 12:06:46 GMT 38.739796 20.055664 27,900 169 425 -2368
2022-05-13 12:06:43 GMT 38.743660 20.054749 28,000 169 425 -2368
2022-05-13 12:06:40 GMT 38.751385 20.052917 28,150 169 425 -2368
2022-05-13 12:06:35 GMT 38.760773 20.050707 28,325 169 425 -2368
2022-05-13 12:06:32 GMT 38.765762 20.049511 28,450 169 425 -2368
2022-05-13 12:06:28 GMT 38.772614 20.047852 28,600 169 424 -2432
2022-05-13 12:06:22 GMT 38.784531 20.045033 28,825 169 424 -2368
2022-05-13 12:06:19 GMT 38.791931 20.043274 28,975 169 424 -2304
2022-05-13 12:06:15 GMT 38.798683 20.041687 29,125 169 425 -2304
2022-05-13 12:06:10 GMT 38.808838 20.039301 29,325 169 425 -2304
2022-05-13 12:06:06 GMT 38.819092 20.036854 29,525 169 425 -2304
2022-05-13 12:06:03 GMT 38.823635 20.035767 29,600 169 426 -2304
2022-05-13 12:05:55 GMT 38.838161 20.032349 29,900 169 426 -2304
2022-05-13 12:05:52 GMT 38.843792 20.031006 30,000 169 426 -2304
2022-05-13 12:05:45 GMT 38.858501 20.027588 30,300 169 426 -2304
2022-05-13 12:05:42 GMT 38.863579 20.026428 30,375 169 426 -2304
2022-05-13 12:05:35 GMT 38.877914 20.023071 30,675 169 426 -2304
2022-05-13 12:05:31 GMT 38.883865 20.021687 30,775 169 426 -2240
2022-05-13 12:05:27 GMT 38.892197 20.019777 30,925 169 427 -2112
2022-05-13 12:05:24 GMT 38.898056 20.018402 31,025 169 427 -2176
2022-05-13 12:05:21 GMT 38.902725 20.017328 31,125 169 427 -2176
2022-05-13 12:05:16 GMT 38.913528 20.014771 31,325 169 427 -2304
2022-05-13 12:05:11 GMT 38.923073 20.012573 31,525 169 427 -2112
2022-05-13 12:05:06 GMT 38.932987 20.010254 31,675 169 426 -1728
2022-05-13 12:05:03 GMT 38.938805 20.008850 31,775 169 426 -1472
2022-05-13 12:05:00 GMT 38.943558 20.007715 31,825 169 425 -1472
2022-05-13 12:04:54 GMT 38.957939 20.004333 32,000 169 423 -1024
2022-05-13 12:04:50 GMT 38.962830 20.003178 32,025 169 422 -960
2022-05-13 12:04:45 GMT 38.973175 20.000669 32,125 169 421 -960
2022-05-13 12:04:42 GMT 38.978283 19.999451 32,175 169 420 -960
2022-05-13 12:04:39 GMT 38.984116 19.998102 32,225 169 420 -960
2022-05-13 12:04:33 GMT 38.998627 19.994579 32,325 169 419 -960
2022-05-13 12:04:30 GMT 39.002426 19.993685 32,350 169 419 -960
2022-05-13 12:04:22 GMT 39.018448 19.989862 32,500 169 419 -960
2022-05-13 12:04:19 GMT 39.022430 19.988909 32,525 169 419 -960
2022-05-13 12:04:14 GMT 39.032234 19.986572 32,625 169 417 -1024
2022-05-13 12:04:09 GMT 39.041546 19.984375 32,700 169 417 -960
2022-05-13 12:04:03 GMT 39.053326 19.981567 32,800 169 416 -1088
2022-05-13 12:03:59 GMT 39.061470 19.979614 32,875 169 416 -1024
2022-05-13 12:03:51 GMT 39.077728 19.975773 32,950 169 416 -320
2022-05-13 12:03:48 GMT 39.081528 19.974876 32,975 169 416 -128
2022-05-13 12:03:40 GMT 39.098007 19.970936 32,975 169 416 0
2022-05-13 12:03:37 GMT 39.101925 19.970032 32,975 169 416 0
2022-05-13 12:03:32 GMT 39.111748 19.967712 32,975 169 415 -64
2022-05-13 12:03:28 GMT 39.119980 19.965799 32,975 169 415 -64
2022-05-13 12:03:20 GMT 39.135815 19.962036 32,975 169 415 -64
2022-05-13 12:03:17 GMT 39.139584 19.961182 33,000 169 415 -64
2022-05-13 12:03:11 GMT 39.154587 19.957621 33,000 169 414 -64
2022-05-13 12:03:07 GMT 39.159229 19.956543 33,000 169 414 0
2022-05-13 12:03:00 GMT 39.173492 19.953201 33,000 169 415 0
2022-05-13 12:02:56 GMT 39.179306 19.951769 33,000 169 415 0
2022-05-13 12:02:49 GMT 39.194046 19.948305 33,000 169 415 0
2022-05-13 12:02:46 GMT 39.198578 19.947231 33,000 169 414 0
2022-05-13 12:02:39 GMT 39.213371 19.943726 33,000 169 414 -64
2022-05-13 12:02:36 GMT 39.217514 19.942749 33,000 169 415 0
2022-05-13 12:02:28 GMT 39.234055 19.938753 33,000 169 415 64
2022-05-13 12:02:25 GMT 39.239136 19.937498 33,000 169 415 -64
2022-05-13 12:02:20 GMT 39.248890 19.935120 33,000 169 415 0
2022-05-13 12:02:15 GMT 39.256714 19.933258 33,000 169 415 0
2022-05-13 12:02:08 GMT 39.271271 19.929796 33,000 169 416 64
2022-05-13 12:02:05 GMT 39.276077 19.928589 33,000 169 416 0
2022-05-13 12:01:59 GMT 39.289856 19.925293 33,000 169 416 0
2022-05-13 12:01:55 GMT 39.294975 19.924011 33,000 169 416 64
2022-05-13 12:01:48 GMT 39.308853 19.920662 33,000 169 416 0
2022-05-13 12:01:45 GMT 39.314438 19.919312 33,000 169 416 0
2022-05-13 12:01:38 GMT 39.327576 19.916122 33,000 169 416 0
2022-05-13 12:01:35 GMT 39.333801 19.914631 33,000 169 416 0
2022-05-13 12:01:27 GMT 39.348465 19.911133 33,000 169 415 0
2022-05-13 12:01:24 GMT 39.354263 19.909794 33,000 169 415 0
2022-05-13 12:01:16 GMT 39.368225 19.906450 33,000 169 415 0
2022-05-13 12:01:13 GMT 39.374130 19.905077 33,000 169 415 0
2022-05-13 12:01:06 GMT 39.387615 19.901855 33,000 169 415 0
2022-05-13 12:01:03 GMT 39.393108 19.900574 33,000 169 415 0
2022-05-13 12:00:56 GMT 39.406448 19.897375 33,000 169 415 0
2022-05-13 12:00:53 GMT 39.412243 19.896057 33,000 169 415 -64
2022-05-13 12:00:43 GMT 39.432121 19.891296 33,000 169 416 -128
2022-05-13 12:00:35 GMT 39.446182 19.887941 33,025 169 415 0
2022-05-13 12:00:32 GMT 39.451950 19.886597 33,025 169 415 0
2022-05-13 12:00:25 GMT 39.466232 19.883163 33,025 169 414 0
2022-05-13 12:00:22 GMT 39.471039 19.882019 33,025 169 414 0
2022-05-13 12:00:15 GMT 39.485321 19.878687 33,025 169 415 0
2022-05-13 12:00:12 GMT 39.489853 19.877611 33,025 169 415 0
2022-05-13 12:00:02 GMT 39.509769 19.872864 33,025 169 415 0
2022-05-13 11:59:54 GMT 39.524277 19.869431 33,025 169 415 -64
2022-05-13 11:59:50 GMT 39.530579 19.867920 33,025 169 415 -64
2022-05-13 11:59:43 GMT 39.544281 19.864714 33,025 169 415 0
2022-05-13 11:59:40 GMT 39.549591 19.863401 33,025 169 415 0
2022-05-13 11:59:33 GMT 39.565910 19.859558 33,025 169 414 0
2022-05-13 11:59:30 GMT 39.569542 19.858704 33,025 169 414 -64
2022-05-13 11:59:23 GMT 39.583321 19.855408 33,025 169 415 0
2022-05-13 11:59:19 GMT 39.590118 19.853760 33,025 169 415 64
2022-05-13 11:59:13 GMT 39.601868 19.850922 33,025 169 415 128
2022-05-13 11:59:10 GMT 39.606995 19.849669 33,025 169 415 128
2022-05-13 11:59:00 GMT 39.626522 19.844971 33,000 169 416 0
2022-05-13 11:58:52 GMT 39.641739 19.841309 33,025 169 416 0
2022-05-13 11:58:49 GMT 39.647232 19.839994 33,000 169 415 0
2022-05-13 11:58:41 GMT 39.662415 19.836304 33,000 169 415 0
2022-05-13 11:58:38 GMT 39.668095 19.834961 33,000 169 415 0
2022-05-13 11:58:28 GMT 39.686646 19.830502 33,000 169 414 64
2022-05-13 11:58:18 GMT 39.705753 19.825867 33,000 169 414 64
2022-05-13 11:58:10 GMT 39.720154 19.822380 33,000 169 414 0
2022-05-13 11:58:07 GMT 39.725052 19.821186 32,975 169 414 0
2022-05-13 11:57:57 GMT 39.744598 19.816410 33,000 169 413 -64
2022-05-13 11:57:51 GMT 39.756042 19.813663 33,000 169 412 0
2022-05-13 11:57:47 GMT 39.763805 19.811768 33,000 169 412 0
2022-05-13 11:57:36 GMT 39.783497 19.806946 33,000 169 412 -64
2022-05-13 11:57:28 GMT 39.798981 19.803095 33,000 169 413 0
2022-05-13 11:57:25 GMT 39.804794 19.801722 33,000 169 413 0
2022-05-13 11:57:21 GMT 39.814728 19.799274 33,000 169 414 64
2022-05-13 11:57:16 GMT 39.822182 19.797485 33,000 169 415 0
2022-05-13 11:57:08 GMT 39.837570 19.793781 33,000 169 416 64
2022-05-13 11:57:05 GMT 39.842804 19.792542 33,000 169 416 0
2022-05-13 11:56:57 GMT 39.857529 19.789064 32,975 169 417 0
2022-05-13 11:56:54 GMT 39.862656 19.787809 33,000 169 417 0
2022-05-13 11:56:49 GMT 39.872086 19.785583 33,000 169 419 -64
2022-05-13 11:56:45 GMT 39.880737 19.783451 33,000 169 419 -64
2022-05-13 11:56:38 GMT 39.893963 19.780273 33,025 169 419 0
2022-05-13 11:56:34 GMT 39.900742 19.778616 33,025 169 418 0
2022-05-13 11:56:29 GMT 39.913189 19.775635 33,025 169 419 -320
2022-05-13 11:56:24 GMT 39.919662 19.774048 33,025 169 419 -320
2022-05-13 11:56:17 GMT 39.933998 19.770584 33,075 169 421 -896
2022-05-13 11:56:14 GMT 39.940201 19.769043 33,150 169 421 -1024
2022-05-13 11:56:08 GMT 39.950245 19.766588 33,225 169 422 -1024
2022-05-13 11:56:04 GMT 39.959278 19.764341 33,325 169 422 -960
2022-05-13 11:55:58 GMT 39.969845 19.761721 33,400 169 422 -960
2022-05-13 11:55:53 GMT 39.980118 19.759155 33,500 169 422 -960
2022-05-13 11:55:46 GMT 39.995541 19.755291 33,625 169 422 -960
2022-05-13 11:55:43 GMT 39.999779 19.754229 33,650 169 423 -1024
2022-05-13 11:55:38 GMT 40.008621 19.752045 33,725 169 424 -960
2022-05-13 11:55:33 GMT 40.018864 19.749548 33,825 169 425 -960
2022-05-13 11:55:27 GMT 40.029896 19.746801 33,925 169 426 -960
2022-05-13 11:55:22 GMT 40.039078 19.744507 34,000 169 427 -960
2022-05-13 11:55:17 GMT 40.049076 19.741995 34,100 169 427 -1024
2022-05-13 11:55:13 GMT 40.056664 19.740122 34,225 169 429 -1024
2022-05-13 11:55:10 GMT 40.063087 19.738499 34,225 169 429 -1024
2022-05-13 11:55:06 GMT 40.071991 19.736267 34,300 169 430 -1024
2022-05-13 11:55:02 GMT 40.079041 19.734558 34,350 169 432 -960
2022-05-13 11:54:51 GMT 40.099632 19.729509 34,525 169 437 -960
2022-05-13 11:54:46 GMT 40.110199 19.726952 34,625 169 438 -1024
2022-05-13 11:54:41 GMT 40.120102 19.724609 34,700 169 441 -1024
2022-05-13 11:54:37 GMT 40.129238 19.722395 34,775 169 444 -1024
2022-05-13 11:54:30 GMT 40.142181 19.719336 34,875 169 448 -1024
2022-05-13 11:54:27 GMT 40.150558 19.717339 34,925 169 449 -1024
2022-05-13 11:54:20 GMT 40.162994 19.714417 35,025 169 454 -960
2022-05-13 11:54:16 GMT 40.171097 19.712585 35,050 169 458 -1024
2022-05-13 11:54:09 GMT 40.185745 19.709167 35,150 169 462 -1088
2022-05-13 11:54:04 GMT 40.197205 19.706289 35,275 168 464 -1024
2022-05-13 11:53:59 GMT 40.205887 19.703674 35,350 165 464 -1024
2022-05-13 11:53:55 GMT 40.215546 19.700296 35,450 163 464 -1024
2022-05-13 11:53:49 GMT 40.226761 19.695801 35,550 161 463 -1024
2022-05-13 11:53:45 GMT 40.235458 19.691956 35,625 160 462 -960
2022-05-13 11:53:39 GMT 40.256142 19.682507 35,725 160 462 -1024
2022-05-13 11:53:36 GMT 40.256142 19.682507 35,775 160 462 -960
2022-05-13 11:53:28 GMT 40.269196 19.676575 35,875 160 462 -1024
2022-05-13 11:53:25 GMT 40.276245 19.673340 35,950 160 462 -960
2022-05-13 11:53:19 GMT 40.288788 19.667664 36,050 160 461 -1024
2022-05-13 11:53:12 GMT 40.302246 19.661499 36,175 160 460 -960
2022-05-13 11:53:08 GMT 40.309708 19.658081 36,225 160 460 -960
2022-05-13 11:53:04 GMT 40.318359 19.654175 36,300 160 459 -1024
2022-05-13 11:52:58 GMT 40.331177 19.648315 36,400 160 459 -960
2022-05-13 11:52:55 GMT 40.338409 19.645081 36,475 160 458 -960
2022-05-13 11:52:47 GMT 40.352234 19.638733 36,575 160 457 -960
2022-05-13 11:52:44 GMT 40.358414 19.635925 36,625 160 457 -1024
2022-05-13 11:52:37 GMT 40.372192 19.629578 36,725 160 457 -1024
2022-05-13 11:52:33 GMT 40.380062 19.625952 36,800 160 457 -960
2022-05-13 11:52:27 GMT 40.393066 19.619934 36,925 160 456 -960
2022-05-13 11:52:21 GMT 40.403709 19.615028 37,000 160 455 -960
2022-05-13 11:52:16 GMT 40.414764 19.609924 37,075 160 455 -960
2022-05-13 11:52:13 GMT 40.419632 19.607662 37,125 160 454 -960
2022-05-13 11:52:06 GMT 40.434528 19.600796 37,225 160 455 -1024
2022-05-13 11:52:02 GMT 40.441360 19.597656 37,300 160 455 -1024
2022-05-13 11:51:56 GMT 40.453568 19.591993 37,400 160 456 -1024
2022-05-13 11:51:53 GMT 40.460449 19.588867 37,450 160 456 -1024
2022-05-13 11:51:45 GMT 40.475636 19.581820 37,575 160 455 -1024
2022-05-13 11:51:42 GMT 40.480911 19.579407 37,625 160 455 -960
2022-05-13 11:51:35 GMT 40.496155 19.572327 37,750 160 453 -960
2022-05-13 11:51:32 GMT 40.502289 19.569458 37,800 160 453 -960
2022-05-13 11:51:25 GMT 40.515518 19.563354 37,900 160 452 -1024
2022-05-13 11:51:22 GMT 40.523438 19.559692 37,975 160 452 -1024
2022-05-13 11:51:15 GMT 40.535065 19.554321 38,100 160 451 -1024
2022-05-13 11:51:11 GMT 40.542343 19.550964 38,150 160 450 -960
2022-05-13 11:51:04 GMT 40.557335 19.543928 38,275 160 449 -960
2022-05-13 11:51:01 GMT 40.561752 19.541870 38,300 160 448 -960
2022-05-13 11:50:55 GMT 40.574020 19.536133 38,425 160 447 -896
2022-05-13 11:50:52 GMT 40.581539 19.532694 38,475 160 445 -960
2022-05-13 11:50:44 GMT 40.595398 19.526184 38,625 160 444 -1024
2022-05-13 11:50:41 GMT 40.601513 19.523329 38,650 160 444 -1024
2022-05-13 11:50:35 GMT 40.613800 19.517639 38,750 160 444 -1024
2022-05-13 11:50:30 GMT 40.622910 19.513428 38,825 160 444 -1024
2022-05-13 11:50:23 GMT 40.642338 19.504416 38,950 160 444 -704
2022-05-13 11:50:20 GMT 40.642338 19.504416 38,975 160 444 -576
2022-05-13 11:50:14 GMT 40.653671 19.499207 39,025 160 444 -128
2022-05-13 11:50:11 GMT 40.660774 19.495926 39,025 160 445 -128
2022-05-13 11:50:03 GMT 40.675507 19.489197 39,050 160 447 0
2022-05-13 11:50:00 GMT 40.680954 19.486694 39,025 160 449 64
2022-05-13 11:49:50 GMT 40.701004 19.477539 39,000 160 453 64
2022-05-13 11:49:42 GMT 40.717007 19.470207 39,000 160 457 -256
2022-05-13 11:49:39 GMT 40.724304 19.466858 39,025 160 458 -384
2022-05-13 11:49:32 GMT 40.737026 19.460970 39,050 160 460 64
2022-05-13 11:49:29 GMT 40.743759 19.457825 39,050 160 460 0
2022-05-13 11:49:21 GMT 40.758408 19.450989 39,050 160 461 0
2022-05-13 11:49:18 GMT 40.764450 19.448181 39,050 160 461 0
2022-05-13 11:49:14 GMT 40.773804 19.443867 39,050 160 461 0
2022-05-13 11:49:11 GMT 40.779434 19.441244 39,050 160 462 0
2022-05-13 11:49:08 GMT 40.784363 19.438965 39,050 160 462 0
2022-05-13 11:49:01 GMT 40.799778 19.431818 39,050 160 462 0
2022-05-13 11:48:58 GMT 40.804550 19.429626 39,050 160 462 0
2022-05-13 11:48:51 GMT 40.819839 19.422485 39,050 160 463 -64
2022-05-13 11:48:48 GMT 40.824821 19.420208 39,050 160 463 -64
2022-05-13 11:48:40 GMT 40.841446 19.412476 39,050 160 463 0
2022-05-13 11:48:37 GMT 40.846794 19.410032 39,050 160 463 0
2022-05-13 11:48:27 GMT 40.867001 19.400669 39,050 160 462 192
2022-05-13 11:48:17 GMT 40.887760 19.391056 39,000 160 462 -64
2022-05-13 11:48:14 GMT 40.895508 19.387390 39,000 160 462 0
2022-05-13 11:48:09 GMT 40.903915 19.383503 39,025 160 462 -64
2022-05-13 11:48:05 GMT 40.912762 19.379383 39,025 160 462 -64
2022-05-13 11:48:00 GMT 40.922024 19.375076 39,025 160 461 0
2022-05-13 11:47:56 GMT 40.929977 19.371338 39,025 160 461 0
2022-05-13 11:47:49 GMT 40.944740 19.364464 39,000 160 460 128
2022-05-13 11:47:46 GMT 40.950851 19.361572 39,000 160 460 64
2022-05-13 11:47:39 GMT 40.964081 19.355408 39,000 160 459 64
2022-05-13 11:47:35 GMT 40.971085 19.352112 39,000 160 459 64
2022-05-13 11:47:30 GMT 40.981522 19.347168 38,975 160 459 0
2022-05-13 11:47:25 GMT 40.991501 19.342468 38,975 160 458 0
2022-05-13 11:47:22 GMT 40.997314 19.339722 38,975 160 458 0
2022-05-13 11:47:17 GMT 41.009357 19.334002 38,975 160 457 0
2022-05-13 11:47:14 GMT 41.013245 19.332214 38,975 160 457 64
2022-05-13 11:47:04 GMT 41.033569 19.322632 38,975 160 456 64
2022-05-13 11:46:54 GMT 41.054512 19.312841 38,975 160 456 0
2022-05-13 11:46:46 GMT 41.069035 19.306101 38,950 160 455 0
2022-05-13 11:46:43 GMT 41.075180 19.303165 38,950 160 455 0
2022-05-13 11:46:37 GMT 41.088448 19.296925 38,975 160 454 0
2022-05-13 11:46:33 GMT 41.095570 19.293552 38,975 160 453 0
2022-05-13 11:46:23 GMT 41.113911 19.284939 38,950 160 452 64
2022-05-13 11:46:21 GMT 41.118053 19.283003 38,950 160 453 64
2022-05-13 11:46:15 GMT 41.131393 19.276733 38,950 160 452 -64
2022-05-13 11:46:12 GMT 41.143616 19.270996 38,975 160 451 -64
2022-05-13 11:46:02 GMT 41.157486 19.264526 38,975 160 451 -64
2022-05-13 11:45:54 GMT 41.177132 19.255287 38,975 160 450 0
2022-05-13 11:45:52 GMT 41.177132 19.255287 38,975 160 450 0
2022-05-13 11:45:43 GMT 41.194588 19.246986 38,975 160 450 -64
2022-05-13 11:45:41 GMT 41.198364 19.245178 38,975 160 450 -64
2022-05-13 11:45:34 GMT 41.211319 19.239075 39,000 160 449 -64
2022-05-13 11:45:31 GMT 41.218048 19.235874 39,000 160 449 -64
2022-05-13 11:45:24 GMT 41.232056 19.229248 39,000 160 449 0
2022-05-13 11:45:20 GMT 41.238953 19.226011 39,000 160 449 0
2022-05-13 11:45:13 GMT 41.252266 19.219707 39,000 160 448 0
2022-05-13 11:45:10 GMT 41.259201 19.216431 39,000 160 448 0
2022-05-13 11:45:04 GMT 41.272003 19.210405 39,000 160 448 0
2022-05-13 11:45:01 GMT 41.276287 19.208408 39,000 160 448 0
2022-05-13 11:44:57 GMT 41.284340 19.204601 39,000 160 448 0
2022-05-13 11:44:53 GMT 41.291840 19.201111 39,000 160 448 0
2022-05-13 11:44:49 GMT 41.299747 19.197359 39,000 160 448 -64
2022-05-13 11:44:43 GMT 41.311295 19.191929 39,000 160 448 0
2022-05-13 11:44:39 GMT 41.319859 19.187872 39,000 160 448 0
2022-05-13 11:44:30 GMT 41.336479 19.180008 39,000 160 448 0
2022-05-13 11:44:23 GMT 41.351933 19.172703 39,000 160 448 -64
2022-05-13 11:44:20 GMT 41.356110 19.170715 39,000 160 449 -64
2022-05-13 11:44:13 GMT 41.372543 19.162964 39,025 160 449 -64
2022-05-13 11:44:10 GMT 41.376560 19.161093 39,025 160 448 -64
2022-05-13 11:44:02 GMT 41.391968 19.153769 39,025 160 448 0
2022-05-13 11:43:59 GMT 41.396576 19.151543 39,025 160 448 -64
2022-05-13 11:43:48 GMT 41.417946 19.141376 39,025 160 448 0
2022-05-13 11:43:41 GMT 41.431870 19.134750 39,025 160 448 64
2022-05-13 11:43:38 GMT 41.437729 19.131941 39,025 160 448 64
2022-05-13 11:43:32 GMT 41.451782 19.125261 39,000 160 448 0
2022-05-13 11:43:28 GMT 41.457047 19.122704 39,000 160 448 0
2022-05-13 11:43:21 GMT 41.472290 19.115398 39,000 159 449 0
2022-05-13 11:43:18 GMT 41.477737 19.112715 39,000 159 448 0
2022-05-13 11:43:11 GMT 41.491684 19.105927 39,025 159 448 0
2022-05-13 11:43:08 GMT 41.497421 19.103102 39,025 159 448 0
2022-05-13 11:43:00 GMT 41.512939 19.095362 39,025 159 448 64
2022-05-13 11:42:57 GMT 41.518871 19.092386 39,025 159 448 64
2022-05-13 11:42:51 GMT 41.531708 19.085875 39,000 158 447 64
2022-05-13 11:42:47 GMT 41.536469 19.083445 39,000 158 447 64
2022-05-13 11:42:40 GMT 41.551025 19.075949 39,000 158 447 64
2022-05-13 11:42:36 GMT 41.557800 19.072453 39,000 158 447 64
2022-05-13 11:42:25 GMT 41.578857 19.061653 38,975 159 448 0
2022-05-13 11:42:19 GMT 41.591724 19.055210 38,975 159 448 -64
2022-05-13 11:42:14 GMT 41.601688 19.050486 39,000 160 447 -64
2022-05-13 11:42:10 GMT 41.610809 19.046297 39,000 161 448 0
2022-05-13 11:42:05 GMT 41.618271 19.043053 39,000 163 448 0
2022-05-13 11:41:59 GMT 41.630585 19.038120 39,000 164 448 0
2022-05-13 11:41:55 GMT 41.639114 19.035027 39,000 164 449 64
2022-05-13 11:41:48 GMT 41.652832 19.030067 38,975 164 449 0
2022-05-13 11:41:45 GMT 41.659241 19.027697 38,975 164 449 -64
2022-05-13 11:41:37 GMT 41.674072 19.022390 39,000 164 448 0
2022-05-13 11:41:33 GMT 41.683273 19.019018 39,000 164 448 64
2022-05-13 11:41:28 GMT 41.691998 19.015865 38,975 164 448 64
2022-05-13 11:41:22 GMT 41.713181 19.008200 38,975 164 448 -64
2022-05-13 11:41:18 GMT 41.713181 19.008200 38,975 164 448 -64
2022-05-13 11:41:14 GMT 41.721085 19.005348 38,975 164 448 -64
2022-05-13 11:41:08 GMT 41.733307 19.000917 39,000 164 448 -64
2022-05-13 11:41:03 GMT 41.742508 18.997608 39,000 164 448 0
2022-05-13 11:40:57 GMT 41.755215 18.993061 39,000 164 447 0
2022-05-13 11:40:52 GMT 41.764202 18.989803 39,000 164 447 64
2022-05-13 11:40:46 GMT 41.776245 18.985374 38,975 164 447 0
2022-05-13 11:40:43 GMT 41.782654 18.983065 38,975 164 447 0
2022-05-13 11:40:38 GMT 41.794418 18.978819 38,975 164 447 0
2022-05-13 11:40:33 GMT 41.802383 18.975885 38,975 164 447 0
2022-05-13 11:40:26 GMT 41.816345 18.970766 39,000 164 447 0
2022-05-13 11:40:22 GMT 41.824127 18.967958 38,975 164 446 0
2022-05-13 11:40:17 GMT 41.835526 18.963776 38,975 164 447 0
2022-05-13 11:40:11 GMT 41.845806 18.959974 38,975 164 447 0
2022-05-13 11:40:06 GMT 41.856747 18.956015 39,000 164 447 0
2022-05-13 11:40:02 GMT 41.864147 18.953333 39,000 164 447 -64
2022-05-13 11:39:57 GMT 41.876949 18.948732 39,000 164 447 -64
2022-05-13 11:39:52 GMT 41.884911 18.945860 39,000 164 447 -64
2022-05-13 11:39:45 GMT 41.898689 18.940878 39,000 164 447 0
2022-05-13 11:39:42 GMT 41.905487 18.938387 39,000 164 447 0
2022-05-13 11:39:37 GMT 41.916504 18.934437 39,000 164 447 0
2022-05-13 11:39:31 GMT 41.926388 18.930849 39,000 164 447 0
2022-05-13 11:39:26 GMT 41.937469 18.926760 39,000 164 446 0
2022-05-13 11:39:21 GMT 41.947338 18.923183 39,000 164 446 -64
2022-05-13 11:39:15 GMT 41.959908 18.918585 39,000 164 447 -64
2022-05-13 11:39:11 GMT 41.967262 18.915838 39,025 164 447 -64
2022-05-13 11:39:04 GMT 41.979950 18.911217 39,025 164 447 0
2022-05-13 11:39:00 GMT 41.988510 18.908094 39,025 164 447 0
2022-05-13 11:38:54 GMT 41.999569 18.904022 39,025 164 447 -64
2022-05-13 11:38:50 GMT 42.008366 18.900827 39,025 164 448 -64
2022-05-13 11:38:45 GMT 42.019226 18.896795 39,025 164 447 -64
2022-05-13 11:38:40 GMT 42.028522 18.893354 39,025 164 447 -64
2022-05-13 11:38:35 GMT 42.039883 18.889139 39,050 164 447 -64
2022-05-13 11:38:30 GMT 42.048340 18.885998 39,050 164 447 -64
2022-05-13 11:38:24 GMT 42.060471 18.881441 39,050 164 447 0
2022-05-13 11:38:19 GMT 42.070560 18.877705 39,050 164 447 0
2022-05-13 11:38:15 GMT 42.081127 18.873745 39,050 164 448 0
2022-05-13 11:38:09 GMT 42.090408 18.870329 39,050 164 448 -64
2022-05-13 11:38:03 GMT 42.101761 18.866085 39,050 164 448 0
2022-05-13 11:37:59 GMT 42.109852 18.863142 39,050 164 448 64
2022-05-13 11:37:54 GMT 42.122234 18.858543 39,050 164 447 64
2022-05-13 11:37:49 GMT 42.130737 18.855473 39,025 164 448 128
2022-05-13 11:37:43 GMT 42.141953 18.851353 39,025 164 448 64
2022-05-13 11:37:36 GMT 42.155731 18.846359 39,025 165 448 64
2022-05-13 11:37:32 GMT 42.164455 18.843277 39,025 165 448 0
2022-05-13 11:37:28 GMT 42.171753 18.840616 39,025 165 448 0
2022-05-13 11:37:23 GMT 42.182602 18.836746 39,025 164 448 0
2022-05-13 11:37:16 GMT 42.195740 18.831816 39,025 163 447 64
2022-05-13 11:37:11 GMT 42.205330 18.827885 39,000 162 446 192
2022-05-13 11:37:06 GMT 42.214966 18.823668 39,000 159 447 0
2022-05-13 11:37:01 GMT 42.225113 18.819004 38,975 160 447 0
2022-05-13 11:36:57 GMT 42.232773 18.815273 38,975 159 446 -64
2022-05-13 11:36:52 GMT 42.242710 18.810127 39,000 156 445 0
2022-05-13 11:36:46 GMT 42.253326 18.804350 39,000 156 445 0
2022-05-13 11:36:43 GMT 42.261658 18.799543 39,000 156 445 0
2022-05-13 11:36:40 GMT 42.266144 18.796858 39,000 154 444 128
2022-05-13 11:36:37 GMT 42.272038 18.793264 39,000 154 444 128
2022-05-13 11:36:31 GMT 42.282486 18.786558 39,000 153 443 128
2022-05-13 11:36:26 GMT 42.290771 18.781004 38,975 152 443 64
2022-05-13 11:36:22 GMT 42.300667 18.774038 38,975 151 443 0
2022-05-13 11:36:15 GMT 42.310638 18.766645 38,975 150 442 -64
2022-05-13 11:36:10 GMT 42.319569 18.759666 38,975 149 442 -64
2022-05-13 11:36:06 GMT 42.327896 18.752913 38,975 148 442 0
2022-05-13 11:35:59 GMT 42.338470 18.743889 38,975 146 440 0
2022-05-13 11:35:55 GMT 42.346527 18.736622 38,975 145 440 0
2022-05-13 11:35:44 GMT 42.363510 18.720577 38,975 144 440 0
2022-05-13 11:35:41 GMT 42.371429 18.712837 38,975 144 439 -64
2022-05-13 11:35:34 GMT 42.380737 18.703777 38,975 144 439 -64
2022-05-13 11:35:27 GMT 42.392750 18.692087 39,000 144 439 -64
2022-05-13 11:35:24 GMT 42.397614 18.687307 39,000 144 439 -64
2022-05-13 11:35:14 GMT 42.413910 18.671389 39,000 143 438 0
2022-05-13 11:35:07 GMT 42.426311 18.659256 39,000 143 438 0
2022-05-13 11:35:04 GMT 42.430481 18.655161 39,000 143 438 0
2022-05-13 11:35:00 GMT 42.438602 18.647247 39,000 143 438 0
2022-05-13 11:34:54 GMT 42.446915 18.639116 39,000 143 438 0
2022-05-13 11:34:47 GMT 42.457970 18.628277 39,000 143 438 0
2022-05-13 11:34:41 GMT 42.467606 18.618830 39,000 143 438 64
2022-05-13 11:34:36 GMT 42.476944 18.609653 39,000 144 439 64
2022-05-13 11:34:32 GMT 42.482391 18.604347 39,000 144 439 64
2022-05-13 11:34:28 GMT 42.488983 18.597918 39,000 144 439 64
2022-05-13 11:34:25 GMT 42.493954 18.593019 39,000 144 439 64
2022-05-13 11:34:21 GMT 42.500473 18.586620 39,000 144 439 64
2022-05-13 11:34:16 GMT 42.510818 18.576508 38,975 144 439 64
2022-05-13 11:34:11 GMT 42.517136 18.570280 38,975 144 439 0
2022-05-13 11:34:07 GMT 42.523746 18.563829 38,975 144 439 64
2022-05-13 11:34:01 GMT 42.533428 18.554312 38,975 143 440 0
2022-05-13 11:33:58 GMT 42.539204 18.548691 38,975 143 440 0
2022-05-13 11:33:54 GMT 42.545906 18.542048 38,975 143 439 64
2022-05-13 11:33:51 GMT 42.550049 18.537960 38,975 143 439 64
2022-05-13 11:33:48 GMT 42.555450 18.532658 38,975 143 439 64
2022-05-13 11:33:43 GMT 42.563553 18.524635 38,975 143 439 64
2022-05-13 11:33:40 GMT 42.567600 18.520714 38,975 143 439 64
2022-05-13 11:33:35 GMT 42.577934 18.510494 38,950 143 439 64
2022-05-13 11:33:28 GMT 42.589828 18.498730 38,950 143 439 0
2022-05-13 11:33:24 GMT 42.595158 18.493439 38,975 143 439 -64
2022-05-13 11:33:17 GMT 42.606766 18.482063 38,975 144 439 -64
2022-05-13 11:33:07 GMT 42.623089 18.465975 38,975 144 439 0
2022-05-13 11:32:59 GMT 42.634872 18.454411 38,975 144 439 0
2022-05-13 11:32:55 GMT 42.642826 18.446556 38,975 143 440 0
2022-05-13 11:32:49 GMT 42.652588 18.436932 38,975 143 440 -64
2022-05-13 11:32:42 GMT 42.663940 18.425758 39,000 144 439 -64
2022-05-13 11:32:38 GMT 42.670292 18.419537 39,000 144 439 -64
2022-05-13 11:32:32 GMT 42.679413 18.410589 39,000 143 440 0
2022-05-13 11:32:29 GMT 42.685284 18.404781 39,000 143 440 0
2022-05-13 11:32:22 GMT 42.697220 18.393047 39,000 143 440 0
2022-05-13 11:32:18 GMT 42.703308 18.387056 39,000 143 440 -64
2022-05-13 11:32:13 GMT 42.710793 18.379681 39,000 143 441 -128
2022-05-13 11:32:06 GMT 42.724045 18.366520 39,025 143 441 -192
2022-05-13 11:31:58 GMT 42.736675 18.354067 39,050 143 440 0
2022-05-13 11:31:50 GMT 42.748501 18.342314 39,050 143 440 64
2022-05-13 11:31:46 GMT 42.764191 18.326729 39,025 143 442 0
2022-05-13 11:31:41 GMT 42.764191 18.326729 39,025 143 442 0
2022-05-13 11:31:37 GMT 42.770428 18.320534 39,025 143 442 -64
2022-05-13 11:31:32 GMT 42.779690 18.311335 39,025 143 443 -64
2022-05-13 11:31:25 GMT 42.791840 18.299229 39,050 143 443 -64
2022-05-13 11:31:22 GMT 42.797054 18.294088 39,050 143 443 0
2022-05-13 11:31:16 GMT 42.804829 18.286360 39,050 143 443 0
2022-05-13 11:31:13 GMT 42.809372 18.281889 39,050 143 443 64
2022-05-13 11:31:04 GMT 42.825871 18.265554 39,025 143 444 128
2022-05-13 11:30:56 GMT 42.838211 18.253273 39,000 143 445 128
2022-05-13 11:30:52 GMT 42.845718 18.245800 39,000 143 445 128
2022-05-13 11:30:45 GMT 42.856407 18.235212 39,000 143 445 64
2022-05-13 11:30:38 GMT 42.868095 18.223637 39,000 143 445 128
2022-05-13 11:30:35 GMT 42.873138 18.218590 38,975 143 445 128
2022-05-13 11:30:30 GMT 42.883118 18.208689 38,975 143 446 128
2022-05-13 11:30:25 GMT 42.889114 18.202749 38,975 143 446 128
2022-05-13 11:30:19 GMT 42.899330 18.192509 38,950 143 446 128
2022-05-13 11:30:15 GMT 42.907150 18.184727 38,950 143 446 64
2022-05-13 11:30:09 GMT 42.915810 18.176094 38,950 143 446 -64
2022-05-13 11:30:04 GMT 42.924042 18.167873 38,950 143 446 -64
2022-05-13 11:29:59 GMT 42.932755 18.159224 38,975 143 445 -64
2022-05-13 11:29:54 GMT 42.940903 18.151114 38,950 143 445 0
2022-05-13 11:29:50 GMT 42.949448 18.142580 38,950 143 445 64
2022-05-13 11:29:42 GMT 42.960754 18.131338 38,950 143 445 64
2022-05-13 11:29:39 GMT 42.966503 18.125610 38,950 143 445 0
2022-05-13 11:29:33 GMT 42.975628 18.116455 38,950 143 445 0
2022-05-13 11:29:27 GMT 42.986206 18.105915 38,950 143 445 -64
2022-05-13 11:29:24 GMT 42.991924 18.100172 38,975 143 446 -128
2022-05-13 11:29:18 GMT 43.001450 18.090586 38,975 143 445 -128
2022-05-13 11:29:13 GMT 43.009472 18.082516 39,000 143 445 -128
2022-05-13 11:29:09 GMT 43.018021 18.073978 39,000 143 445 -64
2022-05-13 11:29:03 GMT 43.026627 18.065292 39,000 143 446 -64
2022-05-13 11:28:58 GMT 43.034657 18.057207 39,000 143 446 -64
2022-05-13 11:28:53 GMT 43.043129 18.048706 39,000 143 446 -64
2022-05-13 11:28:47 GMT 43.052254 18.039551 39,025 143 446 -64
2022-05-13 11:28:43 GMT 43.059814 18.031950 39,025 143 446 0
2022-05-13 11:28:37 GMT 43.068874 18.022810 39,025 143 447 0
2022-05-13 11:28:32 GMT 43.077759 18.013872 39,050 143 447 0
2022-05-13 11:28:25 GMT 43.089249 18.002312 39,025 143 447 0
2022-05-13 11:28:22 GMT 43.094238 17.997330 39,025 143 448 -64
2022-05-13 11:28:17 GMT 43.102345 17.989197 39,025 143 448 -64
2022-05-13 11:28:08 GMT 43.118271 17.973186 39,050 143 448 -64
2022-05-13 11:27:58 GMT 43.151825 17.939396 39,050 143 450 0
2022-05-13 11:27:47 GMT 43.151825 17.939396 39,050 143 449 0
2022-05-13 11:27:37 GMT 43.171803 17.919159 39,050 143 450 0
2022-05-13 11:27:26 GMT 43.188560 17.902222 39,050 143 450 64
2022-05-13 11:27:15 GMT 43.205784 17.884762 39,025 143 451 0
2022-05-13 11:27:09 GMT 43.216396 17.874102 39,025 143 451 0
2022-05-13 11:27:05 GMT 43.223511 17.866899 39,025 143 452 0
2022-05-13 11:26:58 GMT 43.235855 17.854483 39,050 143 452 0
2022-05-13 11:26:56 GMT 43.239254 17.851084 39,025 143 452 0
2022-05-13 11:26:46 GMT 43.255222 17.834995 39,025 143 452 64
2022-05-13 11:26:36 GMT 43.272865 17.817207 39,025 143 452 64
2022-05-13 11:26:24 GMT 43.292698 17.797132 39,025 143 452 0
2022-05-13 11:26:18 GMT 43.301376 17.788399 39,025 143 451 0
2022-05-13 11:26:15 GMT 43.309315 17.780327 39,025 143 451 0
2022-05-13 11:26:02 GMT 43.329472 17.759857 39,000 143 451 0
2022-05-13 11:25:59 GMT 43.335754 17.753460 39,025 143 451 64
2022-05-13 11:25:51 GMT 43.347656 17.741386 39,000 143 451 64
2022-05-13 11:25:38 GMT 43.369694 17.719051 39,000 143 451 0
2022-05-13 11:25:29 GMT 43.384125 17.704403 39,000 143 451 64
2022-05-13 11:25:23 GMT 43.393753 17.694632 39,000 143 451 128
2022-05-13 11:25:19 GMT 43.402451 17.685818 38,975 143 451 128
2022-05-13 11:25:14 GMT 43.409454 17.678663 38,975 143 450 128
2022-05-13 11:25:10 GMT 43.416138 17.671827 38,975 143 450 64
2022-05-13 11:25:00 GMT 43.433563 17.653982 38,950 143 449 0
2022-05-13 11:24:49 GMT 43.451019 17.636187 38,950 143 449 0
2022-05-13 11:24:42 GMT 43.469410 17.617296 38,950 143 448 0
2022-05-13 11:24:38 GMT 43.474251 17.612392 38,950 143 448 64
2022-05-13 11:24:32 GMT 43.486816 17.599586 38,950 143 448 64
2022-05-13 11:24:28 GMT 43.486816 17.599586 38,950 143 448 64
2022-05-13 11:24:22 GMT 43.496613 17.589558 38,950 143 448 -64
2022-05-13 11:24:17 GMT 43.504120 17.581894 38,950 143 448 -64
2022-05-13 11:24:12 GMT 43.513355 17.572435 38,975 143 448 -64
2022-05-13 11:24:06 GMT 43.522339 17.563280 38,975 143 448 -64
2022-05-13 11:24:02 GMT 43.531788 17.553602 38,975 143 448 -64
2022-05-13 11:23:57 GMT 43.537609 17.547716 38,975 143 448 -64
2022-05-13 11:23:50 GMT 43.549164 17.535904 38,975 143 448 0
2022-05-13 11:23:45 GMT 43.556625 17.528238 38,975 143 448 0
2022-05-13 11:23:36 GMT 43.572010 17.512533 38,975 143 448 0
2022-05-13 11:23:30 GMT 43.582672 17.501476 39,000 143 448 0
2022-05-13 11:23:25 GMT 43.590134 17.493811 39,000 143 448 0
2022-05-13 11:23:19 GMT 43.600937 17.482634 39,000 143 448 0
2022-05-13 11:23:15 GMT 43.606461 17.476894 39,000 143 448 0
2022-05-13 11:23:10 GMT 43.616684 17.466410 39,000 143 449 64
2022-05-13 11:23:07 GMT 43.621403 17.461527 39,000 143 449 0
2022-05-13 11:23:03 GMT 43.628712 17.454006 39,000 143 449 0
2022-05-13 11:22:58 GMT 43.634575 17.448055 38,975 143 450 -64
2022-05-13 11:22:52 GMT 43.645981 17.436325 39,000 143 450 -64
2022-05-13 11:22:48 GMT 43.652161 17.430000 39,000 143 450 -128
2022-05-13 11:22:46 GMT 43.655571 17.426474 39,000 143 450 -128
2022-05-13 11:22:41 GMT 43.663391 17.418430 39,025 143 450 -128
2022-05-13 11:22:34 GMT 43.676052 17.405416 39,025 143 450 -64
2022-05-13 11:22:32 GMT 43.679218 17.402147 39,025 143 450 0
2022-05-13 11:22:26 GMT 43.689228 17.391882 39,025 143 450 0
2022-05-13 11:22:21 GMT 43.696793 17.384075 39,025 143 450 -64
2022-05-13 11:22:17 GMT 43.705055 17.375532 39,025 143 451 0
2022-05-13 11:22:11 GMT 43.713318 17.367022 39,025 143 451 0
2022-05-13 11:22:07 GMT 43.720825 17.359293 39,025 143 451 0
2022-05-13 11:22:04 GMT 43.725998 17.353928 39,050 143 451 0
2022-05-13 11:22:01 GMT 43.739460 17.340021 39,050 143 451 0
2022-05-13 11:21:56 GMT 43.739460 17.340021 39,050 143 451 0
2022-05-13 11:21:44 GMT 43.759552 17.319244 39,025 143 452 0
2022-05-13 11:21:40 GMT 43.765156 17.313408 39,025 143 452 0
2022-05-13 11:21:35 GMT 43.773926 17.304361 39,025 143 452 0
2022-05-13 11:21:26 GMT 43.789223 17.288490 39,025 143 452 0
2022-05-13 11:21:24 GMT 43.791824 17.285774 39,025 143 452 0
2022-05-13 11:21:20 GMT 43.798950 17.278421 39,025 143 453 -64
2022-05-13 11:21:15 GMT 43.807755 17.269358 39,050 143 453 -64
2022-05-13 11:21:05 GMT 43.824230 17.252262 39,050 143 453 0
2022-05-13 11:20:54 GMT 43.843094 17.232758 39,050 143 453 0
2022-05-13 11:20:44 GMT 43.861473 17.213812 39,025 142 453 0
2022-05-13 11:20:38 GMT 43.870102 17.204845 39,050 143 452 0
2022-05-13 11:20:35 GMT 43.875389 17.199358 39,050 142 453 0
2022-05-13 11:20:28 GMT 43.885773 17.188568 39,050 142 453 0
2022-05-13 11:20:25 GMT 43.892212 17.181850 39,050 142 453 64
2022-05-13 11:20:19 GMT 43.901646 17.172024 39,050 142 453 0
2022-05-13 11:20:15 GMT 43.909000 17.164307 39,025 142 453 0
2022-05-13 11:20:13 GMT 43.911514 17.161692 39,025 142 453 0
2022-05-13 11:20:09 GMT 43.917522 17.155413 39,050 142 453 -64
2022-05-13 11:20:04 GMT 43.927277 17.145187 39,050 142 453 64
2022-05-13 11:19:59 GMT 43.934559 17.137560 39,000 143 452 0
2022-05-13 11:19:53 GMT 43.945034 17.126574 39,025 142 452 128
2022-05-13 11:19:48 GMT 43.954147 17.117083 39,025 143 452 0
2022-05-13 11:19:42 GMT 43.962662 17.108204 39,000 143 452 0
2022-05-13 11:19:39 GMT 43.967751 17.102901 39,000 143 452 0
2022-05-13 11:19:34 GMT 43.979828 17.090256 39,025 143 452 64
2022-05-13 11:19:27 GMT 43.988605 17.081123 39,000 143 452 64
2022-05-13 11:19:22 GMT 43.996941 17.072428 39,000 143 452 64
2022-05-13 11:19:18 GMT 44.003860 17.065216 39,000 143 451 0
2022-05-13 11:19:11 GMT 44.014442 17.054182 39,000 143 450 -64
2022-05-13 11:19:09 GMT 44.018772 17.049669 38,975 143 449 0
2022-05-13 11:19:02 GMT 44.030136 17.037750 38,975 143 450 64
2022-05-13 11:18:53 GMT 44.044514 17.022726 38,975 142 449 128
2022-05-13 11:18:48 GMT 44.053173 17.013702 38,975 142 449 64
2022-05-13 11:18:43 GMT 44.061401 17.005175 38,950 143 449 0
2022-05-13 11:18:41 GMT 44.063972 17.002455 38,975 143 449 0
2022-05-13 11:18:37 GMT 44.070911 16.995195 38,975 143 449 0
2022-05-13 11:18:32 GMT 44.080627 16.985056 38,975 142 448 64
2022-05-13 11:18:27 GMT 44.087402 16.977964 38,975 142 448 64
2022-05-13 11:18:21 GMT 44.098480 16.966404 38,950 142 447 64
2022-05-13 11:18:17 GMT 44.105824 16.958706 38,950 142 447 64
2022-05-13 11:18:12 GMT 44.112621 16.951576 38,950 142 447 -64
2022-05-13 11:18:10 GMT 44.115143 16.948902 38,950 142 447 -64
2022-05-13 11:18:07 GMT 44.120674 16.943075 38,950 142 447 -64
2022-05-13 11:18:02 GMT 44.129101 16.934248 38,950 142 446 -64
2022-05-13 11:18:00 GMT 44.132309 16.930889 38,950 142 446 0
2022-05-13 11:17:57 GMT 44.136566 16.926418 38,950 142 446 0
2022-05-13 11:17:51 GMT 44.148605 16.913773 38,950 142 445 -64
2022-05-13 11:17:46 GMT 44.154510 16.907513 38,950 142 445 64
2022-05-13 11:17:42 GMT 44.167648 16.893715 38,950 142 445 64
2022-05-13 11:17:36 GMT 44.171185 16.889975 38,950 142 445 0
2022-05-13 11:17:32 GMT 44.179459 16.881260 38,950 142 445 0
2022-05-13 11:17:30 GMT 44.182030 16.878597 38,950 142 445 -64
2022-05-13 11:17:26 GMT 44.188522 16.871742 38,950 142 445 -64
2022-05-13 11:17:21 GMT 44.197300 16.862539 38,950 142 445 -64
2022-05-13 11:17:19 GMT 44.199188 16.860548 38,950 142 445 -64
2022-05-13 11:17:16 GMT 44.204086 16.855383 38,950 142 445 0
2022-05-13 11:17:09 GMT 44.218369 16.840342 38,950 142 445 64
2022-05-13 11:17:05 GMT 44.222206 16.836281 38,950 142 445 0
2022-05-13 11:16:59 GMT 44.233006 16.824825 38,950 142 445 -64
2022-05-13 11:16:55 GMT 44.238693 16.818892 38,950 142 445 -64
2022-05-13 11:16:46 GMT 44.255081 16.801626 38,975 142 445 -64
2022-05-13 11:16:41 GMT 44.262772 16.793453 38,975 142 445 -128
2022-05-13 11:16:39 GMT 44.265965 16.790056 39,050 142 445 -128
2022-05-13 11:16:33 GMT 44.279419 16.775923 39,000 142 445 -64
2022-05-13 11:16:31 GMT 44.279419 16.775923 39,000 142 445 -64
2022-05-13 11:16:26 GMT 44.288177 16.766642 39,000 142 445 0
2022-05-13 11:16:23 GMT 44.290833 16.763893 39,000 142 446 0
2022-05-13 11:16:19 GMT 44.298271 16.755959 39,000 142 446 0
2022-05-13 11:16:17 GMT 44.301819 16.752254 39,025 142 446 -64
2022-05-13 11:16:13 GMT 44.307861 16.745781 39,025 142 446 -64
2022-05-13 11:16:09 GMT 44.313354 16.739948 39,025 142 446 -64
2022-05-13 11:16:06 GMT 44.319920 16.732983 39,025 142 446 -64
2022-05-13 11:16:02 GMT 44.325829 16.726751 39,025 142 446 -64
2022-05-13 11:15:58 GMT 44.333176 16.719032 39,050 142 448 -128
2022-05-13 11:15:52 GMT 44.342194 16.709419 39,025 142 446 -64
2022-05-13 11:15:47 GMT 44.351200 16.699957 39,050 142 448 -64
2022-05-13 11:15:43 GMT 44.357529 16.693268 39,050 142 448 -64
2022-05-13 11:15:38 GMT 44.367634 16.682470 39,050 142 448 -64
2022-05-13 11:15:32 GMT 44.376202 16.673428 39,075 142 448 64
2022-05-13 11:15:28 GMT 44.381927 16.667372 39,050 142 448 64
2022-05-13 11:15:24 GMT 44.391048 16.657684 39,050 142 448 128
2022-05-13 11:15:19 GMT 44.396870 16.651522 39,025 142 450 64
2022-05-13 11:15:16 GMT 44.401478 16.646564 39,075 142 451 0
2022-05-13 11:15:12 GMT 44.408276 16.639397 39,025 142 451 -64
2022-05-13 11:15:09 GMT 44.413258 16.634106 39,050 142 451 -128
2022-05-13 11:15:04 GMT 44.421867 16.624928 39,050 142 450 -64
2022-05-13 11:15:00 GMT 44.428757 16.617540 39,075 142 450 -64
2022-05-13 11:14:57 GMT 44.431644 16.614477 39,050 142 450 64
2022-05-13 11:14:54 GMT 44.438255 16.607376 39,050 142 451 128
2022-05-13 11:14:49 GMT 44.446106 16.598969 39,050 142 451 64
2022-05-13 11:14:46 GMT 44.450089 16.594719 39,050 142 451 128
2022-05-13 11:14:44 GMT 44.463318 16.580526 39,025 142 452 -64
2022-05-13 11:14:39 GMT 44.463318 16.580526 39,025 142 452 0
2022-05-13 11:14:36 GMT 44.468235 16.575289 39,025 142 452 -64
2022-05-13 11:14:33 GMT 44.473679 16.569393 39,050 142 452 -64
2022-05-13 11:14:29 GMT 44.480255 16.562412 39,050 142 452 0
2022-05-13 11:14:27 GMT 44.483643 16.558807 39,050 142 452 64
2022-05-13 11:14:23 GMT 44.491196 16.550707 39,050 142 451 192
2022-05-13 11:14:19 GMT 44.498291 16.543121 39,025 142 452 192
2022-05-13 11:14:14 GMT 44.506119 16.534752 38,975 142 452 192
2022-05-13 11:14:07 GMT 44.516693 16.523373 38,975 142 452 64
2022-05-13 11:14:03 GMT 44.522324 16.517357 38,975 142 453 0
2022-05-13 11:13:59 GMT 44.535645 16.503099 39,000 142 453 0
2022-05-13 11:13:55 GMT 44.541138 16.497280 39,000 142 452 0
2022-05-13 11:13:52 GMT 44.541138 16.497280 39,000 142 452 64
2022-05-13 11:13:47 GMT 44.550568 16.487143 39,000 142 453 64
2022-05-13 11:13:44 GMT 44.556244 16.481062 38,975 142 453 64
2022-05-13 11:13:41 GMT 44.558964 16.478151 38,975 142 453 64
2022-05-13 11:13:38 GMT 44.566971 16.469645 38,975 142 453 0
2022-05-13 11:13:33 GMT 44.573582 16.462543 38,975 142 453 0
2022-05-13 11:13:28 GMT 44.580425 16.455242 38,975 142 453 -64
2022-05-13 11:13:21 GMT 44.592957 16.441826 38,975 142 451 64
2022-05-13 11:13:16 GMT 44.601425 16.432735 39,000 142 452 -64
2022-05-13 11:13:12 GMT 44.608170 16.425566 39,000 142 452 -64
2022-05-13 11:13:07 GMT 44.616852 16.416189 39,000 142 451 128
2022-05-13 11:13:04 GMT 44.621155 16.411612 38,975 142 452 64
2022-05-13 11:12:59 GMT 44.629025 16.403124 38,975 142 452 128
2022-05-13 11:12:56 GMT 44.633926 16.397879 38,975 142 452 64
2022-05-13 11:12:52 GMT 44.639877 16.391472 38,975 142 452 -64
2022-05-13 11:12:49 GMT 44.646252 16.384636 38,950 142 452 -64
2022-05-13 11:12:45 GMT 44.652008 16.378456 38,975 142 452 0
2022-05-13 11:12:43 GMT 44.656536 16.373581 38,975 142 452 0
2022-05-13 11:12:40 GMT 44.660614 16.369238 38,975 142 452 -64
2022-05-13 11:12:35 GMT 44.668453 16.360786 38,975 142 451 -64
2022-05-13 11:12:32 GMT 44.685863 16.342030 38,975 142 451 0
2022-05-13 11:12:26 GMT 44.685863 16.342030 38,975 142 451 -64
2022-05-13 11:12:21 GMT 44.693966 16.333321 38,975 142 452 -64
2022-05-13 11:12:18 GMT 44.697189 16.329803 38,975 142 451 0
2022-05-13 11:12:15 GMT 44.702454 16.324114 38,975 142 451 64
2022-05-13 11:12:11 GMT 44.708351 16.317780 38,975 142 451 64
2022-05-13 11:12:07 GMT 44.717102 16.308332 38,975 142 452 0
2022-05-13 11:12:03 GMT 44.723145 16.301813 38,975 142 452 64
2022-05-13 11:12:00 GMT 44.726738 16.298018 38,950 142 452 64
2022-05-13 11:11:56 GMT 44.733536 16.290714 38,975 142 452 0
2022-05-13 11:11:54 GMT 44.744202 16.279188 38,975 142 452 -64
2022-05-13 11:11:49 GMT 44.744202 16.279188 38,975 142 452 64
2022-05-13 11:11:45 GMT 44.751663 16.271078 38,975 142 452 -64
2022-05-13 11:11:42 GMT 44.757416 16.264923 38,975 142 452 0
2022-05-13 11:11:40 GMT 44.766769 16.254862 38,975 142 452 64
2022-05-13 11:11:36 GMT 44.766769 16.254862 38,975 142 452 0
2022-05-13 11:11:34 GMT 44.776455 16.244358 38,975 142 453 0
2022-05-13 11:11:30 GMT 44.776455 16.244358 38,975 142 452 0
2022-05-13 11:11:24 GMT 44.786316 16.233738 38,975 142 453 -64
2022-05-13 11:11:21 GMT 44.791588 16.228079 39,000 142 454 -64
2022-05-13 11:11:18 GMT 44.796707 16.222519 39,000 142 454 -64
2022-05-13 11:11:15 GMT 44.801037 16.217897 39,000 142 454 -128
2022-05-13 11:11:11 GMT 44.808289 16.210066 39,000 142 454 -64
2022-05-13 11:11:09 GMT 44.815933 16.201826 39,000 142 454 -64
2022-05-13 11:11:06 GMT 44.815933 16.201826 39,000 142 455 64
2022-05-13 11:11:01 GMT 44.824963 16.192039 39,000 142 454 0
2022-05-13 11:10:58 GMT 44.828705 16.187962 39,000 142 454 0
2022-05-13 11:10:55 GMT 44.833946 16.182325 39,000 142 454 0
2022-05-13 11:10:51 GMT 44.841843 16.173771 39,000 142 454 0
2022-05-13 11:10:49 GMT 44.843994 16.171417 39,000 142 454 0
2022-05-13 11:10:46 GMT 44.851078 16.163769 39,025 142 454 -64
2022-05-13 11:10:42 GMT 44.855988 16.158403 39,025 142 454 -64
2022-05-13 11:10:39 GMT 44.861618 16.152258 39,025 142 454 -64
2022-05-13 11:10:35 GMT 44.867558 16.145884 39,025 142 454 -64
2022-05-13 11:10:31 GMT 44.875946 16.136692 39,025 142 455 -64
2022-05-13 11:10:28 GMT 44.881523 16.130676 39,025 142 455 -64
2022-05-13 11:10:23 GMT 44.893478 16.117792 39,025 142 458 0
2022-05-13 11:10:20 GMT 44.893478 16.117792 39,000 142 456 64
2022-05-13 11:10:17 GMT 44.899017 16.111843 39,025 142 455 64
2022-05-13 11:10:14 GMT 44.903728 16.106627 39,025 142 456 64
2022-05-13 11:10:09 GMT 44.910435 16.099392 39,025 142 456 64
2022-05-13 11:10:06 GMT 44.915741 16.093563 39,025 142 456 64
2022-05-13 11:09:59 GMT 44.927170 16.081106 39,000 142 456 64
2022-05-13 11:09:56 GMT 44.932343 16.075483 39,000 142 457 64
2022-05-13 11:09:53 GMT 44.938457 16.068846 39,000 142 458 -64
2022-05-13 11:09:50 GMT 44.944565 16.062143 39,000 142 458 -64
2022-05-13 11:09:46 GMT 44.949677 16.056585 39,000 142 458 -64
2022-05-13 11:09:43 GMT 44.954407 16.051352 39,000 142 458 -64
2022-05-13 11:09:40 GMT 44.959625 16.045729 39,000 142 458 0
2022-05-13 11:09:38 GMT 44.968689 16.035919 39,000 142 458 0
2022-05-13 11:09:35 GMT 44.968689 16.035919 39,000 142 458 0
2022-05-13 11:09:32 GMT 44.973038 16.031145 39,000 142 458 64
2022-05-13 11:09:29 GMT 44.978073 16.025719 39,000 142 458 0
2022-05-13 11:09:26 GMT 44.984871 16.018333 39,000 142 458 64
2022-05-13 11:09:19 GMT 44.999542 16.002373 39,000 142 459 0
2022-05-13 11:09:13 GMT 45.005722 15.995571 39,000 142 459 0
2022-05-13 11:09:08 GMT 45.013874 15.986648 39,000 142 459 0
2022-05-13 11:09:05 GMT 45.025093 15.974389 39,000 142 459 0
2022-05-13 11:09:01 GMT 45.025093 15.974389 39,000 142 459 64
2022-05-13 11:08:58 GMT 45.030308 15.968695 39,000 142 459 64
2022-05-13 11:08:55 GMT 45.037010 15.961326 39,000 142 459 0
2022-05-13 11:08:52 GMT 45.041012 15.956905 39,000 142 459 0
2022-05-13 11:08:48 GMT 45.048553 15.948598 39,000 142 459 0
2022-05-13 11:08:45 GMT 45.059555 15.936584 39,000 142 459 0
2022-05-13 11:08:41 GMT 45.059555 15.936584 39,000 142 459 0
2022-05-13 11:08:38 GMT 45.063171 15.932587 39,000 142 460 0
2022-05-13 11:08:35 GMT 45.069305 15.925860 39,025 142 460 -64
2022-05-13 11:08:31 GMT 45.075668 15.918862 39,050 142 460 0
2022-05-13 11:08:28 GMT 45.082493 15.911419 39,025 142 460 -128
2022-05-13 11:08:25 GMT 45.087616 15.905784 39,025 142 460 -128
2022-05-13 11:08:20 GMT 45.093979 15.898786 39,050 142 460 0
2022-05-13 11:08:17 GMT 45.098969 15.893398 39,025 142 460 -64
2022-05-13 11:08:14 GMT 45.104416 15.887408 39,025 142 460 0
2022-05-13 11:08:11 GMT 45.112423 15.878728 39,050 142 460 0
2022-05-13 11:08:08 GMT 45.117313 15.873368 39,025 142 460 0
2022-05-13 11:08:03 GMT 45.122337 15.867875 39,025 142 460 0
2022-05-13 11:08:00 GMT 45.127365 15.862315 39,025 142 460 0
2022-05-13 11:07:57 GMT 45.133606 15.855549 39,025 142 460 -64
2022-05-13 11:07:54 GMT 45.137981 15.850726 39,025 142 460 -64
2022-05-13 11:07:50 GMT 45.143520 15.844697 39,025 142 460 -64
2022-05-13 11:07:47 GMT 45.150192 15.837381 39,050 142 463 64
2022-05-13 11:07:43 GMT 45.157486 15.829356 39,050 142 463 64
2022-05-13 11:07:39 GMT 45.163284 15.822994 39,050 142 461 -64
2022-05-13 11:07:36 GMT 45.168365 15.817501 39,050 142 461 -64
2022-05-13 11:07:33 GMT 45.174271 15.811026 39,050 142 461 0
2022-05-13 11:07:30 GMT 45.177689 15.807249 39,050 142 461 64
2022-05-13 11:07:26 GMT 45.185211 15.798994 39,050 142 461 128
2022-05-13 11:07:23 GMT 45.190247 15.793435 39,025 142 461 128
2022-05-13 11:07:20 GMT 45.194542 15.788760 39,025 142 461 64
2022-05-13 11:07:17 GMT 45.200546 15.782187 39,025 142 461 64
2022-05-13 11:07:13 GMT 45.206955 15.775125 39,025 142 462 64
2022-05-13 11:07:09 GMT 45.214554 15.766754 39,000 142 462 64
2022-05-13 11:07:06 GMT 45.218948 15.761915 39,000 142 462 64
2022-05-13 11:07:04 GMT 45.228195 15.751713 39,000 142 463 64
2022-05-13 11:07:01 GMT 45.228195 15.751713 39,000 141 462 0
2022-05-13 11:06:58 GMT 45.231903 15.747593 39,000 142 463 64
2022-05-13 11:06:55 GMT 45.237698 15.741198 39,000 142 463 64
2022-05-13 11:06:52 GMT 45.249756 15.727844 38,975 141 462 0
2022-05-13 11:06:48 GMT 45.249756 15.727844 39,000 141 463 0
2022-05-13 11:06:45 GMT 45.253647 15.723528 38,975 141 463 0
2022-05-13 11:06:43 GMT 45.258457 15.718220 39,000 141 463 0
2022-05-13 11:06:40 GMT 45.262974 15.713129 39,000 141 462 0
2022-05-13 11:06:36 GMT 45.269623 15.705741 39,000 141 462 0
2022-05-13 11:06:33 GMT 45.274658 15.700182 39,000 141 462 0
2022-05-13 11:06:28 GMT 45.283585 15.690242 38,975 141 462 64
2022-05-13 11:06:25 GMT 45.288300 15.685011 39,000 141 462 64
2022-05-13 11:06:23 GMT 45.291000 15.682002 39,000 141 462 64
2022-05-13 11:06:20 GMT 45.296772 15.675548 38,975 141 462 64
2022-05-13 11:06:16 GMT 45.302078 15.669643 38,975 142 463 -64
2022-05-13 11:06:13 GMT 45.311005 15.659703 38,975 141 462 0
2022-05-13 11:06:11 GMT 45.311005 15.659703 38,975 142 463 0
2022-05-13 11:06:07 GMT 45.322128 15.647409 38,975 142 463 0
2022-05-13 11:06:05 GMT 45.322128 15.647409 38,975 142 463 -64
2022-05-13 11:06:02 GMT 45.326237 15.642857 38,975 142 462 0
2022-05-13 11:05:59 GMT 45.331055 15.637534 38,975 142 462 0
2022-05-13 11:05:56 GMT 45.337688 15.630195 38,975 142 462 0
2022-05-13 11:05:53 GMT 45.341087 15.626444 38,975 142 462 0
2022-05-13 11:05:50 GMT 45.348862 15.617869 38,975 142 462 0
2022-05-13 11:05:47 GMT 45.352402 15.613984 38,975 142 463 0
2022-05-13 11:05:43 GMT 45.358704 15.606995 38,975 142 463 0
2022-05-13 11:05:39 GMT 45.365528 15.599447 38,975 142 463 0
2022-05-13 11:05:35 GMT 45.371841 15.592412 38,975 141 462 0
2022-05-13 11:05:32 GMT 45.378067 15.585545 38,975 141 462 0
2022-05-13 11:05:28 GMT 45.384567 15.578345 38,975 141 462 0
2022-05-13 11:05:23 GMT 45.397247 15.564161 38,975 141 462 0
2022-05-13 11:05:20 GMT 45.397247 15.564161 38,975 141 462 0
2022-05-13 11:05:17 GMT 45.401375 15.559588 38,975 141 462 0
2022-05-13 11:05:13 GMT 45.409100 15.550946 38,975 141 462 0
2022-05-13 11:05:09 GMT 45.415741 15.543562 38,975 142 463 -64
2022-05-13 11:05:06 GMT 45.420593 15.538068 38,975 142 463 -64
2022-05-13 11:05:03 GMT 45.426418 15.531586 38,975 141 462 -64
2022-05-13 11:04:57 GMT 45.434982 15.522074 39,000 141 462 0
2022-05-13 11:04:53 GMT 45.443550 15.512494 38,975 141 462 0
2022-05-13 11:04:48 GMT 45.450211 15.505110 39,000 141 462 -64
2022-05-13 11:04:44 GMT 45.459824 15.494450 39,000 142 463 -64
2022-05-13 11:04:41 GMT 45.462265 15.491728 39,000 142 463 -64
2022-05-13 11:04:38 GMT 45.469013 15.484292 39,000 142 463 -64
2022-05-13 11:04:34 GMT 45.475342 15.477251 39,000 142 463 -64
2022-05-13 11:04:31 GMT 45.479691 15.472412 39,000 142 463 -64
2022-05-13 11:04:27 GMT 45.486649 15.464761 39,000 142 463 -64
2022-05-13 11:04:22 GMT 45.498016 15.452070 39,025 141 463 -64
2022-05-13 11:04:18 GMT 45.502205 15.447380 39,025 141 463 -64
2022-05-13 11:04:15 GMT 45.506195 15.442984 39,025 141 463 0
2022-05-13 11:04:12 GMT 45.513702 15.434585 39,025 141 463 0
2022-05-13 11:04:08 GMT 45.519943 15.427685 39,025 141 462 0
2022-05-13 11:04:05 GMT 45.523224 15.424020 39,000 141 464 64
2022-05-13 11:04:00 GMT 45.531254 15.415091 39,025 141 463 0
2022-05-13 11:03:58 GMT 45.534931 15.410938 39,025 141 463 64
2022-05-13 11:03:55 GMT 45.540005 15.405311 39,000 141 466 0
2022-05-13 11:03:51 GMT 45.546524 15.398009 39,025 141 465 64
2022-05-13 11:03:46 GMT 45.558067 15.385117 39,000 141 466 0
2022-05-13 11:03:43 GMT 45.560715 15.382199 39,000 141 465 64
2022-05-13 11:03:40 GMT 45.566868 15.375298 39,000 141 465 64
2022-05-13 11:03:36 GMT 45.573151 15.368294 39,000 141 465 64
2022-05-13 11:03:33 GMT 45.577713 15.363213 39,000 141 465 64
2022-05-13 11:03:30 GMT 45.582687 15.357614 39,000 141 466 0
2022-05-13 11:03:28 GMT 45.588188 15.351471 39,000 141 466 0
2022-05-13 11:03:25 GMT 45.597748 15.340732 38,975 141 466 0
2022-05-13 11:03:22 GMT 45.597748 15.340732 39,000 141 466 0
2022-05-13 11:03:19 GMT 45.601875 15.336090 39,000 141 466 0
2022-05-13 11:03:17 GMT 45.604156 15.333498 39,000 141 466 0
2022-05-13 11:03:14 GMT 45.611069 15.325727 39,000 141 466 0
2022-05-13 11:03:11 GMT 45.618587 15.317276 38,975 141 466 64
2022-05-13 11:03:05 GMT 45.625626 15.309381 38,975 141 466 -64
2022-05-13 11:03:02 GMT 45.629013 15.305563 38,950 141 466 64
2022-05-13 11:02:59 GMT 45.634048 15.299802 38,975 141 466 64
2022-05-13 11:02:57 GMT 45.638947 15.294309 38,975 141 466 64
2022-05-13 11:02:53 GMT 45.646225 15.286069 38,950 141 467 0
2022-05-13 11:02:49 GMT 45.651627 15.279973 38,950 141 467 0
2022-05-13 11:02:47 GMT 45.655197 15.275953 38,950 141 467 0
2022-05-13 11:02:45 GMT 45.658905 15.271733 38,975 141 466 -64
2022-05-13 11:02:42 GMT 45.663986 15.265972 38,975 141 466 -64
2022-05-13 11:02:39 GMT 45.673054 15.255753 38,975 141 466 0
2022-05-13 11:02:37 GMT 45.680824 15.246964 38,950 141 467 64
2022-05-13 11:02:32 GMT 45.680824 15.246964 38,975 141 467 64
2022-05-13 11:02:29 GMT 45.691406 15.235023 38,975 141 467 64
2022-05-13 11:02:26 GMT 45.696671 15.229127 38,950 141 467 0
2022-05-13 11:02:23 GMT 45.696671 15.229127 38,950 141 467 0
2022-05-13 11:02:20 GMT 45.701820 15.223274 38,950 141 467 0
2022-05-13 11:02:17 GMT 45.707779 15.216614 38,950 141 467 0
2022-05-13 11:02:14 GMT 45.711506 15.212357 38,975 141 467 0
2022-05-13 11:02:10 GMT 45.718441 15.204529 38,975 141 468 -64
2022-05-13 11:02:07 GMT 45.724091 15.198111 38,950 141 468 -64
2022-05-13 11:02:05 GMT 45.727341 15.194494 38,975 141 468 -64
2022-05-13 11:02:02 GMT 45.738693 15.181632 38,975 141 468 -64
2022-05-13 11:01:59 GMT 45.741810 15.178093 38,975 141 467 -64
2022-05-13 11:01:56 GMT 45.741810 15.178093 38,975 141 467 -64
2022-05-13 11:01:51 GMT 45.755447 15.162674 38,975 141 467 0
2022-05-13 11:01:48 GMT 45.755447 15.162674 38,975 141 467 -64
2022-05-13 11:01:45 GMT 45.760391 15.157113 38,975 141 467 -64
2022-05-13 11:01:42 GMT 45.769409 15.146998 38,975 141 468 0
2022-05-13 11:01:39 GMT 45.769409 15.146998 38,975 141 468 0
2022-05-13 11:01:36 GMT 45.776184 15.139361 38,975 141 468 0
2022-05-13 11:01:34 GMT 45.780762 15.134203 38,975 141 468 0
2022-05-13 11:01:31 GMT 45.784267 15.130302 38,975 141 468 0
2022-05-13 11:01:28 GMT 45.789711 15.124191 38,975 141 468 -64
2022-05-13 11:01:25 GMT 45.795044 15.118125 38,975 141 468 0
2022-05-13 11:01:22 GMT 45.801041 15.111426 39,000 141 468 -64
2022-05-13 11:01:19 GMT 45.805725 15.106201 39,000 141 469 -64
2022-05-13 11:01:16 GMT 45.810986 15.100227 39,000 141 469 -64
2022-05-13 11:01:13 GMT 45.815224 15.095490 39,000 141 469 -64
2022-05-13 11:01:10 GMT 45.819397 15.090794 39,000 141 469 0
2022-05-13 11:01:07 GMT 45.825462 15.083954 39,000 141 469 0
2022-05-13 11:01:04 GMT 45.829605 15.079204 39,000 141 469 0
2022-05-13 11:01:00 GMT 45.837196 15.070633 39,025 141 470 0
2022-05-13 11:00:57 GMT 45.845856 15.060814 39,000 141 469 0
2022-05-13 11:00:55 GMT 45.845856 15.060814 39,000 141 470 0
2022-05-13 11:00:50 GMT 45.853409 15.052207 39,000 141 471 -64
2022-05-13 11:00:47 GMT 45.860001 15.044638 39,000 141 471 -128
2022-05-13 11:00:43 GMT 45.866821 15.036867 39,000 141 471 -64
2022-05-13 11:00:40 GMT 45.872993 15.029778 39,025 141 471 -64
2022-05-13 11:00:37 GMT 45.875740 15.026688 39,025 141 471 -64
2022-05-13 11:00:34 GMT 45.880371 15.021325 39,025 141 471 0
2022-05-13 11:00:32 GMT 45.884819 15.016251 39,025 141 471 0
2022-05-13 11:00:29 GMT 45.888451 15.012062 39,025 141 471 0
2022-05-13 11:00:26 GMT 45.894592 15.005058 39,025 141 471 0
2022-05-13 11:00:23 GMT 45.898727 15.000290 39,025 141 471 0
2022-05-13 11:00:19 GMT 45.908512 14.989059 39,025 141 471 0
2022-05-13 11:00:16 GMT 45.912003 14.985084 39,025 141 471 0
2022-05-13 11:00:13 GMT 45.916443 14.980059 39,025 141 471 0
2022-05-13 11:00:11 GMT 45.919830 14.976107 39,025 141 471 0
2022-05-13 11:00:08 GMT 45.930405 14.964049 39,025 141 471 0
2022-05-13 11:00:03 GMT 45.933884 14.960083 39,025 141 472 0
2022-05-13 11:00:01 GMT 45.936539 14.957082 39,025 141 472 0
2022-05-13 10:59:58 GMT 45.944595 14.947904 39,025 141 472 0
2022-05-13 10:59:53 GMT 45.950970 14.940651 39,025 141 472 0
2022-05-13 10:59:50 GMT 45.962608 14.927330 39,025 141 473 -64
2022-05-13 10:59:46 GMT 45.962608 14.927330 39,025 141 473 0
2022-05-13 10:59:43 GMT 45.967621 14.921577 39,025 141 473 0
2022-05-13 10:59:40 GMT 45.972336 14.916206 39,025 141 473 -64
2022-05-13 10:59:37 GMT 45.978058 14.909653 39,025 141 473 -64
2022-05-13 10:59:34 GMT 45.985325 14.901375 39,025 141 473 -64
2022-05-13 10:59:31 GMT 45.988724 14.897461 39,025 141 473 0
2022-05-13 10:59:28 GMT 45.993889 14.891624 39,025 141 473 0
2022-05-13 10:59:24 GMT 45.999336 14.885376 39,025 141 473 64
2022-05-13 10:59:22 GMT 46.010975 14.872055 39,025 141 473 64
2022-05-13 10:59:18 GMT 46.010975 14.872055 39,025 141 473 64
2022-05-13 10:59:15 GMT 46.017883 14.864100 39,025 141 473 0
2022-05-13 10:59:12 GMT 46.020702 14.860863 39,025 141 473 0
2022-05-13 10:59:09 GMT 46.025253 14.855659 39,025 141 473 0
2022-05-13 10:59:06 GMT 46.030666 14.849464 39,025 141 474 -64
2022-05-13 10:59:03 GMT 46.038162 14.840881 39,025 141 474 -64
2022-05-13 10:58:59 GMT 46.044250 14.833888 39,025 141 474 -64
2022-05-13 10:58:56 GMT 46.048450 14.829071 39,025 141 474 -64
2022-05-13 10:58:53 GMT 46.053497 14.823303 39,025 141 473 64
2022-05-13 10:58:49 GMT 46.065765 14.809296 39,025 141 473 64
2022-05-13 10:58:46 GMT 46.065765 14.809296 39,025 141 473 64
2022-05-13 10:58:43 GMT 46.070889 14.803391 39,025 141 473 64
2022-05-13 10:58:40 GMT 46.076569 14.796936 39,025 141 473 0
2022-05-13 10:58:38 GMT 46.079128 14.793983 39,025 141 474 0
2022-05-13 10:58:35 GMT 46.088654 14.783109 39,025 141 474 64
2022-05-13 10:58:29 GMT 46.093964 14.777013 39,025 141 474 0
2022-05-13 10:58:26 GMT 46.101151 14.768774 39,025 141 474 0
2022-05-13 10:58:23 GMT 46.105011 14.764389 39,025 141 474 -64
2022-05-13 10:58:20 GMT 46.110317 14.758278 39,025 141 474 -64
2022-05-13 10:58:18 GMT 46.113968 14.754036 39,025 139 464 0
2022-05-13 10:58:14 GMT 46.120049 14.747017 39,025 141 474 0
2022-05-13 10:58:11 GMT 46.130539 14.734877 39,025 141 474 0
2022-05-13 10:58:08 GMT 46.130539 14.734877 39,025 141 474 0
2022-05-13 10:58:05 GMT 46.136856 14.727575 39,025 141 474 0
2022-05-13 10:58:02 GMT 46.140205 14.723740 39,025 141 473 0
2022-05-13 10:57:59 GMT 46.146240 14.716722 39,025 141 473 0
2022-05-13 10:57:55 GMT 46.159058 14.701918 39,025 141 473 0
2022-05-13 10:57:52 GMT 46.159058 14.701918 39,025 141 473 0
2022-05-13 10:57:48 GMT 46.164085 14.696136 39,025 141 473 0
2022-05-13 10:57:46 GMT 46.168507 14.690987 39,025 141 473 64
2022-05-13 10:57:43 GMT 46.174759 14.683763 39,025 141 473 0
2022-05-13 10:57:40 GMT 46.180527 14.677064 39,025 141 473 64
2022-05-13 10:57:37 GMT 46.182983 14.674232 39,025 141 473 64
2022-05-13 10:57:35 GMT 46.188034 14.668423 39,025 141 473 64
2022-05-13 10:57:31 GMT 46.194992 14.660317 39,025 141 473 64
2022-05-13 10:57:28 GMT 46.198242 14.656566 39,000 141 473 64
2022-05-13 10:57:26 GMT 46.203094 14.650955 39,000 141 473 0
2022-05-13 10:57:22 GMT 46.209938 14.643059 39,000 141 473 64
2022-05-13 10:57:17 GMT 46.217758 14.633995 39,000 141 473 -64
2022-05-13 10:57:14 GMT 46.223904 14.626923 39,000 141 472 0
2022-05-13 10:57:10 GMT 46.228409 14.621664 39,000 141 472 64
2022-05-13 10:57:07 GMT 46.235683 14.613327 39,025 141 472 0
2022-05-13 10:57:04 GMT 46.240906 14.607328 39,000 141 471 64
2022-05-13 10:57:00 GMT 46.245598 14.601997 39,000 141 471 64
2022-05-13 10:56:57 GMT 46.252396 14.594170 39,000 141 471 0
2022-05-13 10:56:54 GMT 46.256561 14.589375 39,000 141 471 0
2022-05-13 10:56:51 GMT 46.263474 14.581467 39,000 141 471 -64
2022-05-13 10:56:47 GMT 46.268692 14.575508 39,000 141 471 -64
2022-05-13 10:56:44 GMT 46.274414 14.569038 39,000 141 471 -64
2022-05-13 10:56:40 GMT 46.285629 14.556282 39,000 141 470 -64
2022-05-13 10:56:37 GMT 46.290070 14.551258 39,000 141 470 0
2022-05-13 10:56:35 GMT 46.290070 14.551258 39,000 141 470 0
2022-05-13 10:56:32 GMT 46.294945 14.545692 39,000 141 470 0
2022-05-13 10:56:30 GMT 46.299133 14.541008 39,000 142 470 64
2022-05-13 10:56:25 GMT 46.305130 14.534242 39,000 142 469 64
2022-05-13 10:56:22 GMT 46.309616 14.529218 39,000 142 469 64
2022-05-13 10:56:20 GMT 46.314121 14.524200 39,000 142 468 0
2022-05-13 10:56:17 GMT 46.321106 14.516423 39,000 142 469 64
2022-05-13 10:56:15 GMT 46.322548 14.514793 39,000 142 467 -64
2022-05-13 10:56:12 GMT 46.329578 14.507034 39,000 142 467 0
2022-05-13 10:56:09 GMT 46.339279 14.496259 39,000 142 467 -64
2022-05-13 10:56:05 GMT 46.339279 14.496259 39,000 142 467 -64
2022-05-13 10:56:03 GMT 46.344086 14.490900 39,000 142 466 -64
2022-05-13 10:55:59 GMT 46.352669 14.481285 39,025 140 464 64
2022-05-13 10:55:55 GMT 46.357864 14.475492 39,025 141 464 64
2022-05-13 10:55:52 GMT 46.362946 14.469731 39,025 141 465 64
2022-05-13 10:55:49 GMT 46.369858 14.461893 39,000 140 464 64
2022-05-13 10:55:46 GMT 46.373291 14.457939 39,000 141 464 64
2022-05-13 10:55:43 GMT 46.378971 14.451279 39,000 140 464 64
2022-05-13 10:55:39 GMT 46.384602 14.444550 39,000 139 465 0
2022-05-13 10:55:36 GMT 46.389908 14.438045 39,000 139 465 -64
2022-05-13 10:55:32 GMT 46.396984 14.429237 39,000 138 466 -128
2022-05-13 10:55:30 GMT 46.400059 14.425323 39,000 138 466 -128
2022-05-13 10:55:27 GMT 46.403961 14.420159 39,000 137 467 -128
2022-05-13 10:55:24 GMT 46.408344 14.414406 39,025 137 466 0
2022-05-13 10:55:21 GMT 46.419617 14.399191 39,025 136 472 640
2022-05-13 10:55:17 GMT 46.419617 14.399191 38,975 136 466 192
2022-05-13 10:55:13 GMT 46.425156 14.391755 39,000 136 466 192
2022-05-13 10:55:10 GMT 46.432320 14.382065 38,975 136 468 256
2022-05-13 10:55:07 GMT 46.435623 14.377602 38,950 136 469 384
2022-05-13 10:55:04 GMT 46.440628 14.370854 38,950 136 469 512
2022-05-13 10:55:01 GMT 46.449051 14.359466 38,850 136 471 896
2022-05-13 10:54:58 GMT 46.449051 14.359466 38,850 136 471 896
2022-05-13 10:54:53 GMT 46.458115 14.347207 38,700 136 471 448
2022-05-13 10:54:49 GMT 46.465439 14.337292 38,775 136 472 320
2022-05-13 10:54:46 GMT 46.470772 14.330017 38,750 136 472 512
2022-05-13 10:54:43 GMT 46.473221 14.326708 38,725 136 472 384
2022-05-13 10:54:39 GMT 46.479664 14.317932 38,700 136 472 1216
2022-05-13 10:54:36 GMT 46.485947 14.309357 38,675 136 471 384
2022-05-13 10:54:33 GMT 46.494827 14.297232 38,675 136 471 384
2022-05-13 10:54:31 GMT 46.500473 14.289574 38,575 136 471 512
2022-05-13 10:54:27 GMT 46.500473 14.289574 38,625 136 471 640
2022-05-13 10:54:23 GMT 46.505688 14.282433 38,575 136 472 1152
2022-05-13 10:54:20 GMT 46.510345 14.276064 38,450 136 473 0
2022-05-13 10:54:17 GMT 46.514393 14.270554 38,450 136 473 1216
2022-05-13 10:54:14 GMT 46.520187 14.262599 38,175 136 475 1024
2022-05-13 10:54:11 GMT 46.524353 14.256971 38,275 136 476 896
2022-05-13 10:54:07 GMT 46.531288 14.247482 38,225 136 475 1024
2022-05-13 10:54:04 GMT 46.536224 14.240753 38,200 137 476 832
2022-05-13 10:54:01 GMT 46.539623 14.236221 38,200 137 476 832
2022-05-13 10:53:58 GMT 46.546280 14.227364 38,125 138 475 768
2022-05-13 10:53:55 GMT 46.555527 14.215438 38,000 139 475 768
2022-05-13 10:53:52 GMT 46.555527 14.215438 38,050 139 475 768
2022-05-13 10:53:47 GMT 46.565830 14.202782 37,975 140 475 768
2022-05-13 10:53:43 GMT 46.570255 14.197495 37,825 140 474 704
2022-05-13 10:53:40 GMT 46.575516 14.191315 37,900 140 474 640
2022-05-13 10:53:37 GMT 46.580772 14.185066 37,900 140 474 640
2022-05-13 10:53:34 GMT 46.584686 14.180466 37,850 140 474 640
2022-05-13 10:53:31 GMT 46.589722 14.174574 37,825 140 474 576
2022-05-13 10:53:27 GMT 46.598602 14.164055 37,750 140 473 448
2022-05-13 10:53:23 GMT 46.606018 14.155348 37,750 140 472 448
2022-05-13 10:53:18 GMT 46.613434 14.146505 37,700 140 472 448
2022-05-13 10:53:14 GMT 46.620483 14.138168 37,650 140 472 448
2022-05-13 10:53:11 GMT 46.624535 14.133362 37,650 140 471 384
2022-05-13 10:53:08 GMT 46.629047 14.128006 37,625 140 471 320
2022-05-13 10:53:05 GMT 46.635147 14.120796 37,600 140 469 704
2022-05-13 10:53:02 GMT 46.641953 14.112742 37,600 140 469 512
2022-05-13 10:52:58 GMT 46.646412 14.107407 37,575 140 469 704
2022-05-13 10:52:54 GMT 46.652710 14.099947 37,525 140 469 832
2022-05-13 10:52:51 GMT 46.658657 14.092918 37,475 140 469 768
2022-05-13 10:52:48 GMT 46.663788 14.086817 37,450 140 469 832
2022-05-13 10:52:45 GMT 46.668430 14.081314 37,375 140 469 896
2022-05-13 10:52:41 GMT 46.676056 14.072281 37,300 140 470 1088
2022-05-13 10:52:37 GMT 46.682026 14.065178 37,225 140 470 1088
2022-05-13 10:52:34 GMT 46.686951 14.059284 37,225 140 470 896
2022-05-13 10:52:31 GMT 46.692081 14.053162 37,150 140 470 1024
2022-05-13 10:52:28 GMT 46.703857 14.039154 37,075 140 470 768
2022-05-13 10:52:24 GMT 46.703857 14.039154 37,050 140 471 -64
2022-05-13 10:52:21 GMT 46.715561 14.025254 37,025 140 471 192
2022-05-13 10:52:17 GMT 46.715561 14.025254 37,025 140 471 64
2022-05-13 10:52:13 GMT 46.722248 14.017319 37,025 140 471 64
2022-05-13 10:52:10 GMT 46.726181 14.012593 37,025 140 471 0
2022-05-13 10:52:07 GMT 46.731583 14.006162 37,025 140 472 -64
2022-05-13 10:52:04 GMT 46.737747 13.998779 37,025 140 471 0
2022-05-13 10:52:01 GMT 46.742386 13.993233 37,025 140 472 -64
2022-05-13 10:51:58 GMT 46.749573 13.984703 37,025 140 471 -64
2022-05-13 10:51:55 GMT 46.752926 13.980652 37,050 140 471 -64
2022-05-13 10:51:52 GMT 46.757999 13.974678 37,050 140 471 0
2022-05-13 10:51:48 GMT 46.766327 13.964695 37,000 140 471 64
2022-05-13 10:51:45 GMT 46.770355 13.959872 37,050 140 471 64
2022-05-13 10:51:41 GMT 46.784180 13.943392 37,025 140 471 64
2022-05-13 10:51:36 GMT 46.784180 13.943392 37,025 140 471 64
2022-05-13 10:51:33 GMT 46.790165 13.936226 37,025 140 471 64
2022-05-13 10:51:30 GMT 46.796219 13.928947 37,025 140 471 0
2022-05-13 10:51:27 GMT 46.801945 13.922150 37,025 140 471 0
2022-05-13 10:51:24 GMT 46.804459 13.919128 37,025 140 471 0
2022-05-13 10:51:21 GMT 46.811279 13.910969 37,025 140 471 0
2022-05-13 10:51:18 GMT 46.813862 13.907867 37,025 140 471 0
2022-05-13 10:51:16 GMT 46.818146 13.902729 37,025 140 471 0
2022-05-13 10:51:13 GMT 46.825314 13.894203 37,025 140 471 0
2022-05-13 10:51:10 GMT 46.835556 13.881912 37,025 140 471 0
2022-05-13 10:51:05 GMT 46.835556 13.881912 37,025 140 471 0
2022-05-13 10:51:02 GMT 46.841171 13.875197 37,000 140 470 64
2022-05-13 10:50:58 GMT 46.848495 13.866394 37,000 140 470 64
2022-05-13 10:50:55 GMT 46.853710 13.860146 37,000 140 470 64
2022-05-13 10:50:50 GMT 46.864014 13.847731 37,000 140 470 0
2022-05-13 10:50:47 GMT 46.866653 13.844490 37,000 140 470 -64
2022-05-13 10:50:42 GMT 46.875549 13.833778 37,000 140 470 -64
2022-05-13 10:50:39 GMT 46.887089 13.819815 37,000 140 470 128
2022-05-13 10:50:36 GMT 46.887089 13.819815 37,000 140 470 64
2022-05-13 10:50:33 GMT 46.890347 13.815871 36,975 140 470 128
2022-05-13 10:50:30 GMT 46.894348 13.811082 36,975 140 470 128
2022-05-13 10:50:27 GMT 46.900028 13.804180 36,975 140 470 128
2022-05-13 10:50:23 GMT 46.906174 13.796768 36,975 140 470 128
2022-05-13 10:50:21 GMT 46.910156 13.791962 36,975 140 470 128
2022-05-13 10:50:17 GMT 46.918606 13.781715 36,975 140 469 -64
2022-05-13 10:50:14 GMT 46.926144 13.772700 36,975 140 469 -64
2022-05-13 10:50:11 GMT 46.931946 13.765732 36,975 140 469 -64
2022-05-13 10:50:08 GMT 46.938576 13.757770 36,975 140 469 -64
2022-05-13 10:50:05 GMT 46.938576 13.757770 37,000 140 468 0
2022-05-13 10:50:02 GMT 46.942764 13.752770 36,975 140 469 -64
2022-05-13 10:49:59 GMT 46.947933 13.746573 36,975 140 468 0
2022-05-13 10:49:56 GMT 46.955662 13.737277 37,000 140 467 64
2022-05-13 10:49:52 GMT 46.959335 13.732910 37,000 140 467 64
2022-05-13 10:49:46 GMT 46.972511 13.716994 36,975 140 467 64
2022-05-13 10:49:43 GMT 46.974979 13.713966 36,975 140 467 64
2022-05-13 10:49:40 GMT 46.987061 13.699333 36,975 140 467 64
2022-05-13 10:49:35 GMT 46.987061 13.699333 36,975 140 467 0
2022-05-13 10:49:32 GMT 46.992294 13.692979 36,975 140 467 0
2022-05-13 10:49:27 GMT 47.000771 13.682697 36,975 140 468 0
2022-05-13 10:49:20 GMT 47.018414 13.661358 36,975 140 468 -64
2022-05-13 10:49:17 GMT 47.018414 13.661358 36,975 140 468 -64
2022-05-13 10:49:14 GMT 47.024185 13.654427 37,000 140 467 0
2022-05-13 10:49:11 GMT 47.027847 13.649963 37,000 140 468 -64
2022-05-13 10:49:08 GMT 47.031120 13.646076 37,000 140 467 -64
2022-05-13 10:49:05 GMT 47.037369 13.638496 37,000 140 467 -64
2022-05-13 10:49:01 GMT 47.044109 13.630301 37,000 140 467 0
2022-05-13 10:48:57 GMT 47.050903 13.622061 37,000 140 467 64
2022-05-13 10:48:54 GMT 47.057327 13.614326 37,000 140 467 0
2022-05-13 10:48:50 GMT 47.062870 13.607553 37,000 140 467 0
2022-05-13 10:48:46 GMT 47.068035 13.601285 37,000 140 467 64
2022-05-13 10:48:44 GMT 47.071289 13.597366 36,975 140 467 64
2022-05-13 10:48:41 GMT 47.079117 13.587891 36,975 140 467 64
2022-05-13 10:48:37 GMT 47.084515 13.581355 36,975 140 468 64
2022-05-13 10:48:33 GMT 47.094772 13.568939 36,975 140 467 0
2022-05-13 10:48:30 GMT 47.101181 13.561214 36,975 140 467 64
2022-05-13 10:48:27 GMT 47.101181 13.561214 36,975 140 467 64
2022-05-13 10:48:20 GMT 47.116791 13.542503 36,975 140 467 64
2022-05-13 10:48:15 GMT 47.120220 13.538396 36,975 140 467 0
2022-05-13 10:48:13 GMT 47.123573 13.534382 36,975 140 467 64
2022-05-13 10:48:10 GMT 47.129299 13.527621 36,950 141 467 0
2022-05-13 10:48:06 GMT 47.135376 13.520325 36,950 141 467 0
2022-05-13 10:48:03 GMT 47.141075 13.513536 36,950 141 466 0
2022-05-13 10:47:59 GMT 47.147873 13.505507 36,950 141 467 0
2022-05-13 10:47:56 GMT 47.152679 13.499794 36,950 141 467 0
2022-05-13 10:47:53 GMT 47.158627 13.492760 36,950 141 467 0
2022-05-13 10:47:49 GMT 47.164810 13.485512 36,950 141 467 0
2022-05-13 10:47:44 GMT 47.172127 13.476844 36,975 141 468 -64
2022-05-13 10:47:41 GMT 47.176502 13.471703 36,975 141 468 -64
2022-05-13 10:47:37 GMT 47.186188 13.460312 36,975 141 468 -64
2022-05-13 10:47:34 GMT 47.188522 13.457565 36,975 141 467 -64
2022-05-13 10:47:30 GMT 47.195938 13.448776 36,975 141 467 0
2022-05-13 10:47:27 GMT 47.200710 13.443111 36,975 141 467 0
2022-05-13 10:47:24 GMT 47.205273 13.437758 36,975 140 467 0
2022-05-13 10:47:21 GMT 47.211140 13.430716 36,975 139 468 -64
2022-05-13 10:47:18 GMT 47.217796 13.422687 37,000 136 471 0
2022-05-13 10:47:13 GMT 47.224869 13.414032 36,975 140 468 -64
2022-05-13 10:47:11 GMT 47.227432 13.410856 36,975 139 468 -64
2022-05-13 10:47:09 GMT 47.232040 13.405081 36,975 138 470 -64
2022-05-13 10:47:06 GMT 47.236038 13.399956 37,000 137 470 -64
2022-05-13 10:47:04 GMT 47.239288 13.395767 37,000 138 470 -64
2022-05-13 10:47:01 GMT 47.244514 13.388813 37,000 136 471 0
2022-05-13 10:46:58 GMT 47.248379 13.383672 37,000 136 471 64
2022-05-13 10:46:54 GMT 47.255264 13.374207 37,000 136 471 0
2022-05-13 10:46:51 GMT 47.259384 13.368507 37,000 136 471 0
2022-05-13 10:46:49 GMT 47.267899 13.356628 37,000 136 471 64
2022-05-13 10:46:46 GMT 47.273117 13.349350 37,000 136 471 0
2022-05-13 10:46:43 GMT 47.273117 13.349350 37,000 136 471 -64
2022-05-13 10:46:39 GMT 47.278778 13.341557 37,000 136 471 -64
2022-05-13 10:46:36 GMT 47.284378 13.333763 37,000 136 471 -64
2022-05-13 10:46:33 GMT 47.288498 13.328064 37,000 136 471 -64
2022-05-13 10:46:29 GMT 47.295135 13.318794 37,000 136 472 0
2022-05-13 10:46:26 GMT 47.300995 13.310692 37,000 136 472 -64
2022-05-13 10:46:23 GMT 47.311085 13.296626 37,000 136 472 -64
2022-05-13 10:46:19 GMT 47.311085 13.296626 37,000 136 472 0
2022-05-13 10:46:16 GMT 47.315834 13.290006 37,000 136 472 0
2022-05-13 10:46:14 GMT 47.324215 13.278316 37,000 136 473 64
2022-05-13 10:46:11 GMT 47.324215 13.278316 37,000 136 473 0
2022-05-13 10:46:07 GMT 47.333817 13.264893 37,000 136 473 0
2022-05-13 10:46:05 GMT 47.333817 13.264893 37,000 136 473 64
2022-05-13 10:46:01 GMT 47.339539 13.256996 37,000 136 473 64
2022-05-13 10:45:58 GMT 47.349770 13.242680 37,000 136 473 0
2022-05-13 10:45:55 GMT 47.349770 13.242680 37,000 136 473 0
2022-05-13 10:45:52 GMT 47.353821 13.237015 37,000 136 473 0
2022-05-13 10:45:49 GMT 47.357620 13.231728 37,000 136 474 0
2022-05-13 10:45:46 GMT 47.363132 13.224018 37,000 136 474 0
2022-05-13 10:45:42 GMT 47.369705 13.214836 37,000 136 474 0
2022-05-13 10:45:39 GMT 47.375702 13.206482 37,000 136 475 0
2022-05-13 10:45:36 GMT 47.382477 13.197052 37,000 136 475 0
2022-05-13 10:45:31 GMT 47.386688 13.191129 37,000 136 475 0
2022-05-13 10:45:28 GMT 47.391541 13.184349 37,000 136 475 0
2022-05-13 10:45:26 GMT 47.395439 13.178946 37,000 136 475 0
2022-05-13 10:45:21 GMT 47.403400 13.167748 37,000 136 475 0
2022-05-13 10:45:18 GMT 47.412918 13.154549 37,000 136 475 0
2022-05-13 10:45:15 GMT 47.412918 13.154549 37,000 136 475 0
2022-05-13 10:45:13 GMT 47.421661 13.142258 37,000 136 476 64
2022-05-13 10:45:10 GMT 47.421661 13.142258 37,000 136 476 0
2022-05-13 10:45:07 GMT 47.425186 13.137383 37,000 136 476 64
2022-05-13 10:45:04 GMT 47.431732 13.128250 37,000 136 476 64
2022-05-13 10:45:01 GMT 47.434498 13.124296 37,000 136 476 64
2022-05-13 10:44:58 GMT 47.440872 13.115352 37,000 136 476 0
2022-05-13 10:44:54 GMT 47.445202 13.109366 37,000 136 476 0
2022-05-13 10:44:50 GMT 47.452286 13.099411 37,000 136 476 0
2022-05-13 10:44:47 GMT 47.456909 13.092888 37,000 136 476 -64
2022-05-13 10:44:44 GMT 47.461636 13.086266 37,000 136 476 -64
2022-05-13 10:44:41 GMT 47.467300 13.078331 37,000 136 477 -64
2022-05-13 10:44:38 GMT 47.472061 13.071602 37,000 136 477 -64
2022-05-13 10:44:35 GMT 47.476364 13.065559 37,000 136 477 -64
2022-05-13 10:44:32 GMT 47.481308 13.058556 37,025 136 477 -64
2022-05-13 10:44:29 GMT 47.489410 13.047089 37,025 136 479 0
2022-05-13 10:44:26 GMT 47.489410 13.047089 37,025 136 479 0
2022-05-13 10:44:23 GMT 47.494316 13.040279 37,025 136 478 -64
2022-05-13 10:44:20 GMT 47.500366 13.031757 37,025 136 477 0
2022-05-13 10:44:18 GMT 47.503719 13.027039 37,025 136 477 0
2022-05-13 10:44:15 GMT 47.508453 13.020378 37,025 136 477 0
2022-05-13 10:44:12 GMT 47.515503 13.010490 37,025 136 477 0
2022-05-13 10:44:09 GMT 47.517822 13.007249 37,025 136 477 0
2022-05-13 10:44:06 GMT 47.522690 13.000397 37,025 136 477 0
2022-05-13 10:44:02 GMT 47.528019 12.992882 37,025 136 478 0
2022-05-13 10:43:59 GMT 47.533859 12.984673 37,025 136 478 0
2022-05-13 10:43:56 GMT 47.538448 12.978304 37,025 136 478 -64
2022-05-13 10:43:53 GMT 47.543289 12.971420 37,025 136 478 -64
2022-05-13 10:43:50 GMT 47.549805 12.962247 37,025 136 478 -64
2022-05-13 10:43:46 GMT 47.554504 12.955627 37,025 136 478 -64
2022-05-13 10:43:43 GMT 47.559311 12.948830 37,025 136 478 -64
2022-05-13 10:43:39 GMT 47.566498 12.938736 37,025 136 478 0
2022-05-13 10:43:36 GMT 47.576294 12.924934 37,025 136 479 64
2022-05-13 10:43:32 GMT 47.576294 12.924934 37,025 136 479 64
2022-05-13 10:43:29 GMT 47.581238 12.917931 37,025 136 479 64
2022-05-13 10:43:27 GMT 47.585403 12.912094 37,025 136 479 64
2022-05-13 10:43:24 GMT 47.589005 12.907034 37,025 136 479 0
2022-05-13 10:43:21 GMT 47.594776 12.898865 37,025 136 479 0
2022-05-13 10:43:18 GMT 47.599709 12.891822 37,025 136 480 64
2022-05-13 10:43:15 GMT 47.604630 12.884903 37,025 136 480 64
2022-05-13 10:43:12 GMT 47.609894 12.877419 37,025 136 479 0
2022-05-13 10:43:09 GMT 47.613815 12.871892 37,025 136 480 -64
2022-05-13 10:43:06 GMT 47.623730 12.857807 37,025 136 479 0
2022-05-13 10:43:03 GMT 47.623730 12.857807 37,025 136 480 0
2022-05-13 10:43:00 GMT 47.628433 12.851120 37,025 136 480 0
2022-05-13 10:42:58 GMT 47.632809 12.844849 37,025 136 479 0
2022-05-13 10:42:54 GMT 47.639603 12.835190 37,025 136 479 64
2022-05-13 10:42:51 GMT 47.643703 12.829426 37,025 136 479 64
2022-05-13 10:42:48 GMT 47.647751 12.823586 37,025 136 479 64
2022-05-13 10:42:46 GMT 47.651917 12.817749 37,025 136 480 0
2022-05-13 10:42:43 GMT 47.655201 12.813087 37,025 136 480 -64
2022-05-13 10:42:40 GMT 47.661209 12.804565 37,025 136 480 -64
2022-05-13 10:42:37 GMT 47.665955 12.797875 37,025 136 480 0
2022-05-13 10:42:35 GMT 47.668579 12.794128 37,025 136 480 -64
2022-05-13 10:42:31 GMT 47.674286 12.786114 37,025 136 480 -64
2022-05-13 10:42:29 GMT 47.677963 12.780903 37,025 136 479 -64
2022-05-13 10:42:27 GMT 47.680988 12.776536 37,025 136 479 0
2022-05-13 10:42:24 GMT 47.686577 12.768649 37,025 136 479 64
2022-05-13 10:42:20 GMT 47.692162 12.760691 37,000 136 480 64
2022-05-13 10:42:17 GMT 47.696304 12.754704 37,000 136 479 64
2022-05-13 10:42:15 GMT 47.700451 12.748859 37,000 136 480 64
2022-05-13 10:42:12 GMT 47.704697 12.742767 37,000 136 480 64
2022-05-13 10:42:09 GMT 47.709713 12.735619 37,000 136 480 0
2022-05-13 10:42:06 GMT 47.714584 12.728691 37,000 136 479 -64
2022-05-13 10:42:03 GMT 47.718979 12.722379 37,000 136 479 -64
2022-05-13 10:42:00 GMT 47.724792 12.714134 37,000 136 480 0
2022-05-13 10:41:58 GMT 47.732483 12.703148 37,000 136 480 0
2022-05-13 10:41:55 GMT 47.732483 12.703148 37,000 136 479 0
2022-05-13 10:41:52 GMT 47.736603 12.697243 37,000 136 479 0
2022-05-13 10:41:47 GMT 47.745140 12.685054 37,000 136 479 0
2022-05-13 10:41:45 GMT 47.748489 12.680335 37,000 136 479 0
2022-05-13 10:41:42 GMT 47.757523 12.667511 37,000 136 479 0
2022-05-13 10:41:39 GMT 47.757523 12.667511 37,000 136 479 0
2022-05-13 10:41:36 GMT 47.763107 12.659546 37,000 136 479 0
2022-05-13 10:41:33 GMT 47.767593 12.653160 37,000 136 479 -64
2022-05-13 10:41:30 GMT 47.778049 12.638292 37,025 136 479 -64
2022-05-13 10:41:27 GMT 47.778049 12.638292 37,025 136 478 0
2022-05-13 10:41:24 GMT 47.781403 12.633503 37,000 136 479 64
2022-05-13 10:41:21 GMT 47.786339 12.626460 37,000 136 478 64
2022-05-13 10:41:18 GMT 47.791214 12.619514 37,000 136 479 64
2022-05-13 10:41:15 GMT 47.796764 12.611741 37,000 136 478 0
2022-05-13 10:41:12 GMT 47.800770 12.606037 37,000 136 478 0
2022-05-13 10:41:08 GMT 47.811264 12.591293 37,000 136 478 0
2022-05-13 10:41:05 GMT 47.811264 12.591293 37,000 136 478 0
2022-05-13 10:41:02 GMT 47.817295 12.582867 37,000 136 478 0
2022-05-13 10:40:59 GMT 47.822323 12.575895 37,000 136 478 64
2022-05-13 10:40:57 GMT 47.825775 12.571106 37,000 137 478 0
2022-05-13 10:40:54 GMT 47.829987 12.565269 37,000 136 478 0
2022-05-13 10:40:51 GMT 47.834751 12.558641 37,000 136 478 0
2022-05-13 10:40:48 GMT 47.840572 12.550612 37,000 136 478 0
2022-05-13 10:40:45 GMT 47.844437 12.545189 37,000 136 478 0
2022-05-13 10:40:42 GMT 47.848484 12.539626 37,000 136 478 0
2022-05-13 10:40:39 GMT 47.855026 12.530457 37,000 136 478 0
2022-05-13 10:40:36 GMT 47.859890 12.523639 37,000 136 478 0
2022-05-13 10:40:33 GMT 47.863056 12.519203 37,000 132 479 0
2022-05-13 10:40:30 GMT 47.867760 12.512512 37,000 136 478 0
2022-05-13 10:40:27 GMT 47.873245 12.504639 37,000 135 478 -64
2022-05-13 10:40:24 GMT 47.878094 12.497652 37,000 135 479 0
2022-05-13 10:40:21 GMT 47.883362 12.489944 37,025 132 479 0
2022-05-13 10:40:17 GMT 47.890896 12.478567 37,025 134 478 0
2022-05-13 10:40:14 GMT 47.893360 12.474764 37,025 133 480 -64
2022-05-13 10:40:12 GMT 47.901077 12.462753 37,025 133 479 -64
2022-05-13 10:40:09 GMT 47.901077 12.462753 37,025 133 480 -64
2022-05-13 10:40:06 GMT 47.907513 12.452510 37,025 133 480 -64
2022-05-13 10:40:03 GMT 47.911610 12.446031 37,025 133 480 -64
2022-05-13 10:40:00 GMT 47.914719 12.441055 37,025 133 480 -64
2022-05-13 10:39:57 GMT 47.920166 12.432404 37,050 133 480 -64
2022-05-13 10:39:54 GMT 47.924240 12.425880 37,025 132 479 -64
2022-05-13 10:39:51 GMT 47.929485 12.417579 37,050 132 479 0
2022-05-13 10:39:48 GMT 47.933258 12.411522 37,050 132 479 0
2022-05-13 10:39:45 GMT 47.943878 12.394569 37,050 132 479 0
2022-05-13 10:39:42 GMT 47.943878 12.394569 37,050 132 479 0
2022-05-13 10:39:39 GMT 47.948227 12.387497 37,025 132 479 0
2022-05-13 10:39:36 GMT 47.951385 12.382484 37,025 132 479 64
2022-05-13 10:39:33 GMT 47.955975 12.375113 37,025 132 479 64
2022-05-13 10:39:30 GMT 47.961094 12.366873 37,025 132 479 64
2022-05-13 10:39:26 GMT 47.966263 12.358521 37,025 132 479 64
2022-05-13 10:39:23 GMT 47.970016 12.352478 37,025 132 479 64
2022-05-13 10:39:21 GMT 47.974316 12.345605 37,025 132 479 64
2022-05-13 10:39:18 GMT 47.979111 12.337858 37,025 132 479 64
2022-05-13 10:39:15 GMT 47.983765 12.330322 37,025 132 479 64
2022-05-13 10:39:12 GMT 47.988747 12.322364 37,025 132 479 64
2022-05-13 10:39:09 GMT 47.991943 12.317184 37,025 132 479 64
2022-05-13 10:39:06 GMT 47.995880 12.310867 37,000 132 479 64
2022-05-13 10:39:03 GMT 48.000431 12.303490 37,000 132 478 64
2022-05-13 10:39:00 GMT 48.005039 12.296096 37,000 132 478 64
2022-05-13 10:38:57 GMT 48.010895 12.286697 37,000 132 479 128
2022-05-13 10:38:54 GMT 48.018402 12.274612 36,975 132 478 64
2022-05-13 10:38:51 GMT 48.018402 12.274612 37,000 132 478 64
2022-05-13 10:38:48 GMT 48.022156 12.268639 36,975 132 478 128
2022-05-13 10:38:45 GMT 48.032181 12.252573 36,975 132 477 64
2022-05-13 10:38:42 GMT 48.036835 12.245108 37,025 132 476 0
2022-05-13 10:38:39 GMT 48.036835 12.245108 37,025 132 476 0
2022-05-13 10:38:35 GMT 48.042618 12.235817 36,975 132 477 0
2022-05-13 10:38:32 GMT 48.047775 12.227502 36,975 132 477 -128
2022-05-13 10:38:29 GMT 48.050995 12.222359 37,000 132 477 -128
2022-05-13 10:38:27 GMT 48.055595 12.214966 37,000 132 477 -128
2022-05-13 10:38:24 GMT 48.060471 12.207115 37,025 132 477 -128
2022-05-13 10:38:21 GMT 48.063557 12.202219 37,025 132 477 -128
2022-05-13 10:38:18 GMT 48.068985 12.193382 37,025 132 476 -64
2022-05-13 10:38:15 GMT 48.078362 12.178345 37,025 132 476 0
2022-05-13 10:38:12 GMT 48.078362 12.178345 37,025 132 476 0
2022-05-13 10:38:09 GMT 48.081894 12.172714 37,025 132 475 64
2022-05-13 10:38:06 GMT 48.087158 12.164119 37,000 132 476 0
2022-05-13 10:38:03 GMT 48.091003 12.158020 37,000 132 476 0
2022-05-13 10:38:00 GMT 48.094849 12.151772 37,000 132 475 0
2022-05-13 10:37:57 GMT 48.101257 12.141403 37,000 132 476 -64
2022-05-13 10:37:54 GMT 48.104477 12.136230 37,000 132 476 -64
2022-05-13 10:37:51 GMT 48.111179 12.125315 37,000 133 476 0
2022-05-13 10:37:49 GMT 48.111179 12.125315 37,000 132 476 0
2022-05-13 10:37:46 GMT 48.116043 12.117508 37,000 132 476 0
2022-05-13 10:37:43 GMT 48.124260 12.104187 37,000 132 476 64
2022-05-13 10:37:40 GMT 48.124260 12.104187 37,000 132 476 64
2022-05-13 10:37:37 GMT 48.130173 12.094680 37,000 132 476 0
2022-05-13 10:37:34 GMT 48.133392 12.089493 37,000 132 476 64
2022-05-13 10:37:31 GMT 48.137806 12.082355 37,000 132 476 64
2022-05-13 10:37:29 GMT 48.142136 12.075383 37,000 132 476 64
2022-05-13 10:37:24 GMT 48.148979 12.064256 37,000 132 476 0
2022-05-13 10:37:21 GMT 48.154194 12.055805 37,000 132 476 0
2022-05-13 10:37:18 GMT 48.157173 12.050946 37,000 132 475 0
2022-05-13 10:37:15 GMT 48.161591 12.043833 37,000 132 475 0
2022-05-13 10:37:12 GMT 48.167404 12.034466 37,000 132 475 0
2022-05-13 10:37:09 GMT 48.171295 12.028198 37,000 132 475 -64
2022-05-13 10:37:07 GMT 48.179565 12.014851 37,000 132 475 -64
2022-05-13 10:37:04 GMT 48.179565 12.014851 37,025 132 475 0
2022-05-13 10:37:01 GMT 48.182823 12.009502 37,025 132 475 0
2022-05-13 10:36:58 GMT 48.187897 12.001335 37,025 132 475 0
2022-05-13 10:36:55 GMT 48.191711 11.995239 37,000 132 475 64
2022-05-13 10:36:52 GMT 48.197021 11.986662 37,000 132 476 128
2022-05-13 10:36:49 GMT 48.201416 11.979534 37,000 132 476 128
2022-05-13 10:36:46 GMT 48.205582 11.972774 37,025 132 494 0
2022-05-13 10:36:43 GMT 48.210896 11.964111 36,975 132 481 0
2022-05-13 10:36:40 GMT 48.214874 11.957703 36,975 132 480 -128
2022-05-13 10:36:37 GMT 48.220810 11.948066 37,000 132 480 -128
2022-05-13 10:36:34 GMT 48.223297 11.944040 37,000 132 481 -256
2022-05-13 10:36:31 GMT 48.228699 11.935237 37,025 132 481 -192
2022-05-13 10:36:28 GMT 48.233749 11.927032 37,025 132 481 0
2022-05-13 10:36:25 GMT 48.236778 11.922118 36,975 132 489 -256
2022-05-13 10:36:22 GMT 48.242157 11.913405 37,050 132 482 0
2022-05-13 10:36:19 GMT 48.246136 11.906939 37,050 132 484 64
2022-05-13 10:36:16 GMT 48.251862 11.897615 37,025 132 484 64
2022-05-13 10:36:13 GMT 48.255569 11.891573 37,000 132 485 64
2022-05-13 10:36:10 GMT 48.260284 11.883967 37,000 132 488 -64
2022-05-13 10:36:07 GMT 48.264011 11.877883 37,000 132 488 -128
2022-05-13 10:36:05 GMT 48.268524 11.870516 36,975 132 491 -448
2022-05-13 10:36:02 GMT 48.272095 11.864812 37,025 132 494 -192
2022-05-13 10:35:59 GMT 48.276672 11.857276 37,050 132 494 0
2022-05-13 10:35:56 GMT 48.282852 11.847206 37,050 132 494 0
2022-05-13 10:35:53 GMT 48.286240 11.841642 37,025 132 494 -64
2022-05-13 10:35:50 GMT 48.290916 11.833938 37,025 132 494 128
2022-05-13 10:35:47 GMT 48.294983 11.827205 37,025 132 494 128
2022-05-13 10:35:44 GMT 48.304550 11.811500 37,025 132 494 64
2022-05-13 10:35:41 GMT 48.304550 11.811500 37,025 132 494 0
2022-05-13 10:35:38 GMT 48.308670 11.804669 37,025 132 494 -64
2022-05-13 10:35:35 GMT 48.313541 11.796714 37,025 132 494 -64
2022-05-13 10:35:32 GMT 48.318943 11.787896 37,050 132 494 -64
2022-05-13 10:35:29 GMT 48.323273 11.780813 37,050 132 494 0
2022-05-13 10:35:27 GMT 48.327530 11.773893 37,050 132 494 0
2022-05-13 10:35:24 GMT 48.330460 11.769104 37,050 132 494 64
2022-05-13 10:35:21 GMT 48.336456 11.759315 37,050 132 493 64
2022-05-13 10:35:18 GMT 48.340485 11.752765 37,025 132 493 64
2022-05-13 10:35:14 GMT 48.347340 11.741566 37,025 132 493 0
2022-05-13 10:35:11 GMT 48.350597 11.736290 37,025 132 493 64
2022-05-13 10:35:08 GMT 48.355671 11.727978 37,025 132 493 64
2022-05-13 10:35:05 GMT 48.359676 11.721400 37,025 132 492 128
2022-05-13 10:35:02 GMT 48.365822 11.711354 37,025 132 492 128
2022-05-13 10:34:59 GMT 48.375092 11.696073 37,000 132 492 64
2022-05-13 10:34:56 GMT 48.375092 11.696073 37,000 132 492 64
2022-05-13 10:34:53 GMT 48.378479 11.690510 37,000 132 492 -64
2022-05-13 10:34:50 GMT 48.382999 11.683093 37,000 132 492 -64
2022-05-13 10:34:47 GMT 48.386765 11.676917 37,025 132 489 0
2022-05-13 10:34:45 GMT 48.389889 11.671745 37,025 132 491 0
2022-05-13 10:34:42 GMT 48.399849 11.655410 37,025 132 490 64
2022-05-13 10:34:39 GMT 48.399849 11.655410 37,025 132 490 64
2022-05-13 10:34:36 GMT 48.403290 11.649733 37,025 132 490 64
2022-05-13 10:34:33 GMT 48.408966 11.640508 37,025 132 490 -64
2022-05-13 10:34:30 GMT 48.415306 11.630112 37,025 132 490 -64
2022-05-13 10:34:27 GMT 48.418167 11.625437 37,025 132 489 -64
2022-05-13 10:34:24 GMT 48.423126 11.617319 37,025 132 489 0
2022-05-13 10:34:21 GMT 48.427002 11.610859 37,025 132 489 0
2022-05-13 10:34:18 GMT 48.431305 11.603816 37,025 132 489 -64
2022-05-13 10:34:15 GMT 48.435787 11.596431 37,025 132 489 0
2022-05-13 10:34:12 GMT 48.442165 11.585878 37,025 132 487 -64
2022-05-13 10:34:09 GMT 48.447281 11.577477 37,025 132 488 -64
2022-05-13 10:34:06 GMT 48.455574 11.563833 37,025 132 488 0
2022-05-13 10:34:03 GMT 48.455574 11.563833 37,050 132 487 0
2022-05-13 10:34:00 GMT 48.463989 11.549870 37,025 132 487 64
2022-05-13 10:33:57 GMT 48.463989 11.549870 37,025 132 487 64
2022-05-13 10:33:55 GMT 48.466095 11.546349 37,025 132 488 0
2022-05-13 10:33:53 GMT 48.470425 11.539258 37,000 132 485 0
2022-05-13 10:33:50 GMT 48.474289 11.532898 37,025 132 487 0
2022-05-13 10:33:47 GMT 48.479546 11.524225 37,025 132 487 -64
2022-05-13 10:33:44 GMT 48.484314 11.516348 37,025 132 487 -64
2022-05-13 10:33:41 GMT 48.492443 11.502975 37,050 132 487 -64
2022-05-13 10:33:38 GMT 48.492443 11.502975 37,050 132 486 0
2022-05-13 10:33:35 GMT 48.501709 11.487615 37,025 132 486 64
2022-05-13 10:33:32 GMT 48.507526 11.478039 37,025 132 485 128
2022-05-13 10:33:29 GMT 48.507526 11.478039 37,025 132 485 192
2022-05-13 10:33:26 GMT 48.511230 11.471910 37,025 132 485 192
2022-05-13 10:33:24 GMT 48.514183 11.467052 37,000 132 485 128
2022-05-13 10:33:21 GMT 48.520157 11.457191 37,000 132 485 128
2022-05-13 10:33:18 GMT 48.522537 11.453177 37,000 132 485 128
2022-05-13 10:33:15 GMT 48.527069 11.445641 37,000 132 485 128
2022-05-13 10:33:13 GMT 48.531418 11.438387 37,000 132 484 0
2022-05-13 10:33:10 GMT 48.539738 11.424553 37,000 132 485 0
2022-05-13 10:33:07 GMT 48.539738 11.424553 37,000 132 484 0
2022-05-13 10:33:04 GMT 48.544254 11.417036 37,000 132 484 -64
2022-05-13 10:33:01 GMT 48.547234 11.412048 37,000 132 484 -64
2022-05-13 10:32:58 GMT 48.553101 11.402291 37,025 132 483 -64
2022-05-13 10:32:55 GMT 48.559105 11.392316 37,025 131 482 0
2022-05-13 10:32:52 GMT 48.567810 11.377751 37,000 132 482 0
2022-05-13 10:32:49 GMT 48.567810 11.377751 37,000 132 482 0
2022-05-13 10:32:46 GMT 48.571701 11.371272 37,000 132 482 0
2022-05-13 10:32:44 GMT 48.574886 11.365935 37,000 132 482 0
2022-05-13 10:32:41 GMT 48.578007 11.360658 37,000 132 482 64
2022-05-13 10:32:38 GMT 48.582550 11.353102 37,000 132 482 64
2022-05-13 10:32:35 GMT 48.587875 11.344251 37,000 131 481 0
2022-05-13 10:32:32 GMT 48.592903 11.335795 37,000 131 482 0
2022-05-13 10:32:29 GMT 48.597092 11.328784 37,000 131 481 -64
2022-05-13 10:32:26 GMT 48.600349 11.323290 37,000 131 481 -64
2022-05-13 10:32:23 GMT 48.604889 11.315636 37,000 131 481 0
2022-05-13 10:32:20 GMT 48.610729 11.305727 37,000 131 481 0
2022-05-13 10:32:17 GMT 48.613991 11.300234 37,000 131 481 0
2022-05-13 10:32:14 GMT 48.617752 11.293875 37,025 131 481 0
2022-05-13 10:32:12 GMT 48.621437 11.287802 37,000 133 480 64
2022-05-13 10:32:09 GMT 48.626465 11.279345 37,000 132 480 64
2022-05-13 10:32:06 GMT 48.631805 11.270564 37,000 133 480 64
2022-05-13 10:32:03 GMT 48.640152 11.257372 36,975 133 480 64
2022-05-13 10:32:00 GMT 48.640152 11.257372 37,000 134 480 64
2022-05-13 10:31:57 GMT 48.644016 11.251373 36,975 135 480 64
2022-05-13 10:31:54 GMT 48.654259 11.236050 36,975 135 479 64
2022-05-13 10:31:51 GMT 48.654259 11.236050 37,000 136 478 0
2022-05-13 10:31:48 GMT 48.658951 11.229225 36,975 136 478 0
2022-05-13 10:31:45 GMT 48.663254 11.222957 37,000 136 478 0
2022-05-13 10:31:43 GMT 48.667419 11.216971 37,000 136 478 0
2022-05-13 10:31:40 GMT 48.670624 11.212393 37,000 136 478 -64
2022-05-13 10:31:37 GMT 48.676346 11.204083 37,025 136 478 128
2022-05-13 10:31:34 GMT 48.680511 11.198104 37,000 136 478 -64
2022-05-13 10:31:31 GMT 48.686417 11.189505 37,000 136 478 -64
2022-05-13 10:31:28 GMT 48.689941 11.184434 37,025 136 478 -64
2022-05-13 10:31:25 GMT 48.695457 11.176493 37,025 136 478 -64
2022-05-13 10:31:21 GMT 48.701508 11.167747 37,025 136 477 0
2022-05-13 10:31:18 GMT 48.711239 11.153725 37,025 136 478 64
2022-05-13 10:31:15 GMT 48.711239 11.153725 37,025 136 477 -128
2022-05-13 10:31:13 GMT 48.715706 11.147292 37,025 136 477 -128
2022-05-13 10:31:10 GMT 48.720779 11.139920 37,025 136 482 64
2022-05-13 10:31:07 GMT 48.723991 11.135294 37,025 136 478 64
2022-05-13 10:31:04 GMT 48.729393 11.127416 36,975 136 478 128
2022-05-13 10:31:01 GMT 48.733475 11.121544 36,975 136 480 64
2022-05-13 10:30:58 GMT 48.738331 11.114478 36,975 136 480 64
2022-05-13 10:30:55 GMT 48.745453 11.104142 36,975 136 483 0
2022-05-13 10:30:50 GMT 48.751740 11.095065 36,975 136 483 0
2022-05-13 10:30:47 GMT 48.756485 11.088168 36,975 136 483 -192
2022-05-13 10:30:44 GMT 48.759884 11.083254 37,025 136 482 0
2022-05-13 10:30:42 GMT 48.768917 11.070243 37,000 136 482 -64
2022-05-13 10:30:39 GMT 48.773209 11.064078 37,025 136 482 -64
2022-05-13 10:30:36 GMT 48.773209 11.064078 37,025 136 480 64
2022-05-13 10:30:33 GMT 48.777946 11.057233 37,000 136 480 0
2022-05-13 10:30:30 GMT 48.783646 11.049007 37,000 136 480 64
2022-05-13 10:30:27 GMT 48.788452 11.042034 37,000 136 479 0
2022-05-13 10:30:24 GMT 48.792480 11.036260 37,000 136 479 0
2022-05-13 10:30:22 GMT 48.800949 11.024006 37,000 136 479 -64
2022-05-13 10:30:19 GMT 48.800949 11.024006 37,000 136 479 -64
2022-05-13 10:30:16 GMT 48.806019 11.016757 37,000 136 477 64
2022-05-13 10:30:13 GMT 48.809921 11.011047 37,000 136 478 0
2022-05-13 10:30:11 GMT 48.813904 11.005343 37,000 136 478 0
2022-05-13 10:30:07 GMT 48.820683 10.995507 37,000 136 478 0
2022-05-13 10:30:04 GMT 48.825394 10.988652 37,000 136 478 0
2022-05-13 10:30:01 GMT 48.830086 10.981847 37,000 136 477 64
2022-05-13 10:29:58 GMT 48.833111 10.977438 37,000 135 476 64
2022-05-13 10:29:56 GMT 48.837395 10.971150 37,000 136 476 0
2022-05-13 10:29:53 GMT 48.842934 10.963054 37,000 135 477 64
2022-05-13 10:29:50 GMT 48.852036 10.949707 36,975 135 476 64
2022-05-13 10:29:47 GMT 48.852036 10.949707 36,975 135 476 64
2022-05-13 10:29:44 GMT 48.857178 10.942166 36,975 135 476 64
2022-05-13 10:29:41 GMT 48.865372 10.930095 36,975 135 475 64
2022-05-13 10:29:38 GMT 48.865372 10.930095 36,975 135 473 -128
2022-05-13 10:29:36 GMT 48.874821 10.916218 37,000 135 474 -64
2022-05-13 10:29:33 GMT 48.874821 10.916218 37,000 135 474 -128
2022-05-13 10:29:30 GMT 48.879501 10.909424 37,000 135 470 -64
2022-05-13 10:29:27 GMT 48.884491 10.902029 37,000 135 471 -64
2022-05-13 10:29:24 GMT 48.886871 10.898578 37,025 135 470 -64
2022-05-13 10:29:21 GMT 48.892696 10.889981 37,025 135 470 -64
2022-05-13 10:29:18 GMT 48.896851 10.883930 37,025 135 468 64
2022-05-13 10:29:15 GMT 48.903214 10.874563 37,025 135 468 64
2022-05-13 10:29:12 GMT 48.906647 10.869493 37,025 135 468 64
2022-05-13 10:29:09 GMT 48.912827 10.860408 37,025 135 466 -64
2022-05-13 10:29:06 GMT 48.915836 10.855938 37,025 135 466 -64
2022-05-13 10:29:03 GMT 48.920425 10.849281 37,025 135 466 -64
2022-05-13 10:29:01 GMT 48.923748 10.844373 37,025 135 466 -64
2022-05-13 10:28:58 GMT 48.928867 10.836929 37,025 136 466 0
2022-05-13 10:28:55 GMT 48.934456 10.828761 37,025 136 465 -64
2022-05-13 10:28:52 GMT 48.937527 10.824280 37,025 136 465 -64
2022-05-13 10:28:49 GMT 48.942368 10.817269 37,025 136 464 0
2022-05-13 10:28:46 GMT 48.947025 10.810475 37,025 136 464 0
2022-05-13 10:28:42 GMT 48.953751 10.800617 37,025 136 464 -64
2022-05-13 10:28:40 GMT 48.957458 10.795194 37,025 136 465 0
2022-05-13 10:28:37 GMT 48.960617 10.790598 37,025 136 465 0
2022-05-13 10:28:34 GMT 48.966293 10.782306 37,025 135 464 64
2022-05-13 10:28:31 GMT 48.971603 10.774552 37,025 135 464 128
2022-05-13 10:28:27 GMT 48.977005 10.766602 37,025 135 464 128
2022-05-13 10:28:23 GMT 48.983334 10.757278 37,000 135 464 128
2022-05-13 10:28:20 GMT 48.988083 10.750267 37,000 136 463 192
2022-05-13 10:28:17 GMT 48.992741 10.743472 36,975 135 464 128
2022-05-13 10:28:14 GMT 48.995670 10.739208 36,975 135 465 128
2022-05-13 10:28:11 GMT 49.004059 10.726882 36,975 135 464 128
2022-05-13 10:28:09 GMT 49.004059 10.726882 36,975 135 464 128
2022-05-13 10:28:06 GMT 49.008148 10.720849 36,950 135 465 64
2022-05-13 10:28:03 GMT 49.013550 10.712899 36,950 135 464 -64
2022-05-13 10:28:00 GMT 49.018295 10.705888 36,950 135 464 -64
2022-05-13 10:27:57 GMT 49.023090 10.698804 36,950 135 464 0
2022-05-13 10:27:55 GMT 49.025940 10.694627 36,950 135 464 0
2022-05-13 10:27:52 GMT 49.030495 10.687890 36,950 135 463 0
2022-05-13 10:27:49 GMT 49.035919 10.679838 36,950 135 463 0
2022-05-13 10:27:46 GMT 49.039169 10.675049 36,950 135 463 0
2022-05-13 10:27:44 GMT 49.041458 10.671668 36,950 135 463 0
2022-05-13 10:27:41 GMT 49.051067 10.657461 36,950 135 463 64
2022-05-13 10:27:39 GMT 49.051067 10.657461 36,950 135 463 64
2022-05-13 10:27:36 GMT 49.056061 10.650118 36,950 135 462 0
2022-05-13 10:27:33 GMT 49.059822 10.644523 36,950 135 462 64
2022-05-13 10:27:31 GMT 49.063358 10.639319 36,950 135 462 0
2022-05-13 10:27:28 GMT 49.066177 10.635188 36,950 135 462 64
2022-05-13 10:27:25 GMT 49.072392 10.626020 36,950 135 462 0
2022-05-13 10:27:22 GMT 49.077744 10.618069 36,950 135 462 0
2022-05-13 10:27:19 GMT 49.080212 10.614239 36,950 135 461 0
2022-05-13 10:27:16 GMT 49.084911 10.607372 36,950 135 462 0
2022-05-13 10:27:14 GMT 49.089844 10.599976 36,950 135 461 0
2022-05-13 10:27:11 GMT 49.093048 10.595257 36,950 135 461 0
2022-05-13 10:27:09 GMT 49.096783 10.589664 36,950 135 461 0
2022-05-13 10:27:06 GMT 49.104279 10.578533 36,950 135 461 -64
2022-05-13 10:27:04 GMT 49.108154 10.572721 36,950 135 462 -64
2022-05-13 10:27:01 GMT 49.108154 10.572721 36,950 135 461 -128
2022-05-13 10:26:59 GMT 49.111771 10.567298 36,950 135 461 -128
2022-05-13 10:26:56 GMT 49.116211 10.560678 36,975 135 461 -128
2022-05-13 10:26:54 GMT 49.123131 10.550344 36,975 135 461 -128
2022-05-13 10:26:51 GMT 49.123131 10.550344 36,975 135 461 -128
2022-05-13 10:26:49 GMT 49.126904 10.544634 37,000 135 461 -64
2022-05-13 10:26:46 GMT 49.131546 10.537720 37,000 135 461 -64
2022-05-13 10:26:43 GMT 49.136166 10.530757 37,000 135 461 -64
2022-05-13 10:26:40 GMT 49.140656 10.524057 37,000 135 461 -64
2022-05-13 10:26:38 GMT 49.143860 10.519339 37,000 135 461 0
2022-05-13 10:26:35 GMT 49.147476 10.513846 37,000 135 461 0
2022-05-13 10:26:31 GMT 49.154755 10.502930 37,000 135 461 0
2022-05-13 10:26:28 GMT 49.161957 10.492088 37,000 135 461 0
2022-05-13 10:26:25 GMT 49.161957 10.492088 37,000 135 461 0
2022-05-13 10:26:22 GMT 49.167938 10.483070 37,000 135 461 0
2022-05-13 10:26:20 GMT 49.170567 10.479078 37,000 135 461 0
2022-05-13 10:26:18 GMT 49.177917 10.467999 37,000 135 461 -64
2022-05-13 10:26:15 GMT 49.177917 10.467999 37,000 135 461 -64
2022-05-13 10:26:12 GMT 49.182579 10.461008 37,000 135 461 0
2022-05-13 10:26:09 GMT 49.188080 10.452646 37,000 135 461 0
2022-05-13 10:26:06 GMT 49.193115 10.445181 37,000 135 461 0
2022-05-13 10:26:03 GMT 49.197556 10.438561 37,000 136 461 64
2022-05-13 10:26:00 GMT 49.200687 10.433904 37,000 136 461 0
2022-05-13 10:25:57 GMT 49.205383 10.427011 37,000 136 461 0
2022-05-13 10:25:54 GMT 49.209366 10.421166 37,000 136 461 0
2022-05-13 10:25:52 GMT 49.213394 10.415391 37,000 136 461 0
2022-05-13 10:25:50 GMT 49.216560 10.410775 37,000 136 461 0
2022-05-13 10:25:46 GMT 49.223404 10.401017 37,000 137 462 0
2022-05-13 10:25:43 GMT 49.227081 10.395813 37,000 137 461 64
2022-05-13 10:25:40 GMT 49.235325 10.384176 37,000 137 461 0
2022-05-13 10:25:38 GMT 49.235325 10.384176 37,000 137 462 -64
2022-05-13 10:25:35 GMT 49.240631 10.376659 37,000 137 462 0
2022-05-13 10:25:31 GMT 49.250824 10.362276 37,000 137 462 0
2022-05-13 10:25:28 GMT 49.250824 10.362276 37,000 137 462 0
2022-05-13 10:25:25 GMT 49.255482 10.355626 37,000 137 462 64
2022-05-13 10:25:22 GMT 49.259949 10.349332 37,000 137 462 64
2022-05-13 10:25:19 GMT 49.265121 10.342008 37,000 137 462 64
2022-05-13 10:25:16 GMT 49.269196 10.336233 37,000 137 462 64
2022-05-13 10:25:13 GMT 49.273865 10.329543 37,000 137 462 64
2022-05-13 10:25:10 GMT 49.280457 10.320247 37,000 137 462 0
2022-05-13 10:25:07 GMT 49.282791 10.316866 37,000 137 462 -64
2022-05-13 10:25:05 GMT 49.287136 10.310741 37,000 137 462 0
2022-05-13 10:25:02 GMT 49.291122 10.305105 37,000 137 462 -64
2022-05-13 10:24:59 GMT 49.296818 10.296936 37,000 137 462 -64
2022-05-13 10:24:56 GMT 49.305038 10.285316 37,000 137 462 64
2022-05-13 10:24:53 GMT 49.305038 10.285316 37,000 137 462 64
2022-05-13 10:24:50 GMT 49.311249 10.276554 37,000 137 461 64
2022-05-13 10:24:47 GMT 49.314228 10.272361 37,000 137 461 64
2022-05-13 10:24:44 GMT 49.320694 10.263202 37,000 137 459 0
2022-05-13 10:24:41 GMT 49.324448 10.257920 37,000 137 459 -64
2022-05-13 10:24:38 GMT 49.331635 10.247779 37,000 137 459 -64
2022-05-13 10:24:36 GMT 49.331635 10.247779 37,025 137 459 -64
2022-05-13 10:24:33 GMT 49.336304 10.241159 37,000 137 459 -64
2022-05-13 10:24:30 GMT 49.342625 10.232175 37,025 137 457 0
2022-05-13 10:24:27 GMT 49.352371 10.218412 37,025 137 457 0
2022-05-13 10:24:23 GMT 49.352371 10.218412 37,025 137 457 -64
2022-05-13 10:24:19 GMT 49.358734 10.209468 37,025 137 457 0
2022-05-13 10:24:16 GMT 49.368027 10.196298 37,025 137 457 -64
2022-05-13 10:24:13 GMT 49.368027 10.196298 37,025 137 457 0
2022-05-13 10:24:10 GMT 49.372055 10.190524 37,025 137 458 -64
2022-05-13 10:24:08 GMT 49.375305 10.185946 37,000 137 458 -64
2022-05-13 10:24:05 GMT 49.379124 10.180568 37,025 137 457 -64
2022-05-13 10:24:02 GMT 49.390713 10.164016 37,025 137 459 -64
2022-05-13 10:23:59 GMT 49.390713 10.164016 37,025 137 459 0
2022-05-13 10:23:56 GMT 49.393753 10.159677 37,025 137 459 0
2022-05-13 10:23:54 GMT 49.397556 10.154258 37,000 137 459 0
2022-05-13 10:23:52 GMT 49.399979 10.150804 37,000 137 459 0
2022-05-13 10:23:50 GMT 49.403229 10.146156 37,000 137 460 0
2022-05-13 10:23:48 GMT 49.411835 10.134043 37,000 137 461 64
2022-05-13 10:23:45 GMT 49.411835 10.134043 37,000 137 461 64
2022-05-13 10:23:42 GMT 49.416130 10.127949 37,000 137 462 64
2022-05-13 10:23:40 GMT 49.419296 10.123468 37,000 137 462 64
2022-05-13 10:23:38 GMT 49.426117 10.113831 36,975 137 463 64
2022-05-13 10:23:36 GMT 49.426117 10.113831 36,975 137 463 64
2022-05-13 10:23:33 GMT 49.429092 10.109590 36,975 137 463 64
2022-05-13 10:23:31 GMT 49.436600 10.098893 36,975 137 463 64
2022-05-13 10:23:29 GMT 49.436600 10.098893 36,975 137 464 192
2022-05-13 10:23:26 GMT 49.441734 10.091610 36,975 137 464 192
2022-05-13 10:23:23 GMT 49.444855 10.087082 36,975 137 464 640
2022-05-13 10:23:20 GMT 49.454445 10.073498 36,925 137 463 384
2022-05-13 10:23:18 GMT 49.454445 10.073498 36,950 137 464 768
2022-05-13 10:23:15 GMT 49.464035 10.059839 36,875 137 464 768
2022-05-13 10:23:12 GMT 49.471249 10.049595 36,850 137 464 768
2022-05-13 10:23:08 GMT 49.471249 10.049595 36,825 137 463 704
2022-05-13 10:23:05 GMT 49.477753 10.040275 36,775 137 463 704
2022-05-13 10:23:02 GMT 49.477753 10.040275 36,775 137 463 704
2022-05-13 10:23:00 GMT 49.481770 10.034600 36,700 137 463 768
2022-05-13 10:22:57 GMT 49.486679 10.027554 36,600 137 463 896
2022-05-13 10:22:55 GMT 49.488419 10.025097 36,700 137 463 832
2022-05-13 10:22:53 GMT 49.493362 10.018047 36,650 137 463 1088
2022-05-13 10:22:50 GMT 49.498123 10.011219 36,575 137 464 1280
2022-05-13 10:22:48 GMT 49.501507 10.006392 36,550 137 464 1344
2022-05-13 10:22:45 GMT 49.505604 10.000602 36,450 137 464 1408
2022-05-13 10:22:42 GMT 49.511169 9.992644 36,400 137 465 1472
2022-05-13 10:22:39 GMT 49.515564 9.986355 36,275 137 466 1344
2022-05-13 10:22:36 GMT 49.522923 9.975883 36,225 137 466 1344
2022-05-13 10:22:34 GMT 49.522923 9.975883 36,175 136 467 1280
2022-05-13 10:22:31 GMT 49.527485 9.969350 36,125 136 467 1216
2022-05-13 10:22:28 GMT 49.533096 9.961275 36,075 136 468 960
2022-05-13 10:22:25 GMT 49.538773 9.953107 35,975 136 475 1792
2022-05-13 10:22:22 GMT 49.541870 9.948714 35,900 136 468 960
2022-05-13 10:22:19 GMT 49.549713 9.937495 35,925 136 467 1088
2022-05-13 10:22:17 GMT 49.549713 9.937495 35,850 137 468 1280
2022-05-13 10:22:14 GMT 49.553513 9.932074 35,850 137 468 1280
2022-05-13 10:22:12 GMT 49.557510 9.926296 35,725 136 469 1536
2022-05-13 10:22:09 GMT 49.563950 9.917040 35,675 136 469 1664
2022-05-13 10:22:06 GMT 49.567429 9.912053 35,625 136 471 1728
2022-05-13 10:22:02 GMT 49.572918 9.904175 35,525 136 471 1856
2022-05-13 10:21:59 GMT 49.578369 9.896224 35,425 136 473 1920
2022-05-13 10:21:56 GMT 49.583496 9.888924 35,325 136 474 1856
2022-05-13 10:21:54 GMT 49.585739 9.885672 35,075 136 474 1856
2022-05-13 10:21:51 GMT 49.591400 9.877526 35,075 136 478 1600
2022-05-13 10:21:48 GMT 49.595993 9.870927 35,075 136 476 1664
2022-05-13 10:21:45 GMT 49.605789 9.856760 34,975 136 480 1664
2022-05-13 10:21:42 GMT 49.610779 9.849532 34,875 136 478 1600
2022-05-13 10:21:39 GMT 49.610779 9.849532 34,825 136 478 1600
2022-05-13 10:21:36 GMT 49.615631 9.842594 34,750 136 479 1664
2022-05-13 10:21:34 GMT 49.623196 9.831724 34,700 136 481 1088
2022-05-13 10:21:31 GMT 49.623196 9.831724 34,625 136 481 1600
2022-05-13 10:21:29 GMT 49.627712 9.825192 34,200 136 481 1216
2022-05-13 10:21:26 GMT 49.631699 9.819464 34,500 136 481 960
2022-05-13 10:21:24 GMT 49.634228 9.815839 34,450 136 481 768
2022-05-13 10:21:21 GMT 49.638466 9.809752 34,425 136 481 704
2022-05-13 10:21:18 GMT 49.644794 9.800621 34,400 137 481 640
2022-05-13 10:21:16 GMT 49.647995 9.796118 34,375 136 480 640
2022-05-13 10:21:13 GMT 49.652664 9.789324 34,325 136 478 512
2022-05-13 10:21:10 GMT 49.657837 9.781880 34,075 136 478 512
2022-05-13 10:21:07 GMT 49.664253 9.772710 34,300 136 477 576
2022-05-13 10:21:04 GMT 49.666489 9.769444 34,275 136 477 576
2022-05-13 10:21:00 GMT 49.673565 9.759200 34,050 136 476 768
2022-05-13 10:20:58 GMT 49.676880 9.754486 34,200 136 476 768
2022-05-13 10:20:55 GMT 49.681759 9.747397 34,150 136 475 832
2022-05-13 10:20:52 GMT 49.687531 9.739083 34,075 136 475 832
2022-05-13 10:20:49 GMT 49.690155 9.735260 34,075 136 475 832
2022-05-13 10:20:47 GMT 49.694458 9.728972 34,025 136 474 896
2022-05-13 10:20:44 GMT 49.699356 9.721935 34,000 136 473 896
2022-05-13 10:20:42 GMT 49.703384 9.716034 33,875 136 473 1280
2022-05-13 10:20:39 GMT 49.706013 9.712211 33,850 136 475 1664
2022-05-13 10:20:36 GMT 49.711807 9.703747 33,850 136 473 1344
2022-05-13 10:20:34 GMT 49.715652 9.698181 33,800 136 473 1344
2022-05-13 10:20:32 GMT 49.718033 9.694712 33,775 136 474 1664
2022-05-13 10:20:30 GMT 49.721931 9.689051 33,725 136 474 1664
2022-05-13 10:20:28 GMT 49.725357 9.684015 33,650 136 475 1664
2022-05-13 10:20:25 GMT 49.729240 9.678361 33,575 136 476 1600
2022-05-13 10:20:22 GMT 49.733898 9.671606 33,500 136 476 1344
2022-05-13 10:20:20 GMT 49.737991 9.665728 33,425 136 476 1344
2022-05-13 10:20:17 GMT 49.742020 9.659946 33,350 136 476 1280
2022-05-13 10:20:13 GMT 49.749390 9.649249 33,300 136 476 1344
2022-05-13 10:20:10 GMT 49.752274 9.645129 33,250 136 476 1280
2022-05-13 10:20:07 GMT 49.758804 9.635752 33,175 136 476 1152
2022-05-13 10:20:02 GMT 49.771046 9.618085 33,075 136 475 512
2022-05-13 10:19:59 GMT 49.771046 9.618085 33,025 136 475 512
2022-05-13 10:19:57 GMT 49.774212 9.613483 33,025 136 475 512
2022-05-13 10:19:55 GMT 49.777748 9.608360 33,000 136 476 0
2022-05-13 10:19:52 GMT 49.782265 9.601902 33,000 136 475 128
2022-05-13 10:19:50 GMT 49.785553 9.597136 33,000 136 476 0
2022-05-13 10:19:48 GMT 49.788895 9.592293 33,000 136 476 -64
2022-05-13 10:19:45 GMT 49.793747 9.585354 33,000 136 475 -64
2022-05-13 10:19:42 GMT 49.797729 9.579572 33,000 136 476 -64
2022-05-13 10:19:40 GMT 49.801575 9.574007 33,000 136 475 64
2022-05-13 10:19:37 GMT 49.807205 9.565839 33,000 136 476 -128
2022-05-13 10:19:34 GMT 49.811268 9.559961 33,000 136 475 -64
2022-05-13 10:19:29 GMT 49.822723 9.543288 33,000 136 475 0
2022-05-13 10:19:27 GMT 49.822723 9.543288 33,000 136 475 64
2022-05-13 10:19:24 GMT 49.826771 9.537321 33,000 136 475 64
2022-05-13 10:19:22 GMT 49.830048 9.532591 33,000 136 475 64
2022-05-13 10:19:19 GMT 49.835381 9.524775 33,000 136 475 -64
2022-05-13 10:19:17 GMT 49.837616 9.521509 33,000 136 475 0
2022-05-13 10:19:15 GMT 49.841759 9.515422 33,000 136 475 64
2022-05-13 10:19:11 GMT 49.847530 9.507034 33,000 136 476 0
2022-05-13 10:19:09 GMT 49.852066 9.500355 33,000 136 476 0
2022-05-13 10:19:06 GMT 49.855957 9.494637 33,000 136 476 -64
2022-05-13 10:19:04 GMT 49.859169 9.489961 33,000 136 476 64
2022-05-13 10:19:02 GMT 49.864105 9.482686 33,000 136 476 0
2022-05-13 10:18:59 GMT 49.866577 9.479033 33,000 136 476 0
2022-05-13 10:18:57 GMT 49.870239 9.473684 33,000 136 476 0
2022-05-13 10:18:54 GMT 49.874809 9.467023 33,000 136 476 0
2022-05-13 10:18:51 GMT 49.879669 9.459807 33,000 136 476 -64
2022-05-13 10:18:49 GMT 49.882771 9.455294 33,000 136 476 -128
2022-05-13 10:18:46 GMT 49.888596 9.446652 33,000 136 477 -64
2022-05-13 10:18:44 GMT 49.890335 9.444050 33,000 136 477 0
2022-05-13 10:18:42 GMT 49.894455 9.437979 33,025 136 476 0
2022-05-13 10:18:39 GMT 49.899670 9.430278 33,000 136 476 0
2022-05-13 10:18:36 GMT 49.902924 9.425474 33,000 136 476 0
2022-05-13 10:18:34 GMT 49.906792 9.419737 33,000 136 476 0
2022-05-13 10:18:32 GMT 49.910248 9.414633 33,025 136 476 0
2022-05-13 10:18:28 GMT 49.916107 9.405959 33,000 136 476 0
2022-05-13 10:18:26 GMT 49.919312 9.401261 33,000 136 476 0
2022-05-13 10:18:23 GMT 49.925461 9.392197 33,000 136 476 -128
2022-05-13 10:18:20 GMT 49.928764 9.387298 33,000 136 476 0
2022-05-13 10:18:18 GMT 49.932678 9.381529 33,000 136 476 0
2022-05-13 10:18:16 GMT 49.935795 9.376905 33,025 136 477 -64
2022-05-13 10:18:14 GMT 49.939087 9.372133 33,000 136 476 0
2022-05-13 10:18:11 GMT 49.947151 9.360277 33,000 136 476 0
2022-05-13 10:18:09 GMT 49.947151 9.360277 33,000 136 476 -64
2022-05-13 10:18:07 GMT 49.948837 9.357822 33,000 136 476 0
2022-05-13 10:18:05 GMT 49.957348 9.345208 33,000 136 476 0
2022-05-13 10:18:02 GMT 49.957348 9.345208 33,000 136 477 64
2022-05-13 10:18:00 GMT 49.960648 9.340403 33,000 136 477 0
2022-05-13 10:17:57 GMT 49.965317 9.333609 33,000 136 477 0
2022-05-13 10:17:55 GMT 49.969437 9.327537 33,000 136 477 0
2022-05-13 10:17:53 GMT 49.976990 9.316479 33,000 136 472 64
2022-05-13 10:17:51 GMT 49.976990 9.316479 33,000 136 452 320
2022-05-13 10:17:47 GMT 49.981369 9.310022 33,000 136 476 0
2022-05-13 10:17:45 GMT 49.986351 9.302748 33,000 136 476 0
2022-05-13 10:17:41 GMT 49.994705 9.290531 33,000 136 474 64
2022-05-13 10:17:39 GMT 49.994705 9.290531 33,000 136 474 0
2022-05-13 10:17:37 GMT 49.997803 9.285971 33,000 136 473 0
2022-05-13 10:17:35 GMT 50.002598 9.278919 33,000 136 473 64
2022-05-13 10:17:32 GMT 50.005692 9.274412 33,000 136 472 64
2022-05-13 10:17:30 GMT 50.013428 9.262992 33,000 136 468 0
2022-05-13 10:17:27 GMT 50.013428 9.262992 33,000 136 468 0
2022-05-13 10:17:24 GMT 50.018238 9.255907 33,000 136 469 0
2022-05-13 10:17:22 GMT 50.021683 9.250785 33,000 136 468 -64
2022-05-13 10:17:20 GMT 50.026291 9.243983 33,000 136 466 -64
2022-05-13 10:17:17 GMT 50.029644 9.239057 33,000 136 465 -64
2022-05-13 10:17:15 GMT 50.033554 9.233266 33,000 136 462 -64
2022-05-13 10:17:12 GMT 50.037884 9.226808 33,000 136 461 -64
2022-05-13 10:17:09 GMT 50.041672 9.221215 33,000 136 455 64
2022-05-13 10:17:06 GMT 50.046616 9.213915 33,025 136 449 1216
2022-05-13 10:17:03 GMT 50.051926 9.206037 33,025 136 456 0
2022-05-13 10:17:01 GMT 50.054783 9.201866 33,025 136 455 64
2022-05-13 10:16:57 GMT 50.060696 9.193033 33,000 136 454 256
2022-05-13 10:16:54 GMT 50.064835 9.186883 32,975 136 450 704
2022-05-13 10:16:52 GMT 50.068451 9.181462 32,975 136 451 576
2022-05-13 10:16:50 GMT 50.071335 9.177270 32,950 136 450 640
2022-05-13 10:16:47 GMT 50.075638 9.170912 32,900 136 449 1088
2022-05-13 10:16:44 GMT 50.080032 9.164332 32,850 136 449 1280
2022-05-13 10:16:42 GMT 50.082458 9.160718 32,700 136 449 1280
2022-05-13 10:16:40 GMT 50.086109 9.155323 32,450 136 449 1472
2022-05-13 10:16:36 GMT 50.093185 9.144856 32,650 136 449 1344
2022-05-13 10:16:33 GMT 50.096420 9.140047 32,600 136 449 1344
2022-05-13 10:16:31 GMT 50.101959 9.131879 32,575 136 449 1472
2022-05-13 10:16:29 GMT 50.101959 9.131879 32,550 136 449 1472
2022-05-13 10:16:26 GMT 50.106491 9.125230 32,425 136 449 1536
2022-05-13 10:16:24 GMT 50.109715 9.120434 32,350 136 449 1664
2022-05-13 10:16:21 GMT 50.113949 9.114198 32,325 136 450 1664
2022-05-13 10:16:19 GMT 50.116882 9.109834 32,275 136 450 1664
2022-05-13 10:16:16 GMT 50.121414 9.103185 32,125 136 451 1664
2022-05-13 10:16:14 GMT 50.125626 9.096969 32,025 136 451 1664
2022-05-13 10:16:11 GMT 50.128895 9.092152 32,025 136 451 1600
2022-05-13 10:16:09 GMT 50.138577 9.077825 31,950 136 451 1600
2022-05-13 10:16:06 GMT 50.138577 9.077825 31,800 136 451 1536
2022-05-13 10:16:02 GMT 50.143230 9.070921 31,775 136 451 1472
2022-05-13 10:16:00 GMT 50.146255 9.066393 31,725 136 452 1472
2022-05-13 10:15:58 GMT 50.149200 9.062058 31,650 136 452 1344
2022-05-13 10:15:55 GMT 50.153778 9.055336 31,650 136 452 1280
2022-05-13 10:15:52 GMT 50.161247 9.044272 31,550 136 451 1088
2022-05-13 10:15:50 GMT 50.161247 9.044272 30,825 136 449 1856
2022-05-13 10:15:48 GMT 50.164131 9.039966 31,500 136 450 896
2022-05-13 10:15:46 GMT 50.170418 9.030613 31,450 136 449 1088
2022-05-13 10:15:44 GMT 50.170418 9.030613 31,425 136 449 960
2022-05-13 10:15:42 GMT 50.172775 9.027148 31,400 136 449 1024
2022-05-13 10:15:40 GMT 50.176346 9.021799 31,375 136 449 1216
2022-05-13 10:15:38 GMT 50.178982 9.017845 31,050 136 449 1856
2022-05-13 10:15:35 GMT 50.187038 9.005820 31,225 136 449 1536
2022-05-13 10:15:33 GMT 50.187038 9.005820 31,200 136 448 1664
2022-05-13 10:15:30 GMT 50.190201 9.001143 31,125 136 448 1728
2022-05-13 10:15:28 GMT 50.193832 8.995634 30,450 136 449 1856
2022-05-13 10:15:25 GMT 50.203190 8.981546 30,700 136 451 2112
2022-05-13 10:15:22 GMT 50.207844 8.974642 30,825 136 450 2048
2022-05-13 10:15:19 GMT 50.210266 8.971005 30,625 136 451 2240
2022-05-13 10:15:14 GMT 50.219296 8.957495 30,475 136 453 2368
2022-05-13 10:15:11 GMT 50.219296 8.957495 30,400 136 454 2496
2022-05-13 10:15:09 GMT 50.222580 8.952556 30,350 136 455 2496
2022-05-13 10:15:07 GMT 50.225674 8.947919 30,175 136 456 2496
2022-05-13 10:15:04 GMT 50.231506 8.939185 30,150 136 458 2240
2022-05-13 10:15:01 GMT 50.235264 8.933592 30,050 136 459 2112
2022-05-13 10:14:59 GMT 50.238373 8.928849 30,025 136 459 2048
2022-05-13 10:14:56 GMT 50.242435 8.922754 29,900 136 459 1728
2022-05-13 10:14:54 GMT 50.245506 8.918152 29,875 136 459 1664
2022-05-13 10:14:52 GMT 50.249184 8.912659 29,775 135 460 1344
2022-05-13 10:14:48 GMT 50.255081 8.903841 29,725 136 459 960
2022-05-13 10:14:45 GMT 50.259239 8.897515 29,675 135 458 960
2022-05-13 10:14:43 GMT 50.262173 8.893136 29,625 136 458 1088
2022-05-13 10:14:41 GMT 50.265057 8.888756 29,425 135 457 1856
2022-05-13 10:14:39 GMT 50.268768 8.883169 29,500 135 457 1536
2022-05-13 10:14:37 GMT 50.270832 8.880071 28,900 136 459 1472
2022-05-13 10:14:35 GMT 50.276962 8.870737 29,350 135 457 2176
2022-05-13 10:14:30 GMT 50.281586 8.863814 29,225 135 457 2368
2022-05-13 10:14:28 GMT 50.284798 8.858989 29,175 135 458 2432
2022-05-13 10:14:26 GMT 50.288681 8.853101 29,075 135 458 2496
2022-05-13 10:14:24 GMT 50.291965 8.848151 29,000 135 460 2304
2022-05-13 10:14:20 GMT 50.296783 8.840886 28,875 136 461 2112
2022-05-13 10:14:18 GMT 50.300671 8.835012 28,575 135 460 1408
2022-05-13 10:14:15 GMT 50.305664 8.827515 28,700 135 461 1472
2022-05-13 10:14:13 GMT 50.312031 8.817864 28,600 136 459 1408
2022-05-13 10:14:11 GMT 50.312031 8.817864 28,600 136 461 1408
2022-05-13 10:14:09 GMT 50.314915 8.813485 28,575 136 461 1408
2022-05-13 10:14:07 GMT 50.317242 8.810070 28,400 136 459 1472
2022-05-13 10:14:04 GMT 50.328091 8.793665 28,425 136 459 1472
2022-05-13 10:14:01 GMT 50.328091 8.793665 28,350 136 459 1472
2022-05-13 10:13:58 GMT 50.330154 8.790580 28,300 136 459 1472
2022-05-13 10:13:55 GMT 50.336426 8.781184 28,225 136 459 1408
2022-05-13 10:13:53 GMT 50.339542 8.776443 28,200 136 459 1408
2022-05-13 10:13:50 GMT 50.344009 8.769836 28,100 136 459 1472
2022-05-13 10:13:46 GMT 50.353180 8.756029 27,775 136 459 1600
2022-05-13 10:13:43 GMT 50.353180 8.756029 27,950 136 459 1600
2022-05-13 10:13:39 GMT 50.359818 8.746129 27,825 136 459 1664
2022-05-13 10:13:37 GMT 50.366962 8.735467 27,725 136 459 1664
2022-05-13 10:13:34 GMT 50.366962 8.735467 27,675 136 459 1664
2022-05-13 10:13:32 GMT 50.371571 8.728638 27,100 135 458 1472
2022-05-13 10:13:29 GMT 50.375656 8.722566 27,575 136 458 1664
2022-05-13 10:13:27 GMT 50.377762 8.719507 27,500 136 459 1664
2022-05-13 10:13:25 GMT 50.381763 8.713643 27,450 136 459 1536
2022-05-13 10:13:22 GMT 50.391262 8.699465 27,325 136 459 1408
2022-05-13 10:13:19 GMT 50.391262 8.699465 27,300 136 458 1408
2022-05-13 10:13:16 GMT 50.395660 8.693004 27,225 135 458 1472
2022-05-13 10:13:13 GMT 50.399872 8.686499 27,175 135 458 1472
2022-05-13 10:13:11 GMT 50.403168 8.681368 27,100 134 458 1408
2022-05-13 10:13:09 GMT 50.411510 8.667990 26,950 134 457 1344
2022-05-13 10:13:06 GMT 50.411510 8.667990 26,950 133 457 1344
2022-05-13 10:13:03 GMT 50.420975 8.652167 26,850 132 456 1344
2022-05-13 10:12:59 GMT 50.420975 8.652167 26,850 131 456 1408
2022-05-13 10:12:57 GMT 50.423149 8.648393 26,750 131 456 1472
2022-05-13 10:12:54 GMT 50.427841 8.640169 26,725 131 455 1472
2022-05-13 10:12:52 GMT 50.430550 8.635328 26,600 129 454 1536
2022-05-13 10:12:49 GMT 50.434879 8.627311 26,600 129 454 1536
2022-05-13 10:12:46 GMT 50.439514 8.618558 26,475 129 454 1600
2022-05-13 10:12:43 GMT 50.443306 8.611277 26,375 128 453 1792
2022-05-13 10:12:40 GMT 50.446426 8.605116 26,350 128 454 1856
2022-05-13 10:12:38 GMT 50.448521 8.600959 26,300 127 453 1856
2022-05-13 10:12:36 GMT 50.451824 8.594204 26,200 127 454 1984
2022-05-13 10:12:33 GMT 50.454941 8.587839 26,150 126 453 2048
2022-05-13 10:12:31 GMT 50.458996 8.579209 26,025 125 454 2048
2022-05-13 10:12:28 GMT 50.460716 8.575497 25,975 125 454 1984
2022-05-13 10:12:26 GMT 50.464554 8.567023 25,875 124 455 1792
2022-05-13 10:12:23 GMT 50.468071 8.559092 25,800 124 455 1792
2022-05-13 10:12:20 GMT 50.471798 8.550333 25,650 123 454 1728
2022-05-13 10:12:17 GMT 50.474125 8.544839 25,400 122 453 1664
2022-05-13 10:12:14 GMT 50.477280 8.537244 25,425 122 453 1664
2022-05-13 10:12:11 GMT 50.483551 8.521704 25,450 122 453 1600
2022-05-13 10:12:09 GMT 50.483551 8.521704 25,350 122 451 1664
2022-05-13 10:12:06 GMT 50.485977 8.515633 25,375 122 451 1792
2022-05-13 10:12:03 GMT 50.490044 8.505496 25,175 122 452 1600
2022-05-13 10:12:01 GMT 50.493347 8.497347 25,150 122 451 1728
2022-05-13 10:11:58 GMT 50.495586 8.491689 25,075 122 451 1792
2022-05-13 10:11:56 GMT 50.501591 8.476769 24,725 122 450 1792
2022-05-13 10:11:53 GMT 50.501591 8.476769 24,875 122 449 1920
2022-05-13 10:11:51 GMT 50.503281 8.472483 24,875 122 450 1920
2022-05-13 10:11:49 GMT 50.506073 8.465616 24,800 122 449 1920
2022-05-13 10:11:47 GMT 50.508270 8.460051 24,750 122 448 2048
2022-05-13 10:11:45 GMT 50.511154 8.452895 24,700 122 448 2048
2022-05-13 10:11:42 GMT 50.513351 8.447402 24,525 122 449 2048
2022-05-13 10:11:40 GMT 50.515511 8.442028 24,525 122 448 2048
2022-05-13 10:11:38 GMT 50.518162 8.435422 24,350 122 448 2048
2022-05-13 10:11:35 GMT 50.522026 8.425771 24,075 122 448 2048
2022-05-13 10:11:32 GMT 50.524120 8.420501 24,275 122 448 2048
2022-05-13 10:11:30 GMT 50.526962 8.413375 24,125 122 448 1984
2022-05-13 10:11:27 GMT 50.530357 8.404838 24,075 122 448 1856
2022-05-13 10:11:25 GMT 50.531525 8.401939 22,175 121 424 2176
2022-05-13 10:11:22 GMT 50.536148 8.390374 23,225 121 444 1664
2022-05-13 10:11:18 GMT 50.542511 8.374401 23,775 122 447 1600
2022-05-13 10:11:15 GMT 50.545898 8.365872 23,700 121 446 1600
2022-05-13 10:11:13 GMT 50.545898 8.365872 23,675 121 445 1600
2022-05-13 10:11:11 GMT 50.547585 8.361635 23,625 121 445 1600
2022-05-13 10:11:09 GMT 50.549698 8.356331 23,575 121 444 1664
2022-05-13 10:11:07 GMT 50.551895 8.350838 23,525 121 444 1600
2022-05-13 10:11:05 GMT 50.554333 8.344710 23,475 121 444 1536
2022-05-13 10:11:01 GMT 50.558338 8.334615 23,325 121 442 1536
2022-05-13 10:10:58 GMT 50.561550 8.326449 23,225 121 442 1472
2022-05-13 10:10:56 GMT 50.563248 8.322216 23,200 121 440 1344
2022-05-13 10:10:54 GMT 50.565971 8.315314 23,150 121 440 1344
2022-05-13 10:10:51 GMT 50.568764 8.308262 23,150 121 439 1216
2022-05-13 10:10:48 GMT 50.574585 8.293713 23,075 121 437 1024
2022-05-13 10:10:46 GMT 50.577164 8.287088 22,825 121 433 1088
2022-05-13 10:10:44 GMT 50.577164 8.287088 22,825 121 434 1152
2022-05-13 10:10:41 GMT 50.579407 8.281451 22,925 121 434 1088
2022-05-13 10:10:39 GMT 50.582218 8.274412 22,900 121 433 1024
2022-05-13 10:10:37 GMT 50.583755 8.270537 22,850 121 432 1088
2022-05-13 10:10:35 GMT 50.585632 8.265694 22,650 121 429 1344
2022-05-13 10:10:32 GMT 50.589294 8.256597 22,775 121 429 1344
2022-05-13 10:10:30 GMT 50.591995 8.249693 22,725 121 428 1536
2022-05-13 10:10:27 GMT 50.595200 8.241625 22,625 121 427 1920
2022-05-13 10:10:25 GMT 50.598606 8.233065 22,500 122 427 2112
2022-05-13 10:10:23 GMT 50.601562 8.225580 22,450 122 427 2048
2022-05-13 10:10:20 GMT 50.601562 8.225580 22,450 122 427 2048
2022-05-13 10:10:17 GMT 50.606846 8.212280 22,025 121 426 2368
2022-05-13 10:10:13 GMT 50.609684 8.205228 22,150 121 426 2240
2022-05-13 10:10:10 GMT 50.612366 8.198547 22,050 121 427 2496
2022-05-13 10:10:07 GMT 50.615223 8.191273 22,000 121 426 2368
2022-05-13 10:10:05 GMT 50.617924 8.184443 21,800 121 427 2496
2022-05-13 10:10:01 GMT 50.621601 8.175239 21,675 121 427 2560
2022-05-13 10:09:59 GMT 50.623882 8.169448 21,500 121 427 2112
2022-05-13 10:09:56 GMT 50.626785 8.162191 21,400 121 426 1984
2022-05-13 10:09:54 GMT 50.632355 8.148070 21,275 121 427 2112
2022-05-13 10:09:51 GMT 50.634384 8.142965 21,100 121 427 2048
2022-05-13 10:09:49 GMT 50.634384 8.142965 21,100 121 427 2048
2022-05-13 10:09:46 GMT 50.637661 8.134634 21,100 121 427 1984
2022-05-13 10:09:44 GMT 50.639099 8.131112 20,925 121 426 1984
2022-05-13 10:09:41 GMT 50.642715 8.121932 20,925 121 426 1984
2022-05-13 10:09:39 GMT 50.643768 8.119258 20,925 121 426 1984
2022-05-13 10:09:37 GMT 50.646973 8.111163 20,750 121 424 2048
2022-05-13 10:09:35 GMT 50.648529 8.107187 20,750 121 424 2112
2022-05-13 10:09:33 GMT 50.651550 8.099598 20,650 121 424 2240
2022-05-13 10:09:30 GMT 50.654186 8.092915 20,550 121 424 2240
2022-05-13 10:09:27 GMT 50.658749 8.081409 20,425 121 423 2304
2022-05-13 10:09:25 GMT 50.658749 8.081409 20,400 121 423 2304
2022-05-13 10:09:23 GMT 50.661312 8.074877 20,275 121 423 2304
2022-05-13 10:09:20 GMT 50.667755 8.058544 20,125 121 423 2304
2022-05-13 10:09:17 GMT 50.667755 8.058544 20,050 121 423 2304
2022-05-13 10:09:14 GMT 50.669643 8.053721 19,675 121 422 2304
2022-05-13 10:09:12 GMT 50.672379 8.046743 19,800 121 422 2368
2022-05-13 10:09:09 GMT 50.674942 8.040285 19,775 121 422 2368
2022-05-13 10:09:07 GMT 50.679607 8.028336 19,450 121 422 2368
2022-05-13 10:09:05 GMT 50.679607 8.028336 19,600 121 422 2368
2022-05-13 10:09:03 GMT 50.681702 8.023148 19,450 121 422 2240
2022-05-13 10:09:00 GMT 50.688080 8.006880 19,300 121 422 2176
2022-05-13 10:08:57 GMT 50.688080 8.006880 19,200 121 419 1920
2022-05-13 10:08:54 GMT 50.690872 7.999828 19,150 121 421 1920
2022-05-13 10:08:50 GMT 50.696037 7.986679 19,000 121 419 1920
2022-05-13 10:08:47 GMT 50.698517 7.980380 18,900 121 417 1984
2022-05-13 10:08:45 GMT 50.703346 7.968063 18,875 121 418 1984
2022-05-13 10:08:43 GMT 50.703346 7.968063 18,800 121 417 1984
2022-05-13 10:08:40 GMT 50.705338 7.963009 18,675 121 417 1984
2022-05-13 10:08:38 GMT 50.707260 7.958110 18,350 121 416 1920
2022-05-13 10:08:35 GMT 50.710236 7.950516 18,525 121 414 1856
2022-05-13 10:08:32 GMT 50.713943 7.941111 18,175 121 410 2048
2022-05-13 10:08:29 GMT 50.716476 7.934570 18,400 121 410 2112
2022-05-13 10:08:26 GMT 50.718842 7.928566 18,325 121 411 1984
2022-05-13 10:08:24 GMT 50.721317 7.922287 18,225 121 411 1984
2022-05-13 10:08:22 GMT 50.723316 7.917252 18,100 122 409 0
2022-05-13 10:08:19 GMT 50.726437 7.909393 18,050 121 410 2112
2022-05-13 10:08:16 GMT 50.729324 7.901993 17,875 121 407 2176
2022-05-13 10:08:13 GMT 50.732536 7.893982 17,800 122 406 1856
2022-05-13 10:08:10 GMT 50.735687 7.886031 17,675 122 406 1856
2022-05-13 10:08:07 GMT 50.738571 7.878756 17,625 122 406 1920
2022-05-13 10:08:05 GMT 50.743801 7.865601 17,475 122 405 1856
2022-05-13 10:08:02 GMT 50.743801 7.865601 17,475 122 403 1728
2022-05-13 10:07:58 GMT 50.747620 7.856140 17,325 122 401 1856
2022-05-13 10:07:55 GMT 50.749668 7.850952 17,300 122 401 1920
2022-05-13 10:07:53 GMT 50.752625 7.843719 16,975 122 397 2304
2022-05-13 10:07:50 GMT 50.755859 7.835693 17,025 122 399 2176
2022-05-13 10:07:47 GMT 50.758419 7.829361 16,975 122 399 2176
2022-05-13 10:07:44 GMT 50.761414 7.821894 16,875 122 397 2240
2022-05-13 10:07:42 GMT 50.763821 7.815857 16,775 122 397 2304
2022-05-13 10:07:39 GMT 50.766724 7.808681 16,675 122 396 2432
2022-05-13 10:07:36 GMT 50.769127 7.802658 16,425 122 396 2496
2022-05-13 10:07:34 GMT 50.771034 7.797775 16,425 121 395 2560
2022-05-13 10:07:31 GMT 50.773457 7.791672 16,400 120 395 2560
2022-05-13 10:07:28 GMT 50.776806 7.782745 16,025 115 395 2432
2022-05-13 10:07:25 GMT 50.779037 7.776242 16,125 115 395 2432
2022-05-13 10:07:23 GMT 50.783340 7.760653 15,725 103 397 2496
2022-05-13 10:07:20 GMT 50.783340 7.760653 15,875 109 396 2496
2022-05-13 10:07:17 GMT 50.786118 7.745743 15,550 95 397 2368
2022-05-13 10:07:14 GMT 50.786118 7.745743 15,525 95 397 2432
2022-05-13 10:07:11 GMT 50.788025 7.726288 15,500 98 397 2432
2022-05-13 10:07:08 GMT 50.788025 7.726288 15,275 92 397 2304
2022-05-13 10:07:05 GMT 50.788239 7.719826 15,275 90 396 2240
2022-05-13 10:07:02 GMT 50.788284 7.710547 15,150 87 395 2240
2022-05-13 10:06:59 GMT 50.788071 7.703171 14,800 86 393 2304
2022-05-13 10:06:57 GMT 50.787827 7.695923 14,975 86 393 2304
2022-05-13 10:06:54 GMT 50.787231 7.681596 14,825 86 392 2304
2022-05-13 10:06:52 GMT 50.787231 7.681596 14,675 86 391 2240
2022-05-13 10:06:49 GMT 50.786407 7.658807 14,625 87 389 2048
2022-05-13 10:06:45 GMT 50.786407 7.658807 14,500 87 389 1920
2022-05-13 10:06:42 GMT 50.786304 7.654724 14,300 87 387 1792
2022-05-13 10:06:38 GMT 50.785931 7.643433 14,375 87 386 1728
2022-05-13 10:06:35 GMT 50.785606 7.633057 14,200 87 383 1856
2022-05-13 10:06:31 GMT 50.785141 7.615204 13,700 87 380 2304
2022-05-13 10:06:28 GMT 50.784851 7.605434 13,850 87 378 2752
2022-05-13 10:06:25 GMT 50.784851 7.605434 13,775 87 377 2944
2022-05-13 10:06:22 GMT 50.784676 7.598114 13,675 87 377 2880
2022-05-13 10:06:19 GMT 50.784443 7.590408 13,575 87 377 2944
2022-05-13 10:06:17 GMT 50.784302 7.585095 13,475 87 377 3072
2022-05-13 10:06:15 GMT 50.784164 7.578488 13,350 87 377 3008
2022-05-13 10:06:11 GMT 50.783890 7.568318 13,200 87 369 3008
2022-05-13 10:06:08 GMT 50.783661 7.559039 13,075 87 376 2432
2022-05-13 10:06:05 GMT 50.783371 7.547379 12,875 87 374 2112
2022-05-13 10:06:02 GMT 50.783279 7.543335 12,575 87 373 2176
2022-05-13 10:05:59 GMT 50.783047 7.533798 12,700 87 372 2432
2022-05-13 10:05:57 GMT 50.782951 7.529449 12,500 87 369 3008
2022-05-13 10:05:54 GMT 50.782719 7.518158 12,425 87 368 3072
2022-05-13 10:05:51 GMT 50.782578 7.512207 12,325 87 369 2944
2022-05-13 10:05:47 GMT 50.782288 7.501064 12,075 87 368 3072
2022-05-13 10:05:44 GMT 50.782162 7.495804 12,025 87 368 3072
2022-05-13 10:05:41 GMT 50.781967 7.487108 11,775 88 367 3008
2022-05-13 10:05:38 GMT 50.781788 7.478638 11,600 88 367 2944
2022-05-13 10:05:35 GMT 50.781647 7.470856 11,425 88 366 2752
2022-05-13 10:05:32 GMT 50.781464 7.462983 11,425 88 366 2752
2022-05-13 10:05:29 GMT 50.781281 7.453407 11,175 88 363 1984
2022-05-13 10:05:25 GMT 50.781090 7.444229 11,175 88 363 1984
2022-05-13 10:05:22 GMT 50.780869 7.433587 11,050 88 358 1408
2022-05-13 10:05:18 GMT 50.780685 7.424531 10,975 88 355 1216
2022-05-13 10:05:15 GMT 50.780548 7.417998 10,925 88 351 1024
2022-05-13 10:05:12 GMT 50.780411 7.410575 10,875 88 346 1024
2022-05-13 10:05:10 GMT 50.779999 7.393057 10,800 87 339 1088
2022-05-13 10:05:06 GMT 50.779999 7.393057 10,725 87 339 1088
2022-05-13 10:05:02 GMT 50.779835 7.384033 10,550 88 332 1344
2022-05-13 10:04:57 GMT 50.779415 7.364731 10,500 88 326 1792
2022-05-13 10:04:52 GMT 50.779312 7.358687 10,400 88 323 2368
2022-05-13 10:04:49 GMT 50.779182 7.353592 10,275 88 322 2688
2022-05-13 10:04:46 GMT 50.779041 7.345428 10,150 88 320 3136
2022-05-13 10:04:42 GMT 50.778809 7.330933 9,900 88 320 3072
2022-05-13 10:04:39 GMT 50.778809 7.330933 9,825 88 319 3008
2022-05-13 10:04:36 GMT 50.778622 7.322311 9,650 88 318 3072
2022-05-13 10:04:33 GMT 50.778534 7.317785 9,550 88 318 3072
2022-05-13 10:04:30 GMT 50.778343 7.307053 8,875 88 315 3072
2022-05-13 10:04:26 GMT 50.778252 7.301025 9,000 88 316 3136
2022-05-13 10:04:23 GMT 50.778065 7.293243 9,075 88 316 3136
2022-05-13 10:04:20 GMT 50.777969 7.287445 8,950 88 315 3072
2022-05-13 10:04:17 GMT 50.777847 7.280669 8,625 88 314 3008
2022-05-13 10:04:14 GMT 50.777645 7.271194 8,500 88 313 3008
2022-05-13 10:04:11 GMT 50.777527 7.265823 8,375 88 311 2944
2022-05-13 10:04:07 GMT 50.777321 7.256851 7,900 88 310 2880
2022-05-13 10:04:04 GMT 50.777225 7.250900 7,825 88 310 2880
2022-05-13 10:04:01 GMT 50.777039 7.243042 7,875 88 307 2816
2022-05-13 10:03:58 GMT 50.776852 7.234497 7,725 88 307 2816
2022-05-13 10:03:55 GMT 50.776436 7.214432 7,575 87 305 2688
2022-05-13 10:03:51 GMT 50.776436 7.214432 7,325 87 302 2624
2022-05-13 10:03:44 GMT 50.776245 7.206363 7,200 87 300 2560
2022-05-13 10:03:40 GMT 50.775970 7.196884 6,900 87 295 2112
2022-05-13 10:03:35 GMT 50.775688 7.187271 6,800 87 290 1536
2022-05-13 10:03:33 GMT 50.775513 7.180382 6,750 87 286 1280
2022-05-13 10:03:29 GMT 50.775330 7.174963 6,675 87 283 1152
2022-05-13 10:03:26 GMT 50.774872 7.160859 6,500 86 272 1408
2022-05-13 10:03:23 GMT 50.774757 7.156601 6,500 86 272 1408
2022-05-13 10:03:20 GMT 50.774757 7.156601 6,500 86 269 1472
2022-05-13 10:03:17 GMT 50.774525 7.150116 6,300 86 260 2112
2022-05-13 10:03:14 GMT 50.774292 7.144318 6,275 86 259 2240
2022-05-13 10:03:11 GMT 50.773968 7.136612 6,200 86 257 2368
2022-05-13 10:03:07 GMT 50.773781 7.130051 6,025 88 256 2880
2022-05-13 10:03:04 GMT 50.773727 7.125450 5,950 89 255 2816
2022-05-13 10:02:58 GMT 50.776382 7.103775 5,625 118 247 2304
2022-05-13 10:02:55 GMT 50.776657 7.102810 5,400 114 249 2432
2022-05-13 10:02:48 GMT 50.778351 7.097688 4,725 126 244 2752
2022-05-13 10:02:44 GMT 50.780777 7.092046 5,100 130 241 3008
2022-05-13 10:02:41 GMT 50.782974 7.088112 4,675 135 241 3520
2022-05-13 10:02:38 GMT 50.785885 7.083817 4,725 141 240 3840
2022-05-13 10:02:34 GMT 50.788879 7.080317 4,525 146 241 3712
2022-05-13 10:02:31 GMT 50.795197 7.074750 4,150 155 240 3520
2022-05-13 10:02:25 GMT 50.798779 7.072296 3,950 156 239 3264
2022-05-13 10:02:23 GMT 50.800369 7.071187 3,775 155 238 3072
2022-05-13 10:02:20 GMT 50.803528 7.068863 3,700 202 203 1792
2022-05-13 10:02:16 GMT 50.807579 7.065964 3,325 157 234 3328
2022-05-13 10:02:13 GMT 50.810371 7.064056 3,250 159 233 3072
2022-05-13 10:02:10 GMT 50.813324 7.062130 3,175 160 232 2688
2022-05-13 10:02:06 GMT 50.819687 7.059532 2,950 173 224 2048
2022-05-13 10:02:01 GMT 50.822521 7.059174 2,850 180 220 1792
2022-05-13 10:01:58 GMT 50.826599 7.059458 2,725 189 213 1600
2022-05-13 10:01:55 GMT 50.828667 7.060089 2,675 194 209 1600
2022-05-13 10:01:53 GMT 50.831406 7.061240 2,550 202 203 1856
2022-05-13 10:01:48 GMT 50.834610 7.063318 2,475 211 196 1600
2022-05-13 10:01:42 GMT 50.839188 7.067921 2,250 231 177 1152
2022-05-13 10:01:39 GMT 50.840881 7.070222 2,225 224 186 1472
2022-05-13 10:01:32 GMT 50.845001 7.077422 1,925 244 156 1408
2022-05-13 10:01:29 GMT 50.846191 7.080095 2,000 239 168 1216
2022-05-13 10:01:25 GMT 50.848160 7.085588 1,925 243 161 1536
2022-05-13 10:01:20 GMT 50.849895 7.090912 1,750 244 154 1280
2022-05-13 10:01:14 GMT 50.851429 7.095871 1,675 245 151 1728
2022-05-13 10:01:08 GMT 50.854614 7.106150 1,225 244 146 1984
2022-05-13 10:01:04 GMT 50.854614 7.106150 1,300 245 144 2496
2022-05-13 10:00:59 GMT 50.855900 7.110367 1,075 245 144 3072
2022-05-13 10:00:54 GMT 50.857544 7.115577 825 245 146 2688
2022-05-13 10:00:49 GMT 50.858879 7.119904 625 244 148 2560
2022-05-13 10:00:42 GMT 50.861206 7.127380 300 244 148 2240
2022-05-13 10:00:05 GMT 50.869171 7.153677 0 244 37
2022-05-13 09:59:47 GMT 50.869480 7.154675 0 241 0
2022-05-13 09:59:22 GMT 50.869537 7.154976 0 196 5
2022-05-13 09:59:18 GMT 50.869621 7.155056 0 171 7
2022-05-13 09:59:12 GMT 50.869823 7.154995 0 163 8
2022-05-13 09:59:09 GMT 50.869949 7.154920 0 157 8
2022-05-13 09:59:01 GMT 50.870167 7.154772 0 154 8
2022-05-13 09:58:58 GMT 50.870274 7.154694 0 154 7
2022-05-13 09:58:51 GMT 50.870422 7.154579 0 154 5
2022-05-13 09:58:25 GMT 50.870522 7.154512 0 154 0
2022-05-13 09:58:05 GMT 50.870518 7.154522 0 154 0
2022-05-13 09:57:45 GMT 50.870522 7.154512 0 154 0
2022-05-13 09:57:25 GMT 50.870522 7.154531 0 154 0
2022-05-13 09:56:45 GMT 50.870518 7.154522 0 154 0
2022-05-13 09:56:20 GMT 50.870522 7.154512 0 154 0
2022-05-13 09:56:04 GMT 50.870529 7.154522 0 154 0
2022-05-13 09:55:53 GMT 50.870522 7.154512 0 154 2
2022-05-13 09:55:49 GMT 50.870575 7.154484 0 154 5
2022-05-13 09:55:39 GMT 50.870911 7.154236 0 140 10
2022-05-13 09:55:34 GMT 50.871075 7.154026 0 92 8
2022-05-13 09:55:28 GMT 50.871086 7.153759 0 67 7
2022-05-13 09:55:23 GMT 50.871002 7.153436 0 64 11
We lost coverage of the aircraft here for a total of 158 minutes
2022-05-13 07:17:42 GMT 50.866364 7.138100 0 64 14 0
2022-05-13 07:17:36 GMT 50.866196 7.137550 0 64 14 0
2022-05-13 07:15:43 GMT 50.869259 7.153854 75 245 127 -512
2022-05-13 07:15:33 GMT 50.871681 7.161865 225 245 127 -704
2022-05-13 07:15:30 GMT 50.872284 7.163925 225 245 127 -704
2022-05-13 07:15:26 GMT 50.873428 7.167540 275 244 127 -640
2022-05-13 07:15:22 GMT 50.874344 7.170658 325 245 127 -768
2022-05-13 07:15:15 GMT 50.876175 7.176670 400 245 126 -704
2022-05-13 07:15:12 GMT 50.877033 7.179642 450 245 125 -640
2022-05-13 07:15:06 GMT 50.878475 7.184219 500 245 126 -640
2022-05-13 07:15:02 GMT 50.879425 7.187360 575 245 126 -768
2022-05-13 07:14:56 GMT 50.880852 7.192154 625 245 125 -640
2022-05-13 07:14:53 GMT 50.882015 7.196045 675 245 125 -576
2022-05-13 07:14:45 GMT 50.883553 7.201080 725 245 125 -704
2022-05-13 07:14:42 GMT 50.884438 7.203903 800 245 126 -704
2022-05-13 07:14:36 GMT 50.886066 7.209320 850 245 127 -576
2022-05-13 07:14:32 GMT 50.888348 7.216797 925 245 125 -576
2022-05-13 07:14:27 GMT 50.888348 7.216797 975 245 126 -768
2022-05-13 07:14:24 GMT 50.888992 7.218983 975 245 126 -768
2022-05-13 07:14:21 GMT 50.889744 7.221451 1,000 245 127 -640
2022-05-13 07:14:17 GMT 50.890823 7.225070 1,050 245 128 -704
2022-05-13 07:14:12 GMT 50.892162 7.229538 1,125 246 128 -576
2022-05-13 07:14:05 GMT 50.893661 7.234646 1,175 245 130 -768
2022-05-13 07:14:00 GMT 50.894989 7.239174 1,250 245 130 -832
2022-05-13 07:13:56 GMT 50.896408 7.243850 1,325 244 127 -640
2022-05-13 07:13:51 GMT 50.897507 7.247339 1,375 245 126 -704
2022-05-13 07:13:45 GMT 50.898834 7.251793 1,425 245 127 -768
2022-05-13 07:13:40 GMT 50.900078 7.255936 1,475 245 127 -576
2022-05-13 07:13:35 GMT 50.901443 7.260330 1,525 245 130 -640
2022-05-13 07:13:31 GMT 50.902679 7.264413 1,600 245 133 -896
2022-05-13 07:13:25 GMT 50.904079 7.268982 1,675 245 133 -704
2022-05-13 07:13:21 GMT 50.905338 7.273254 1,725 245 135 -768
2022-05-13 07:13:18 GMT 50.906876 7.278366 1,800 246 137 -640
2022-05-13 07:13:15 GMT 50.906876 7.278366 1,800 245 139 -576
2022-05-13 07:13:11 GMT 50.907944 7.281952 1,850 246 140 -640
2022-05-13 07:13:08 GMT 50.908722 7.284678 1,875 245 137 -384
2022-05-13 07:13:05 GMT 50.910782 7.291359 1,925 244 136 -320
2022-05-13 07:13:01 GMT 50.910782 7.291359 1,950 246 138 -512
2022-05-13 07:12:58 GMT 50.911469 7.293734 1,950 246 138 -512
2022-05-13 07:12:55 GMT 50.912292 7.296629 2,000 246 140 -768
2022-05-13 07:12:50 GMT 50.914032 7.302642 2,075 246 141 -576
2022-05-13 07:12:45 GMT 50.915115 7.306595 2,125 248 143 -832
2022-05-13 07:12:39 GMT 50.916603 7.312088 2,200 248 146 -1024
2022-05-13 07:12:36 GMT 50.917210 7.314453 2,400 248 146 -1024
2022-05-13 07:12:33 GMT 50.918140 7.317886 2,300 251 149 -1216
2022-05-13 07:12:30 GMT 50.919800 7.324986 2,375 251 149 -1216
2022-05-13 07:12:27 GMT 50.919800 7.324986 2,525 253 149 -1152
2022-05-13 07:12:24 GMT 50.920212 7.327213 2,750 259 144 -1536
2022-05-13 07:12:19 GMT 50.920979 7.332382 2,800 261 144 -1344
2022-05-13 07:12:15 GMT 50.921444 7.337570 2,725 267 145 -1088
2022-05-13 07:12:12 GMT 50.921539 7.339684 2,750 269 145 -832
2022-05-13 07:12:07 GMT 50.921631 7.348251 2,825 270 146 -128
2022-05-13 07:12:04 GMT 50.921631 7.348251 2,825 270 147 -64
2022-05-13 07:12:00 GMT 50.921677 7.352371 2,825 270 147 64
2022-05-13 07:11:57 GMT 50.921677 7.355272 2,825 271 149 -128
2022-05-13 07:11:54 GMT 50.921677 7.359133 2,850 275 197 -1408
2022-05-13 07:11:50 GMT 50.921631 7.364180 2,825 273 151 64
2022-05-13 07:11:47 GMT 50.921539 7.366407 2,800 276 156 0
2022-05-13 07:11:44 GMT 50.921352 7.370529 2,800 276 164 128
2022-05-13 07:11:37 GMT 50.920746 7.381363 3,850 276 168 -256
2022-05-13 07:11:34 GMT 50.920746 7.381363 2,800 276 168 -128
2022-05-13 07:11:31 GMT 50.920513 7.385178 2,825 276 179 -448
2022-05-13 07:11:27 GMT 50.920029 7.393873 2,825 275 173 -256
2022-05-13 07:11:24 GMT 50.919678 7.400360 2,875 276 175 -320
2022-05-13 07:11:19 GMT 50.919678 7.400360 2,850 276 178 -384
2022-05-13 07:11:16 GMT 50.919479 7.403820 2,875 276 180 -576
2022-05-13 07:11:12 GMT 50.919159 7.408868 3,050 276 186 -960
2022-05-13 07:11:08 GMT 50.918743 7.415543 3,000 276 187 -896
2022-05-13 07:11:05 GMT 50.918556 7.419052 3,025 276 188 -896
2022-05-13 07:11:02 GMT 50.917831 7.431137 3,500 276 192 -960
2022-05-13 07:10:57 GMT 50.917831 7.431137 3,175 275 195 -1088
2022-05-13 07:10:54 GMT 50.917648 7.434849 3,225 275 196 -1216
2022-05-13 07:10:46 GMT 50.916977 7.446823 3,525 275 200 -1472
2022-05-13 07:10:43 GMT 50.916790 7.450790 4,150 275 204 -1600
2022-05-13 07:10:39 GMT 50.916416 7.457428 3,575 275 202 -1472
2022-05-13 07:10:35 GMT 50.916138 7.462241 3,650 275 203 -1536
2022-05-13 07:10:32 GMT 50.915955 7.466101 3,725 275 204 -1664
2022-05-13 07:10:29 GMT 50.915634 7.471891 3,950 275 205 -1664
2022-05-13 07:10:26 GMT 50.915451 7.475454 3,950 275 205 -1664
2022-05-13 07:10:23 GMT 50.915253 7.479630 4,000 275 205 -1536
2022-05-13 07:10:20 GMT 50.914974 7.484589 4,325 275 207 -1408
2022-05-13 07:10:17 GMT 50.914742 7.489090 4,125 275 207 -1280
2022-05-13 07:10:14 GMT 50.914555 7.493057 4,175 275 210 -960
2022-05-13 07:10:11 GMT 50.914276 7.498398 4,225 275 213 -704
2022-05-13 07:10:06 GMT 50.913578 7.510834 4,325 276 221 -704
2022-05-13 07:10:03 GMT 50.913578 7.510834 4,325 276 221 -704
2022-05-13 07:10:00 GMT 50.913300 7.515613 4,350 278 226 -1280
2022-05-13 07:09:57 GMT 50.912971 7.520752 4,425 277 225 -1344
2022-05-13 07:09:54 GMT 50.912567 7.526006 4,475 279 227 -1216
2022-05-13 07:09:51 GMT 50.912182 7.530365 4,525 280 227 -1152
2022-05-13 07:09:47 GMT 50.911423 7.537363 4,625 281 230 -832
2022-05-13 07:09:44 GMT 50.910831 7.542419 4,625 281 230 -832
2022-05-13 07:09:40 GMT 50.909946 7.549286 4,700 282 236 -704
2022-05-13 07:09:37 GMT 50.909203 7.555008 6,050 282 236 -704
2022-05-13 07:09:34 GMT 50.908504 7.560577 4,925 282 245 -1664
2022-05-13 07:09:30 GMT 50.907898 7.565052 4,800 282 238 -832
2022-05-13 07:09:27 GMT 50.907013 7.572174 4,875 282 244 -1408
2022-05-13 07:09:24 GMT 50.905655 7.582719 4,925 282 242 -1088
2022-05-13 07:09:20 GMT 50.905655 7.582719 4,950 282 243 -1152
2022-05-13 07:09:17 GMT 50.904964 7.587891 5,050 282 244 -1472
2022-05-13 07:09:14 GMT 50.904236 7.593705 5,125 282 245 -1536
2022-05-13 07:09:11 GMT 50.903522 7.599258 5,175 282 245 -1536
2022-05-13 07:09:08 GMT 50.902817 7.604618 5,275 282 244 -2048
2022-05-13 07:09:05 GMT 50.902222 7.608849 5,375 283 242 -2304
2022-05-13 07:09:02 GMT 50.901428 7.614822 5,475 283 242 -2368
2022-05-13 07:08:58 GMT 50.900730 7.620163 5,700 283 238 -2944
2022-05-13 07:08:55 GMT 50.899891 7.626190 5,875 283 236 -3072
2022-05-13 07:08:52 GMT 50.899101 7.631760 6,000 283 233 -2240
2022-05-13 07:08:49 GMT 50.898560 7.635647 6,000 283 233 -2240
2022-05-13 07:08:46 GMT 50.897751 7.641602 6,350 283 235 -1600
2022-05-13 07:08:43 GMT 50.897003 7.646707 6,375 283 235 -1536
2022-05-13 07:08:40 GMT 50.896168 7.652817 6,450 283 236 -1664
2022-05-13 07:08:36 GMT 50.895493 7.657471 6,525 283 237 -2176
2022-05-13 07:08:33 GMT 50.894772 7.662811 6,600 283 237 -2240
2022-05-13 07:08:29 GMT 50.893700 7.670670 6,800 283 240 -1600
2022-05-13 07:08:25 GMT 50.892838 7.677068 6,850 283 241 -1408
2022-05-13 07:08:22 GMT 50.891876 7.683897 6,925 282 246 -896
2022-05-13 07:08:19 GMT 50.891418 7.687454 7,150 289 277 -2048
2022-05-13 07:08:16 GMT 50.890732 7.692657 7,150 289 277 -2048
2022-05-13 07:08:13 GMT 50.889046 7.705154 7,025 283 255 -576
2022-05-13 07:08:09 GMT 50.889046 7.705154 7,075 283 257 -704
2022-05-13 07:08:06 GMT 50.888252 7.710800 7,075 283 257 -704
2022-05-13 07:08:02 GMT 50.887299 7.718044 7,125 283 258 -704
2022-05-13 07:08:00 GMT 50.886532 7.723694 7,150 283 265 -640
2022-05-13 07:07:56 GMT 50.885605 7.730144 7,200 283 265 -640
2022-05-13 07:07:53 GMT 50.884872 7.735414 7,225 285 274 -1024
2022-05-13 07:07:49 GMT 50.883598 7.744446 7,350 285 274 -1024
2022-05-13 07:07:46 GMT 50.882034 7.754715 7,350 285 274 -1024
2022-05-13 07:07:43 GMT 50.882034 7.754715 7,350 285 274 -1024
2022-05-13 07:07:41 GMT 50.881504 7.757950 7,375 285 274 -1024
2022-05-13 07:07:40 GMT 50.881210 7.759762 7,400 285 274 -1024
2022-05-13 07:07:38 GMT 50.879333 7.770006 7,500 288 276 -1856
2022-05-13 07:07:35 GMT 50.879333 7.770006 7,625 288 276 -1856
2022-05-13 07:07:32 GMT 50.878197 7.775650 7,625 288 276 -1856
2022-05-13 07:07:31 GMT 50.877964 7.776871 7,650 289 276 -1856
2022-05-13 07:07:30 GMT 50.877228 7.780399 7,700 289 276 -1856
2022-05-13 07:07:29 GMT 50.876846 7.782211 7,725 289 276 -1920
2022-05-13 07:07:28 GMT 50.876431 7.784119 7,750 289 276 -1920
2022-05-13 07:07:26 GMT 50.874985 7.790833 7,875 289 277 -1984
2022-05-13 07:07:24 GMT 50.874985 7.790833 8,075 289 277 -2048
2022-05-13 07:07:21 GMT 50.873356 7.798538 8,075 289 277 -2048
2022-05-13 07:07:18 GMT 50.872284 7.803497 8,100 289 277 -2048
2022-05-13 07:07:16 GMT 50.871506 7.807271 8,150 289 277 -2048
2022-05-13 07:07:14 GMT 50.870842 7.810440 8,425 289 277 -2048
2022-05-13 07:07:11 GMT 50.869812 7.815362 8,425 289 277 -2048
2022-05-13 07:07:08 GMT 50.868713 7.820707 8,425 289 276 -1984
2022-05-13 07:07:07 GMT 50.868282 7.822723 8,450 289 276 -1984
2022-05-13 07:07:06 GMT 50.867538 7.826385 8,500 289 276 -1920
2022-05-13 07:07:04 GMT 50.867111 7.828427 8,525 289 276 -1856
2022-05-13 07:07:03 GMT 50.866699 7.830429 8,575 289 277 -1792
2022-05-13 07:07:00 GMT 50.865417 7.836444 8,800 289 277 -1664
2022-05-13 07:06:57 GMT 50.864231 7.842178 8,800 289 278 -1664
2022-05-13 07:06:54 GMT 50.863068 7.847748 8,825 289 278 -1728
2022-05-13 07:06:52 GMT 50.862324 7.851410 8,875 289 280 -1792
2022-05-13 07:06:51 GMT 50.861893 7.853517 8,900 289 280 -1792
2022-05-13 07:06:49 GMT 50.860840 7.858565 8,975 289 280 -1792
2022-05-13 07:06:47 GMT 50.860428 7.860495 9,000 289 280 -1856
2022-05-13 07:06:46 GMT 50.859833 7.863390 9,050 289 280 -1920
2022-05-13 07:06:44 GMT 50.858871 7.867844 9,200 289 280 -2176
2022-05-13 07:06:42 GMT 50.857716 7.873383 9,225 289 280 -2176
2022-05-13 07:06:40 GMT 50.857269 7.875416 9,250 289 280 -2240
2022-05-13 07:06:38 GMT 50.856400 7.879498 9,325 289 280 -2240
2022-05-13 07:06:36 GMT 50.855850 7.882245 9,400 289 279 -2240
2022-05-13 07:06:35 GMT 50.855202 7.885208 9,425 289 279 -2112
2022-05-13 07:06:32 GMT 50.853851 7.891388 9,550 289 279 -1856
2022-05-13 07:06:30 GMT 50.853058 7.895279 9,600 289 280 -1536
2022-05-13 07:06:29 GMT 50.852554 7.897537 9,700 289 280 -1536
2022-05-13 07:06:27 GMT 50.850826 7.905579 9,775 289 280 -1536
2022-05-13 07:06:25 GMT 50.850826 7.905579 9,775 289 280 -1472
2022-05-13 07:06:23 GMT 50.850407 7.907715 9,775 289 280 -1472
2022-05-13 07:06:22 GMT 50.849762 7.910527 9,800 289 280 -1344
2022-05-13 07:06:19 GMT 50.848663 7.915798 9,900 289 282 -576
2022-05-13 07:06:17 GMT 50.847565 7.921068 9,900 289 282 -576
2022-05-13 07:06:15 GMT 50.846741 7.924928 9,950 289 282 -576
2022-05-13 07:06:13 GMT 50.845963 7.928640 9,950 289 282 -576
2022-05-13 07:06:12 GMT 50.845551 7.930644 9,975 289 282 -512
2022-05-13 07:06:10 GMT 50.844307 7.936401 10,000 289 283 -192
2022-05-13 07:06:07 GMT 50.843399 7.940591 10,000 289 283 -64
2022-05-13 07:06:06 GMT 50.842213 7.946396 10,000 289 284 0
2022-05-13 07:06:04 GMT 50.842213 7.946396 10,000 289 284 0
2022-05-13 07:06:01 GMT 50.841003 7.952118 10,000 289 284 0
2022-05-13 07:06:00 GMT 50.840538 7.954330 10,000 289 284 0
2022-05-13 07:05:58 GMT 50.839920 7.957145 10,000 289 284 0
2022-05-13 07:05:57 GMT 50.839279 7.960337 10,000 289 283 0
2022-05-13 07:05:55 GMT 50.838627 7.963181 10,000 289 283 0
2022-05-13 07:05:53 GMT 50.837605 7.968063 10,000 289 283 0
2022-05-13 07:05:52 GMT 50.836395 7.973785 10,000 289 283 0
2022-05-13 07:05:50 GMT 50.836395 7.973785 10,000 289 283 0
2022-05-13 07:05:48 GMT 50.835323 7.978668 10,000 289 283 0
2022-05-13 07:05:46 GMT 50.834930 7.980528 10,000 289 283 -64
2022-05-13 07:05:45 GMT 50.834152 7.984314 10,000 289 283 -64
2022-05-13 07:05:41 GMT 50.832596 7.991514 10,000 289 283 -64
2022-05-13 07:05:38 GMT 50.831497 7.996636 10,000 289 283 -64
2022-05-13 07:05:37 GMT 50.830853 7.999649 10,025 289 283 -64
2022-05-13 07:05:35 GMT 50.830490 8.001313 10,025 289 283 0
2022-05-13 07:05:33 GMT 50.829575 8.005619 10,000 289 283 0
2022-05-13 07:05:31 GMT 50.827927 8.013264 10,025 289 283 0
2022-05-13 07:05:29 GMT 50.827927 8.013264 10,025 289 283 0
2022-05-13 07:05:27 GMT 50.827057 8.017347 10,000 289 283 64
2022-05-13 07:05:25 GMT 50.826244 8.021164 10,000 289 283 64
2022-05-13 07:05:24 GMT 50.825821 8.023212 10,000 289 283 64
2022-05-13 07:05:22 GMT 50.824905 8.027294 10,000 289 283 64
2022-05-13 07:05:21 GMT 50.824539 8.029076 10,000 289 283 64
2022-05-13 07:05:19 GMT 50.823715 8.032936 10,000 289 283 64
2022-05-13 07:05:18 GMT 50.823166 8.035534 10,000 289 283 64
2022-05-13 07:05:16 GMT 50.822289 8.039551 10,000 289 283 64
2022-05-13 07:05:13 GMT 50.820969 8.045704 10,000 289 282 0
2022-05-13 07:05:11 GMT 50.819962 8.050461 10,000 289 283 0
2022-05-13 07:05:09 GMT 50.817993 8.059585 10,000 289 284 -64
2022-05-13 07:05:06 GMT 50.816071 8.068716 10,000 289 284 -64
2022-05-13 07:05:02 GMT 50.816071 8.068716 10,000 289 284 -64
2022-05-13 07:05:00 GMT 50.815704 8.070423 10,000 289 284 -64
2022-05-13 07:04:57 GMT 50.814327 8.077087 10,000 289 284 0
2022-05-13 07:04:55 GMT 50.813442 8.081207 10,000 289 284 0
2022-05-13 07:04:54 GMT 50.813004 8.083265 10,000 289 284 0
2022-05-13 07:04:53 GMT 50.812729 8.084453 10,000 289 284 0
2022-05-13 07:04:51 GMT 50.811859 8.088455 10,000 289 284 0
2022-05-13 07:04:50 GMT 50.811493 8.090391 10,000 289 284 0
2022-05-13 07:04:49 GMT 50.810883 8.093185 10,000 289 284 0
2022-05-13 07:04:48 GMT 50.810532 8.094920 10,000 289 284 0
2022-05-13 07:04:46 GMT 50.809673 8.098907 10,000 289 284 0
2022-05-13 07:04:45 GMT 50.809250 8.100784 10,000 289 284 0
2022-05-13 07:04:44 GMT 50.808884 8.102565 10,000 289 284 0
2022-05-13 07:04:42 GMT 50.807968 8.106871 10,000 289 284 0
2022-05-13 07:04:41 GMT 50.807529 8.108978 10,000 289 284 0
2022-05-13 07:04:40 GMT 50.807144 8.110805 10,000 289 284 0
2022-05-13 07:04:38 GMT 50.806320 8.114739 10,000 289 284 -64
2022-05-13 07:04:37 GMT 50.805954 8.116521 10,000 289 284 -64
2022-05-13 07:04:34 GMT 50.804764 8.122014 10,000 289 284 -64
2022-05-13 07:04:32 GMT 50.803711 8.126914 10,000 289 284 0
2022-05-13 07:04:30 GMT 50.803070 8.129883 10,000 289 284 -64
2022-05-13 07:04:29 GMT 50.802658 8.131887 10,000 289 285 -64
2022-05-13 07:04:28 GMT 50.802246 8.133817 10,000 289 285 -64
2022-05-13 07:04:27 GMT 50.801105 8.139038 10,000 289 285 -64
2022-05-13 07:04:24 GMT 50.800453 8.142014 10,000 289 284 0
2022-05-13 07:04:23 GMT 50.799992 8.144150 10,000 289 284 0
2022-05-13 07:04:22 GMT 50.799107 8.148270 10,000 290 284 0
2022-05-13 07:04:20 GMT 50.798641 8.150406 10,000 290 284 0
2022-05-13 07:04:19 GMT 50.798172 8.152449 10,000 290 284 0
2022-05-13 07:04:16 GMT 50.797104 8.157501 10,000 290 284 0
2022-05-13 07:04:14 GMT 50.796219 8.161392 10,000 290 284 0
2022-05-13 07:04:12 GMT 50.795288 8.165663 10,000 290 284 64
2022-05-13 07:04:11 GMT 50.794868 8.167725 10,000 290 284 64
2022-05-13 07:04:09 GMT 50.794125 8.171005 10,000 290 284 64
2022-05-13 07:04:08 GMT 50.793503 8.173902 10,000 290 285 64
2022-05-13 07:04:06 GMT 50.792820 8.176956 10,000 290 285 64
2022-05-13 07:04:05 GMT 50.792168 8.179855 10,000 290 285 64
2022-05-13 07:04:04 GMT 50.791752 8.181839 9,975 290 285 64
2022-05-13 07:04:03 GMT 50.791351 8.183701 9,975 289 286 64
2022-05-13 07:04:01 GMT 50.790306 8.188553 9,975 289 286 64
2022-05-13 07:03:59 GMT 50.789608 8.191681 9,975 289 286 0
2022-05-13 07:03:57 GMT 50.788773 8.195419 9,975 290 286 64
2022-05-13 07:03:56 GMT 50.788303 8.197632 9,975 289 286 64
2022-05-13 07:03:54 GMT 50.787514 8.201141 9,975 289 286 64
2022-05-13 07:03:53 GMT 50.787048 8.203447 9,975 289 286 0
2022-05-13 07:03:51 GMT 50.786179 8.207381 9,975 290 285 0
2022-05-13 07:03:50 GMT 50.785080 8.212503 9,975 290 285 0
2022-05-13 07:03:47 GMT 50.784676 8.214417 9,975 290 285 0
2022-05-13 07:03:46 GMT 50.783649 8.219147 9,975 289 284 0
2022-05-13 07:03:43 GMT 50.781921 8.227052 10,000 289 284 -64
2022-05-13 07:03:41 GMT 50.781921 8.227052 10,000 289 283 -64
2022-05-13 07:03:39 GMT 50.781277 8.229904 10,000 289 283 -64
2022-05-13 07:03:38 GMT 50.780437 8.233795 10,000 289 282 -128
2022-05-13 07:03:36 GMT 50.780067 8.235550 10,025 289 278 0
2022-05-13 07:03:34 GMT 50.778996 8.240585 10,025 289 278 -256
2022-05-13 07:03:32 GMT 50.777924 8.245544 10,025 289 277 -256
2022-05-13 07:03:30 GMT 50.777298 8.248505 10,050 289 275 -384
2022-05-13 07:03:27 GMT 50.776474 8.252366 10,075 289 275 -384
2022-05-13 07:03:25 GMT 50.775238 8.258007 10,075 289 271 -1024
2022-05-13 07:03:23 GMT 50.774433 8.261719 10,100 289 271 -1024
2022-05-13 07:03:21 GMT 50.773224 8.267435 10,150 289 271 -1024
2022-05-13 07:03:18 GMT 50.772572 8.270569 10,200 289 269 -1216
2022-05-13 07:03:16 GMT 50.771759 8.274190 10,225 289 268 -1344
2022-05-13 07:03:12 GMT 50.770248 8.281390 10,350 289 264 -1600
2022-05-13 07:03:11 GMT 50.768967 8.287403 10,525 289 262 -1984
2022-05-13 07:03:09 GMT 50.768967 8.287403 10,525 289 262 -1984
2022-05-13 07:03:06 GMT 50.767731 8.293076 10,525 289 257 -2688
2022-05-13 07:03:05 GMT 50.767311 8.295059 10,575 289 257 -2688
2022-05-13 07:03:04 GMT 50.766907 8.296905 10,600 289 257 -2688
2022-05-13 07:03:03 GMT 50.766586 8.298538 10,650 289 257 -2688
2022-05-13 07:03:01 GMT 50.765900 8.301581 10,800 289 256 -2496
2022-05-13 07:02:59 GMT 50.765030 8.305740 10,800 290 254 -1792
2022-05-13 07:02:58 GMT 50.764572 8.307743 10,850 290 254 -1792
2022-05-13 07:02:56 GMT 50.763931 8.310563 10,925 290 254 -1600
2022-05-13 07:02:54 GMT 50.763199 8.314052 10,950 290 254 -832
2022-05-13 07:02:52 GMT 50.762470 8.317337 10,975 290 254 -512
2022-05-13 07:02:51 GMT 50.762096 8.319092 11,000 290 255 -384
2022-05-13 07:02:49 GMT 50.761185 8.323183 11,000 290 256 -320
2022-05-13 07:02:47 GMT 50.759163 8.332520 11,000 290 257 -128
2022-05-13 07:02:44 GMT 50.759163 8.332520 11,000 289 258 -128
2022-05-13 07:02:43 GMT 50.758743 8.334274 11,000 289 258 -128
2022-05-13 07:02:40 GMT 50.757660 8.339365 11,025 290 259 -64
2022-05-13 07:02:39 GMT 50.757301 8.341064 11,025 290 259 -64
2022-05-13 07:02:37 GMT 50.756512 8.344574 11,025 290 260 0
2022-05-13 07:02:36 GMT 50.756104 8.346269 11,025 290 260 0
2022-05-13 07:02:35 GMT 50.755718 8.348160 11,025 290 260 64
2022-05-13 07:02:32 GMT 50.754456 8.353841 11,025 290 262 64
2022-05-13 07:02:29 GMT 50.753483 8.358231 11,000 290 262 64
2022-05-13 07:02:28 GMT 50.752945 8.360670 11,000 290 263 64
2022-05-13 07:02:27 GMT 50.752213 8.364159 11,000 290 264 64
2022-05-13 07:02:24 GMT 50.751434 8.367767 11,000 290 269 64
2022-05-13 07:02:21 GMT 50.750198 8.373364 11,000 290 272 64
2022-05-13 07:02:20 GMT 50.749573 8.376083 11,000 290 272 64
2022-05-13 07:02:18 GMT 50.748920 8.379059 11,000 290 274 128
2022-05-13 07:02:17 GMT 50.748459 8.381195 11,000 289 277 128
2022-05-13 07:02:16 GMT 50.748039 8.383102 10,975 289 277 128
2022-05-13 07:02:14 GMT 50.747154 8.387070 10,975 290 279 192
2022-05-13 07:02:13 GMT 50.746719 8.389101 10,975 290 281 128
2022-05-13 07:02:12 GMT 50.746223 8.391342 10,975 290 281 128
2022-05-13 07:02:11 GMT 50.745346 8.395559 10,975 289 288 128
2022-05-13 07:02:08 GMT 50.744247 8.400458 10,950 289 288 128
2022-05-13 07:02:06 GMT 50.743149 8.405533 10,950 289 289 64
2022-05-13 07:02:04 GMT 50.743149 8.405533 10,950 289 292 -128
2022-05-13 07:02:02 GMT 50.742233 8.409886 10,975 289 293 -256
2022-05-13 07:02:00 GMT 50.741287 8.414230 10,975 289 294 -448
2022-05-13 07:01:58 GMT 50.740585 8.417383 11,000 289 296 -512
2022-05-13 07:01:57 GMT 50.740215 8.419113 11,050 289 297 -768
2022-05-13 07:01:55 GMT 50.739101 8.424225 11,050 289 298 -960
2022-05-13 07:01:54 GMT 50.738617 8.426439 11,075 289 300 -1152
2022-05-13 07:01:51 GMT 50.737331 8.432541 11,150 289 301 -1408
2022-05-13 07:01:49 GMT 50.736603 8.435793 11,250 289 302 -1472
2022-05-13 07:01:47 GMT 50.735321 8.441805 11,250 289 302 -1728
2022-05-13 07:01:46 GMT 50.734909 8.443756 11,275 289 302 -1856
2022-05-13 07:01:45 GMT 50.733490 8.450342 11,350 289 302 -2048
2022-05-13 07:01:43 GMT 50.733490 8.450342 11,375 289 302 -2048
2022-05-13 07:01:41 GMT 50.732582 8.454590 11,450 289 302 -2112
2022-05-13 07:01:40 GMT 50.732162 8.456578 11,500 289 301 -2240
2022-05-13 07:01:38 GMT 50.731464 8.459778 11,550 289 301 -2240
2022-05-13 07:01:37 GMT 50.730812 8.462677 11,600 289 301 -2496
2022-05-13 07:01:35 GMT 50.730068 8.466034 11,675 289 301 -2624
2022-05-13 07:01:33 GMT 50.729004 8.471053 11,775 289 301 -2560
2022-05-13 07:01:31 GMT 50.728111 8.475113 11,850 290 301 -2432
2022-05-13 07:01:29 GMT 50.727413 8.478241 11,950 290 302 -2432
2022-05-13 07:01:28 GMT 50.726997 8.480148 11,950 290 302 -2432
2022-05-13 07:01:27 GMT 50.726074 8.484415 12,050 290 304 -2368
2022-05-13 07:01:24 GMT 50.725113 8.488794 12,200 290 304 -2368
2022-05-13 07:01:22 GMT 50.724197 8.492951 12,200 290 304 -2368
2022-05-13 07:01:21 GMT 50.723644 8.495331 12,250 290 305 -2368
2022-05-13 07:01:20 GMT 50.723179 8.497467 12,300 290 305 -2368
2022-05-13 07:01:17 GMT 50.721970 8.502960 12,400 290 305 -2368
2022-05-13 07:01:16 GMT 50.721588 8.504754 12,425 290 305 -2368
2022-05-13 07:01:15 GMT 50.720943 8.507538 12,525 290 307 -2432
2022-05-13 07:01:13 GMT 50.719967 8.511963 12,625 290 308 -2496
2022-05-13 07:01:11 GMT 50.718990 8.516464 12,650 290 308 -2560
2022-05-13 07:01:09 GMT 50.718063 8.520566 12,825 290 308 -2624
2022-05-13 07:01:07 GMT 50.717102 8.525019 12,825 290 309 -2688
2022-05-13 07:01:05 GMT 50.715500 8.532220 12,975 290 309 -2624
2022-05-13 07:01:03 GMT 50.715218 8.533401 13,000 290 310 -2560
2022-05-13 07:01:02 GMT 50.714615 8.536148 13,050 290 310 -2560
2022-05-13 07:01:00 GMT 50.713669 8.540534 13,150 290 311 -2496
2022-05-13 07:00:58 GMT 50.712936 8.543854 13,200 290 311 -2496
2022-05-13 07:00:57 GMT 50.711700 8.549516 13,325 290 312 -2496
2022-05-13 07:00:54 GMT 50.711014 8.552560 13,375 290 312 -2496
2022-05-13 07:00:52 GMT 50.710052 8.557013 13,450 290 313 -2496
2022-05-13 07:00:51 GMT 50.709595 8.558943 13,525 290 313 -2496
2022-05-13 07:00:49 GMT 50.707630 8.568115 13,675 290 313 -2560
2022-05-13 07:00:47 GMT 50.707630 8.568115 13,675 290 313 -2560
2022-05-13 07:00:45 GMT 50.705769 8.576508 13,850 289 314 -2560
2022-05-13 07:00:43 GMT 50.705769 8.576508 13,850 289 314 -2496
2022-05-13 07:00:41 GMT 50.704880 8.580768 13,925 289 314 -2496
2022-05-13 07:00:39 GMT 50.703953 8.584976 14,000 289 314 -2496
2022-05-13 07:00:38 GMT 50.703461 8.587226 14,025 290 315 -2496
2022-05-13 07:00:37 GMT 50.702881 8.589706 14,100 290 315 -2496
2022-05-13 07:00:36 GMT 50.702637 8.590937 14,125 290 315 -2560
2022-05-13 07:00:33 GMT 50.701252 8.597336 14,250 290 316 -2816
2022-05-13 07:00:30 GMT 50.699902 8.603439 14,400 290 315 -3008
2022-05-13 07:00:29 GMT 50.699387 8.605710 14,450 290 315 -3072
2022-05-13 07:00:28 GMT 50.698242 8.610906 14,575 290 314 -3264
2022-05-13 07:00:27 GMT 50.697739 8.613281 14,625 290 314 -3264
2022-05-13 07:00:25 GMT 50.697205 8.615723 14,700 290 314 -3264
2022-05-13 07:00:24 GMT 50.696037 8.620987 14,950 290 314 -3136
2022-05-13 07:00:21 GMT 50.695339 8.624191 14,900 290 314 -3008
2022-05-13 07:00:20 GMT 50.694855 8.626272 14,950 290 314 -2880
2022-05-13 07:00:18 GMT 50.693802 8.631245 15,050 290 315 -2688
2022-05-13 07:00:16 GMT 50.692360 8.637619 15,175 290 315 -2624
2022-05-13 07:00:14 GMT 50.691879 8.639856 15,225 290 315 -2752
2022-05-13 07:00:13 GMT 50.691422 8.642083 15,275 290 315 -2752
2022-05-13 07:00:11 GMT 50.690460 8.646389 15,350 290 316 -2752
2022-05-13 07:00:10 GMT 50.689941 8.648682 15,400 290 316 -2816
2022-05-13 07:00:08 GMT 50.688446 8.655519 15,550 290 316 -2752
2022-05-13 07:00:05 GMT 50.687988 8.657672 15,600 290 316 -2752
2022-05-13 07:00:04 GMT 50.686729 8.663406 15,750 290 316 -2752
2022-05-13 07:00:02 GMT 50.686214 8.665848 15,775 290 316 -2752
2022-05-13 07:00:00 GMT 50.685425 8.669357 15,825 290 316 -2816
2022-05-13 06:59:59 GMT 50.684921 8.671628 15,925 290 316 -2816
2022-05-13 06:59:58 GMT 50.684464 8.673780 15,950 290 316 -2816
2022-05-13 06:59:55 GMT 50.682953 8.680535 16,100 290 317 -2688
2022-05-13 06:59:53 GMT 50.681900 8.685286 16,250 290 318 -2624
2022-05-13 06:59:51 GMT 50.681190 8.688507 16,250 290 318 -2624
2022-05-13 06:59:48 GMT 50.679512 8.696136 16,425 290 318 -2688
2022-05-13 06:59:47 GMT 50.679001 8.698349 16,450 290 318 -2752
2022-05-13 06:59:46 GMT 50.678535 8.700485 16,500 290 319 -2752
2022-05-13 06:59:43 GMT 50.677044 8.707123 16,750 290 319 -2816
2022-05-13 06:59:41 GMT 50.675602 8.713684 16,775 290 321 -2688
2022-05-13 06:59:38 GMT 50.674667 8.717948 16,875 290 321 -2624
2022-05-13 06:59:37 GMT 50.673660 8.722402 16,950 290 321 -2560
2022-05-13 06:59:35 GMT 50.673183 8.724670 17,000 290 321 -2560
2022-05-13 06:59:34 GMT 50.672653 8.727005 17,050 290 321 -2560
2022-05-13 06:59:33 GMT 50.672150 8.729232 17,075 290 321 -2560
2022-05-13 06:59:31 GMT 50.671188 8.733625 17,250 290 322 -2560
2022-05-13 06:59:29 GMT 50.670200 8.737991 17,250 290 323 -2560
2022-05-13 06:59:28 GMT 50.669739 8.740218 17,300 290 324 -2496
2022-05-13 06:59:26 GMT 50.668758 8.744672 17,375 290 324 -2496
2022-05-13 06:59:24 GMT 50.667801 8.749020 17,425 290 324 -2496
2022-05-13 06:59:23 GMT 50.667297 8.751261 17,500 289 325 -2560
2022-05-13 06:59:22 GMT 50.665878 8.757766 18,300 289 326 -2624
2022-05-13 06:59:20 GMT 50.665878 8.757766 17,625 289 326 -2624
2022-05-13 06:59:19 GMT 50.665421 8.760007 17,675 289 326 -2688
2022-05-13 06:59:18 GMT 50.664894 8.762339 17,725 290 327 -2688
2022-05-13 06:59:14 GMT 50.662846 8.771618 17,900 289 328 -2688
2022-05-13 06:59:12 GMT 50.662308 8.774173 17,950 289 328 -2688
2022-05-13 06:59:10 GMT 50.660938 8.780377 18,075 289 328 -2816
2022-05-13 06:59:09 GMT 50.660286 8.783347 18,150 289 329 -2816
2022-05-13 06:59:07 GMT 50.659634 8.786316 18,200 289 329 -2880
2022-05-13 06:59:05 GMT 50.658379 8.792180 18,325 289 329 -3072
2022-05-13 06:59:04 GMT 50.656815 8.799326 18,475 289 329 -3072
2022-05-13 06:59:02 GMT 50.656815 8.799326 18,500 289 329 -3072
2022-05-13 06:59:00 GMT 50.656097 8.802647 18,575 290 330 -3072
2022-05-13 06:58:59 GMT 50.655304 8.806120 18,625 290 330 -3008
2022-05-13 06:58:58 GMT 50.654793 8.808511 18,700 290 331 -3008
2022-05-13 06:58:57 GMT 50.654327 8.810590 18,750 290 331 -3008
2022-05-13 06:58:55 GMT 50.653610 8.813854 18,800 290 331 -2944
2022-05-13 06:58:53 GMT 50.652466 8.819058 18,925 290 331 -2880
2022-05-13 06:58:51 GMT 50.650909 8.826141 19,050 289 332 -2816
2022-05-13 06:58:50 GMT 50.650909 8.826141 19,075 289 332 -2752
2022-05-13 06:58:47 GMT 50.649578 8.832191 19,225 289 333 -2752
2022-05-13 06:58:46 GMT 50.648602 8.836794 19,275 289 333 -2752
2022-05-13 06:58:44 GMT 50.648090 8.839095 19,300 289 333 -2752
2022-05-13 06:58:42 GMT 50.646790 8.844934 19,450 289 335 -2752
2022-05-13 06:58:40 GMT 50.646042 8.848448 19,525 289 335 -2752
2022-05-13 06:58:38 GMT 50.645004 8.853174 19,600 289 335 -3072
2022-05-13 06:58:37 GMT 50.644459 8.855649 19,675 289 335 -3072
2022-05-13 06:58:35 GMT 50.643574 8.859806 19,750 289 335 -3072
2022-05-13 06:58:34 GMT 50.643036 8.862208 19,875 289 335 -3264
2022-05-13 06:58:32 GMT 50.642120 8.866617 19,875 289 335 -3328
2022-05-13 06:58:31 GMT 50.641575 8.869010 19,975 289 335 -3456
2022-05-13 06:58:30 GMT 50.641068 8.871460 20,050 289 334 -3584
2022-05-13 06:58:29 GMT 50.640549 8.873835 20,175 289 334 -3648
2022-05-13 06:58:27 GMT 50.639477 8.878660 20,225 289 333 -3840
2022-05-13 06:58:26 GMT 50.639236 8.879989 20,400 289 333 -3840
2022-05-13 06:58:24 GMT 50.638275 8.884326 20,400 290 333 -3904
2022-05-13 06:58:23 GMT 50.637314 8.888662 20,525 290 333 -3904
2022-05-13 06:58:21 GMT 50.636581 8.892059 20,600 290 332 -3840
2022-05-13 06:58:20 GMT 50.635380 8.897441 20,775 290 331 -3648
2022-05-13 06:58:18 GMT 50.634823 8.899965 20,825 290 331 -3648
2022-05-13 06:58:17 GMT 50.634499 8.901301 20,850 290 331 -3456
2022-05-13 06:58:15 GMT 50.633472 8.905829 20,975 290 332 -3072
2022-05-13 06:58:14 GMT 50.633007 8.908131 21,050 290 332 -3008
2022-05-13 06:58:11 GMT 50.631565 8.914514 21,150 290 332 -2816
2022-05-13 06:58:10 GMT 50.631050 8.916816 21,200 290 332 -2752
2022-05-13 06:58:09 GMT 50.629623 8.923284 21,350 290 333 -2880
2022-05-13 06:58:06 GMT 50.629097 8.925724 21,400 290 333 -2944
2022-05-13 06:58:05 GMT 50.627289 8.933619 21,575 290 334 -3072
2022-05-13 06:58:03 GMT 50.627289 8.933619 21,575 290 334 -3136
2022-05-13 06:58:02 GMT 50.626740 8.936077 21,625 290 334 -3200
2022-05-13 06:58:00 GMT 50.625641 8.940920 21,725 290 333 -3392
2022-05-13 06:57:59 GMT 50.625092 8.943316 21,875 290 333 -3392
2022-05-13 06:57:57 GMT 50.624313 8.946846 21,875 290 333 -3392
2022-05-13 06:57:56 GMT 50.623741 8.949255 21,950 290 333 -3392
2022-05-13 06:57:55 GMT 50.623169 8.951834 22,000 290 333 -3392
2022-05-13 06:57:53 GMT 50.622021 8.956752 22,125 290 333 -3264
2022-05-13 06:57:52 GMT 50.621510 8.959054 22,175 290 333 -3264
2022-05-13 06:57:51 GMT 50.620998 8.961281 22,250 290 333 -3200
2022-05-13 06:57:48 GMT 50.619965 8.965783 22,350 290 333 -3136
2022-05-13 06:57:47 GMT 50.619133 8.969520 22,525 290 333 -3008
2022-05-13 06:57:45 GMT 50.618271 8.973300 22,525 290 334 -2944
2022-05-13 06:57:43 GMT 50.617172 8.978071 22,650 290 334 -2944
2022-05-13 06:57:42 GMT 50.616669 8.980384 22,700 290 334 -2944
2022-05-13 06:57:41 GMT 50.616119 8.982697 22,750 290 334 -2944
2022-05-13 06:57:39 GMT 50.615131 8.987113 22,800 290 335 -2944
2022-05-13 06:57:37 GMT 50.613873 8.992606 23,000 290 335 -3072
2022-05-13 06:57:35 GMT 50.612522 8.998619 23,075 290 335 -3136
2022-05-13 06:57:33 GMT 50.611965 9.001143 23,125 290 335 -3200
2022-05-13 06:57:32 GMT 50.611221 9.004236 23,175 290 336 -3200
2022-05-13 06:57:30 GMT 50.610214 9.008789 23,500 290 336 -3264
2022-05-13 06:57:28 GMT 50.609436 9.012258 23,500 290 336 -3264
2022-05-13 06:57:26 GMT 50.607834 9.019414 23,600 290 336 -3200
2022-05-13 06:57:24 GMT 50.607285 9.021727 23,600 290 336 -3264
2022-05-13 06:57:23 GMT 50.606750 9.024155 23,675 290 336 -3328
2022-05-13 06:57:21 GMT 50.606003 9.027437 23,750 290 335 -3456
2022-05-13 06:57:20 GMT 50.605263 9.030836 23,975 290 335 -3584
2022-05-13 06:57:18 GMT 50.604191 9.035661 23,975 290 335 -3584
2022-05-13 06:57:17 GMT 50.603725 9.037665 24,025 290 335 -3456
2022-05-13 06:57:16 GMT 50.603260 9.039744 24,075 290 335 -3456
2022-05-13 06:57:13 GMT 50.601700 9.046808 24,250 290 336 -2944
2022-05-13 06:57:12 GMT 50.600739 9.051144 24,350 290 336 -2944
2022-05-13 06:57:10 GMT 50.599674 9.055852 24,450 290 336 -2816
2022-05-13 06:57:07 GMT 50.598328 9.061865 24,550 290 337 -2688
2022-05-13 06:57:06 GMT 50.596939 9.067985 24,625 290 338 -2560
2022-05-13 06:57:04 GMT 50.596939 9.067985 24,725 290 338 -2560
2022-05-13 06:57:02 GMT 50.594559 9.078393 24,800 290 339 -2560
2022-05-13 06:57:00 GMT 50.594559 9.078393 24,875 290 339 -2560
2022-05-13 06:56:59 GMT 50.594101 9.080489 24,900 290 340 -2624
2022-05-13 06:56:57 GMT 50.593204 9.084357 24,950 290 340 -2624
2022-05-13 06:56:56 GMT 50.592461 9.087623 25,050 290 341 -2560
2022-05-13 06:56:55 GMT 50.591949 9.089925 25,075 290 342 -2560
2022-05-13 06:56:53 GMT 50.591080 9.093789 25,125 290 342 -2560
2022-05-13 06:56:51 GMT 50.588921 9.103286 25,300 290 343 -2496
2022-05-13 06:56:49 GMT 50.588921 9.103286 25,325 290 344 -2496
2022-05-13 06:56:46 GMT 50.587200 9.111081 25,475 290 345 -2560
2022-05-13 06:56:44 GMT 50.585632 9.118074 25,600 290 346 -2560
2022-05-13 06:56:42 GMT 50.585037 9.120676 25,650 290 347 -2560
2022-05-13 06:56:41 GMT 50.584499 9.122958 25,675 290 347 -2624
2022-05-13 06:56:40 GMT 50.583382 9.127931 25,775 290 348 -2624
2022-05-13 06:56:38 GMT 50.582916 9.130084 25,800 290 350 -2624
2022-05-13 06:56:37 GMT 50.582314 9.132682 25,850 290 350 -2624
2022-05-13 06:56:35 GMT 50.580681 9.139883 26,000 290 350 -2624
2022-05-13 06:56:34 GMT 50.580681 9.139883 26,000 290 351 -2624
2022-05-13 06:56:33 GMT 50.580124 9.142555 26,025 290 352 -2560
2022-05-13 06:56:31 GMT 50.578995 9.147491 26,125 290 352 -2560
2022-05-13 06:56:29 GMT 50.578400 9.149978 26,175 290 353 -2560
2022-05-13 06:56:28 GMT 50.577850 9.152551 26,275 290 353 -2624
2022-05-13 06:56:26 GMT 50.576340 9.159273 26,325 290 354 -2688
2022-05-13 06:56:24 GMT 50.575287 9.163899 26,425 290 355 -2688
2022-05-13 06:56:23 GMT 50.574722 9.166458 26,450 290 355 -2624
2022-05-13 06:56:22 GMT 50.574142 9.169030 26,500 290 356 -2624
2022-05-13 06:56:20 GMT 50.573235 9.172990 26,575 290 357 -2560
2022-05-13 06:56:19 GMT 50.572678 9.175319 26,625 290 357 -2560
2022-05-13 06:56:18 GMT 50.571030 9.182691 26,725 290 358 -2560
2022-05-13 06:56:16 GMT 50.571030 9.182691 26,750 290 358 -2560
2022-05-13 06:56:14 GMT 50.570255 9.185981 26,800 290 358 -2560
2022-05-13 06:56:12 GMT 50.568626 9.193330 26,925 290 360 -2624
2022-05-13 06:56:10 GMT 50.567833 9.196819 26,975 290 361 -2624
2022-05-13 06:56:08 GMT 50.566902 9.201050 27,075 290 362 -2688
2022-05-13 06:56:07 GMT 50.566315 9.203580 27,150 290 362 -2688
2022-05-13 06:56:06 GMT 50.564667 9.210923 27,250 290 362 -2688
2022-05-13 06:56:04 GMT 50.564667 9.210923 27,250 290 364 -2816
2022-05-13 06:56:02 GMT 50.563065 9.218035 27,375 290 364 -2816
2022-05-13 06:56:01 GMT 50.562572 9.220127 27,425 290 365 -2880
2022-05-13 06:55:59 GMT 50.561508 9.224974 27,500 290 365 -2944
2022-05-13 06:55:57 GMT 50.560638 9.229022 27,550 290 366 -3008
2022-05-13 06:55:56 GMT 50.560043 9.231551 27,700 290 366 -3072
2022-05-13 06:55:55 GMT 50.559502 9.234157 27,700 290 366 -3136
2022-05-13 06:55:51 GMT 50.556976 9.245573 27,925 290 367 -3520
2022-05-13 06:55:50 GMT 50.555557 9.252151 28,175 290 367 -3520
2022-05-13 06:55:48 GMT 50.555557 9.252151 28,175 290 367 -3520
2022-05-13 06:55:46 GMT 50.553730 9.260287 28,175 290 366 -3584
2022-05-13 06:55:45 GMT 50.553730 9.260287 28,275 290 367 -3584
2022-05-13 06:55:44 GMT 50.553402 9.261772 28,300 291 367 -3648
2022-05-13 06:55:43 GMT 50.551620 9.269425 28,500 291 367 -3648
2022-05-13 06:55:41 GMT 50.551620 9.269425 28,550 292 367 -3776
2022-05-13 06:55:39 GMT 50.550331 9.274465 28,625 294 367 -3968
2022-05-13 06:55:36 GMT 50.548553 9.280990 28,800 295 367 -4032
2022-05-13 06:55:35 GMT 50.547409 9.284821 28,925 296 368 -4224
2022-05-13 06:55:34 GMT 50.545536 9.290648 29,100 298 367 -4352
2022-05-13 06:55:31 GMT 50.544327 9.294211 29,200 300 367 -4416
2022-05-13 06:55:29 GMT 50.541904 9.300892 29,425 302 366 -4352
2022-05-13 06:55:27 GMT 50.541000 9.303252 29,500 302 366 -4288
2022-05-13 06:55:26 GMT 50.540043 9.305643 29,575 303 367 -4224
2022-05-13 06:55:24 GMT 50.538666 9.309106 29,700 305 367 -4096
2022-05-13 06:55:23 GMT 50.535416 9.316623 29,850 306 367 -4096
2022-05-13 06:55:21 GMT 50.535416 9.316623 29,925 306 366 -4096
2022-05-13 06:55:20 GMT 50.534409 9.318719 30,025 308 367 -4096
2022-05-13 06:55:18 GMT 50.532314 9.323087 30,425 309 367 -4096
2022-05-13 06:55:16 GMT 50.530731 9.326279 30,350 310 367 -4096
2022-05-13 06:55:14 GMT 50.528503 9.330428 30,350 311 368 -3968
2022-05-13 06:55:12 GMT 50.525799 9.335335 30,575 314 369 -3520
2022-05-13 06:55:10 GMT 50.523933 9.338527 30,575 314 369 -3456
2022-05-13 06:55:09 GMT 50.522770 9.340457 30,675 315 369 -3456
2022-05-13 06:55:08 GMT 50.521133 9.343005 30,750 316 370 -3456
2022-05-13 06:55:06 GMT 50.518627 9.346916 30,875 318 371 -3520
2022-05-13 06:55:04 GMT 50.516190 9.350449 30,975 319 372 -3648
2022-05-13 06:55:03 GMT 50.515045 9.352112 31,025 319 372 -3648
2022-05-13 06:55:01 GMT 50.508900 9.360129 31,325 322 373 -3712
2022-05-13 06:54:59 GMT 50.508900 9.360129 31,325 323 373 -3712
2022-05-13 06:54:57 GMT 50.506851 9.362653 31,375 324 374 -3712
2022-05-13 06:54:56 GMT 50.505249 9.364471 31,500 326 376 -3520
2022-05-13 06:54:55 GMT 50.503830 9.366062 31,550 326 376 -3520
2022-05-13 06:54:53 GMT 50.501358 9.368814 31,650 327 376 -3456
2022-05-13 06:54:52 GMT 50.500053 9.370150 31,700 327 377 -3392
2022-05-13 06:54:50 GMT 50.497513 9.372783 31,900 330 379 -3264
2022-05-13 06:54:48 GMT 50.492111 9.377843 32,000 332 381 -3136
2022-05-13 06:54:45 GMT 50.488861 9.380662 32,100 332 382 -3008
2022-05-13 06:54:44 GMT 50.485809 9.383141 32,250 334 382 -2944
2022-05-13 06:54:42 GMT 50.484146 9.384420 32,250 335 384 -2880
2022-05-13 06:54:41 GMT 50.482456 9.385665 32,300 335 384 -2880
2022-05-13 06:54:40 GMT 50.481014 9.386778 32,350 337 386 -2880
2022-05-13 06:54:37 GMT 50.475613 9.390416 32,475 339 388 -2944
2022-05-13 06:54:35 GMT 50.474030 9.391431 32,550 340 389 -2944
2022-05-13 06:54:34 GMT 50.472198 9.392515 32,600 341 391 -2944
2022-05-13 06:54:31 GMT 50.466816 9.395463 32,800 343 393 -2944
2022-05-13 06:54:29 GMT 50.462540 9.397503 32,900 344 395 -2816
2022-05-13 06:54:27 GMT 50.455261 9.400538 33,025 346 398 -2368
2022-05-13 06:54:25 GMT 50.455261 9.400538 33,050 347 399 -2048
2022-05-13 06:54:23 GMT 50.451408 9.401996 33,125 350 404 -1856
2022-05-13 06:54:21 GMT 50.448662 9.402812 33,125 350 406 -1920
2022-05-13 06:54:19 GMT 50.444191 9.403926 33,225 353 410 -2240
2022-05-13 06:54:18 GMT 50.440418 9.404742 33,300 354 411 -2432
2022-05-13 06:54:16 GMT 50.438644 9.405020 33,350 355 412 -2496
2022-05-13 06:54:14 GMT 50.433018 9.405707 33,475 358 415 -2816
2022-05-13 06:54:12 GMT 50.430817 9.405887 33,525 0 418 -2944
2022-05-13 06:54:11 GMT 50.428894 9.405959 33,575 0 418 -3008
2022-05-13 06:54:09 GMT 50.426010 9.405887 33,650 1 419 -3264
2022-05-13 06:54:08 GMT 50.423943 9.405856 33,725 2 420 -3328
2022-05-13 06:54:07 GMT 50.422119 9.405742 33,775 2 420 -3456
2022-05-13 06:54:05 GMT 50.417564 9.405336 33,900 4 422 -3456
2022-05-13 06:54:03 GMT 50.413788 9.404803 34,000 6 424 -3328
2022-05-13 06:54:01 GMT 50.409790 9.404074 34,150 7 424 -3328
2022-05-13 06:53:59 GMT 50.406601 9.403357 34,200 8 425 -3264
2022-05-13 06:53:57 GMT 50.401829 9.402144 34,350 9 426 -3200
2022-05-13 06:53:56 GMT 50.399963 9.401623 34,375 10 427 -3200
2022-05-13 06:53:55 GMT 50.398151 9.401105 34,425 10 427 -3200
2022-05-13 06:53:53 GMT 50.394474 9.400066 34,550 10 426 -3328
2022-05-13 06:53:51 GMT 50.390900 9.398948 34,675 10 426 -3456
2022-05-13 06:53:50 GMT 50.388977 9.398370 34,700 10 425 -3584
2022-05-13 06:53:49 GMT 50.386826 9.397720 34,800 10 425 -3712
2022-05-13 06:53:47 GMT 50.384045 9.396874 35,075 10 424 -3776
2022-05-13 06:53:46 GMT 50.377110 9.394795 35,050 10 424 -3776
2022-05-13 06:53:44 GMT 50.377110 9.394795 35,050 10 422 -3648
2022-05-13 06:53:42 GMT 50.374146 9.393889 35,175 10 422 -3648
2022-05-13 06:53:41 GMT 50.372128 9.393311 35,250 10 422 -3520
2022-05-13 06:53:40 GMT 50.370117 9.392660 35,350 10 421 -3392
2022-05-13 06:53:39 GMT 50.368126 9.392123 35,475 10 421 -3264
2022-05-13 06:53:37 GMT 50.363888 9.390861 35,475 10 421 -3072
2022-05-13 06:53:34 GMT 50.359039 9.389408 35,625 10 421 -2688
2022-05-13 06:53:33 GMT 50.356934 9.388829 35,625 10 420 -2432
2022-05-13 06:53:32 GMT 50.355194 9.388323 35,650 10 420 -2176
2022-05-13 06:53:30 GMT 50.351086 9.387149 35,750 10 421 -1792
2022-05-13 06:53:28 GMT 50.347000 9.385938 35,775 10 421 -1536
2022-05-13 06:53:27 GMT 50.344757 9.385368 35,825 10 422 -1280
2022-05-13 06:53:26 GMT 50.343033 9.384848 35,850 10 422 -1216
2022-05-13 06:53:24 GMT 50.339310 9.383842 35,875 10 423 -1024
2022-05-13 06:53:22 GMT 50.336330 9.382992 35,900 10 424 -832
2022-05-13 06:53:20 GMT 50.332466 9.381879 35,950 9 425 -768
2022-05-13 06:53:18 GMT 50.328690 9.380879 35,950 9 426 -768
2022-05-13 06:53:17 GMT 50.326767 9.380373 36,000 9 427 -768
2022-05-13 06:53:15 GMT 50.319763 9.378493 36,000 9 428 -832
2022-05-13 06:53:14 GMT 50.319763 9.378493 36,025 9 427 -896
2022-05-13 06:53:12 GMT 50.316238 9.377554 36,050 9 428 -832
2022-05-13 06:53:11 GMT 50.311050 9.376163 36,075 9 428 -768
2022-05-13 06:53:09 GMT 50.311050 9.376163 36,075 9 428 -640
2022-05-13 06:53:07 GMT 50.304211 9.374381 36,125 9 429 -512
2022-05-13 06:53:06 GMT 50.304211 9.374381 36,125 9 429 -512
2022-05-13 06:53:04 GMT 50.300297 9.373416 36,150 9 429 -512
2022-05-13 06:53:02 GMT 50.296280 9.372350 36,150 9 430 -512
2022-05-13 06:53:01 GMT 50.293453 9.371635 36,200 9 430 -512
2022-05-13 06:52:59 GMT 50.289642 9.370615 36,200 9 430 -512
2022-05-13 06:52:57 GMT 50.286667 9.369892 36,200 9 431 -512
2022-05-13 06:52:56 GMT 50.281952 9.368664 36,225 9 431 -512
2022-05-13 06:52:53 GMT 50.277954 9.367552 36,350 10 431 -512
2022-05-13 06:52:51 GMT 50.274902 9.366712 36,275 10 432 -448
2022-05-13 06:52:50 GMT 50.272831 9.366142 36,275 10 432 -448
2022-05-13 06:52:48 GMT 50.268814 9.364905 36,275 11 432 -448
2022-05-13 06:52:47 GMT 50.266479 9.364182 36,300 11 432 -448
2022-05-13 06:52:46 GMT 50.264923 9.363676 36,300 12 432 -448
2022-05-13 06:52:45 GMT 50.258961 9.361614 36,325 12 433 -448
2022-05-13 06:52:43 GMT 50.258961 9.361614 36,325 13 434 -448
2022-05-13 06:52:41 GMT 50.255173 9.360062 36,350 15 435 -448
2022-05-13 06:52:39 GMT 50.251186 9.358347 36,350 16 437 -448
2022-05-13 06:52:37 GMT 50.248215 9.356954 36,375 17 437 -448
2022-05-13 06:52:36 GMT 50.243317 9.354413 36,400 19 438 -448
2022-05-13 06:52:34 GMT 50.241409 9.353374 36,400 20 440 -512
2022-05-13 06:52:33 GMT 50.239315 9.352186 36,400 21 441 -512
2022-05-13 06:52:31 GMT 50.235809 9.350088 36,425 22 442 -512
2022-05-13 06:52:29 GMT 50.231277 9.347125 36,450 24 443 -512
2022-05-13 06:52:27 GMT 50.227707 9.344667 36,450 24 443 -512
2022-05-13 06:52:25 GMT 50.223816 9.341848 36,475 25 445 -512
2022-05-13 06:52:23 GMT 50.220886 9.339535 36,550 27 445 -512
2022-05-13 06:52:22 GMT 50.218971 9.338008 36,550 27 446 -512
2022-05-13 06:52:19 GMT 50.213524 9.333405 36,525 29 447 -576
2022-05-13 06:52:17 GMT 50.210083 9.330211 36,550 30 448 -576
2022-05-13 06:52:16 GMT 50.208031 9.328283 36,575 43 459 -512
2022-05-13 06:52:15 GMT 50.206264 9.326576 36,550 33 451 -512
2022-05-13 06:52:14 GMT 50.204453 9.324718 36,575 33 451 -512
2022-05-13 06:52:12 GMT 50.200863 9.321009 36,600 34 451 -512
2022-05-13 06:52:11 GMT 50.199326 9.319376 36,600 35 452 -512
2022-05-13 06:52:10 GMT 50.197906 9.317780 36,600 36 453 -512
2022-05-13 06:52:08 GMT 50.194336 9.313732 36,625 37 453 -512
2022-05-13 06:52:07 GMT 50.192902 9.312101 36,625 37 454 -448
2022-05-13 06:52:06 GMT 50.191177 9.309973 36,625 38 454 -448
2022-05-13 06:52:04 GMT 50.187744 9.305637 36,650 39 455 -512
2022-05-13 06:52:03 GMT 50.185871 9.303267 36,650 40 456 -448
2022-05-13 06:52:02 GMT 50.182755 9.299059 36,675 41 457 -512
2022-05-13 06:52:00 GMT 50.181198 9.296891 36,675 42 459 -512
2022-05-13 06:51:59 GMT 50.179680 9.294731 36,700 43 459 -512
2022-05-13 06:51:58 GMT 50.176849 9.290603 36,700 44 460 -448
2022-05-13 06:51:56 GMT 50.175259 9.288198 36,725 45 461 -448
2022-05-13 06:51:55 GMT 50.173828 9.285977 36,725 45 461 -512
2022-05-13 06:51:54 GMT 50.170853 9.281207 36,750 47 462 -448
2022-05-13 06:51:52 GMT 50.169250 9.278532 36,750 47 462 -448
2022-05-13 06:51:49 GMT 50.165634 9.272389 36,750 48 462 -448
2022-05-13 06:51:48 GMT 50.164181 9.269789 36,775 49 464 -448
2022-05-13 06:51:47 GMT 50.162842 9.267329 36,775 50 463 -448
2022-05-13 06:51:46 GMT 50.161526 9.264964 36,800 51 464 -448
2022-05-13 06:51:45 GMT 50.158455 9.258951 36,800 52 465 -448
2022-05-13 06:51:43 GMT 50.157211 9.256415 36,800 52 465 -448
2022-05-13 06:51:42 GMT 50.155987 9.253903 36,825 53 466 -448
2022-05-13 06:51:40 GMT 50.153286 9.248261 36,825 54 466 -448
2022-05-13 06:51:39 GMT 50.152027 9.245515 36,825 55 467 -512
2022-05-13 06:51:38 GMT 50.150894 9.242899 36,850 55 468 -512
2022-05-13 06:51:36 GMT 50.148376 9.236972 36,850 57 468 -512
2022-05-13 06:51:35 GMT 50.147049 9.233864 36,875 57 469 -512
2022-05-13 06:51:34 GMT 50.145905 9.231045 36,875 58 469 -512
2022-05-13 06:51:33 GMT 50.144722 9.227996 36,875 59 470 -512
2022-05-13 06:51:31 GMT 50.142441 9.221909 36,900 60 471 -576
2022-05-13 06:51:30 GMT 50.141830 9.220276 36,900 60 471 -576
2022-05-13 06:51:28 GMT 50.139633 9.214060 36,925 62 471 -640
2022-05-13 06:51:26 GMT 50.137550 9.207879 36,975 63 472 -576
2022-05-13 06:51:25 GMT 50.136482 9.204539 36,975 64 473 -512
2022-05-13 06:51:24 GMT 50.135597 9.201792 36,975 64 473 -512
2022-05-13 06:51:23 GMT 50.134644 9.198592 36,975 65 472 -384
2022-05-13 06:51:21 GMT 50.132664 9.191919 37,000 66 473 -192
2022-05-13 06:51:20 GMT 50.131733 9.188505 37,000 66 474 -192
2022-05-13 06:51:19 GMT 50.130661 9.184793 37,000 67 474 -128
2022-05-13 06:51:17 GMT 50.129105 9.178571 37,025 68 474 -128
2022-05-13 06:51:16 GMT 50.128372 9.175752 37,000 69 474 -128
2022-05-13 06:51:15 GMT 50.127590 9.172396 37,000 70 475 -64
2022-05-13 06:51:12 GMT 50.125534 9.163248 37,000 71 475 -64
2022-05-13 06:51:10 GMT 50.124050 9.156214 37,025 73 476 -64
2022-05-13 06:51:08 GMT 50.121964 9.144889 37,025 74 476 -64
2022-05-13 06:51:06 GMT 50.121964 9.144889 37,025 75 476 0
2022-05-13 06:51:04 GMT 50.120701 9.137062 37,025 76 477 0
2022-05-13 06:51:02 GMT 50.119629 9.130084 37,025 77 477 0
2022-05-13 06:51:01 GMT 50.119171 9.126531 37,025 79 477 0
2022-05-13 06:51:00 GMT 50.118279 9.119692 37,025 79 477 0
2022-05-13 06:50:58 GMT 50.117905 9.116277 37,025 80 478 0
2022-05-13 06:50:56 GMT 50.116882 9.106293 37,025 81 478 0
2022-05-13 06:50:53 GMT 50.116379 9.100800 37,000 82 478 0
2022-05-13 06:50:51 GMT 50.115280 9.082730 37,000 86 479 0
2022-05-13 06:50:48 GMT 50.115280 9.082730 37,000 86 479 64
2022-05-13 06:50:46 GMT 50.114822 9.066901 37,000 87 479 0
2022-05-13 06:50:44 GMT 50.114822 9.066901 37,000 90 480 0
2022-05-13 06:50:41 GMT 50.114742 9.059861 37,000 93 480 0
2022-05-13 06:50:38 GMT 50.114880 9.049171 37,000 92 480 -64
2022-05-13 06:50:36 GMT 50.115005 9.043121 37,000 93 480 0
2022-05-13 06:50:34 GMT 50.115345 9.035735 37,000 94 480 -64
2022-05-13 06:50:31 GMT 50.116013 9.023462 37,000 96 481 0
2022-05-13 06:50:28 GMT 50.116608 9.016306 37,000 96 481 0
2022-05-13 06:50:26 GMT 50.117432 9.007777 37,000 98 480 64
2022-05-13 06:50:24 GMT 50.117981 9.002284 37,000 99 481 64
2022-05-13 06:50:22 GMT 50.118942 8.994550 37,000 101 481 128
2022-05-13 06:50:19 GMT 50.120819 8.981396 37,000 104 480 128
2022-05-13 06:50:16 GMT 50.122284 8.972722 37,000 123 471 -64
2022-05-13 06:50:14 GMT 50.123215 8.967590 37,000 105 479 128
2022-05-13 06:50:12 GMT 50.126953 8.949376 36,975 112 477 128
2022-05-13 06:50:09 GMT 50.126953 8.949376 36,975 110 478 128
2022-05-13 06:50:06 GMT 50.129059 8.940703 36,975 111 478 128
2022-05-13 06:50:04 GMT 50.129883 8.937522 36,975 113 477 0
2022-05-13 06:50:02 GMT 50.132355 8.928343 36,975 114 476 0
2022-05-13 06:49:58 GMT 50.135410 8.917929 37,000 117 474 -64
2022-05-13 06:49:56 GMT 50.137939 8.910129 37,000 117 474 -64
2022-05-13 06:49:53 GMT 50.140732 8.902034 37,025 123 470 -64
2022-05-13 06:49:51 GMT 50.142883 8.896107 37,025 123 470 -64
2022-05-13 06:49:48 GMT 50.146637 8.886566 37,025 123 470 -64
2022-05-13 06:49:45 GMT 50.149475 8.879772 37,025 124 470 -64
2022-05-13 06:49:43 GMT 50.152866 8.872128 37,025 126 469 -128
2022-05-13 06:49:41 GMT 50.154694 8.868207 37,025 129 467 -64
2022-05-13 06:49:38 GMT 50.162338 8.853101 37,025 132 467 0
2022-05-13 06:49:35 GMT 50.162338 8.853101 37,025 132 467 0
2022-05-13 06:49:33 GMT 50.165066 8.848151 37,025 132 467 0
2022-05-13 06:49:31 GMT 50.169434 8.840452 37,025 132 467 0
2022-05-13 06:49:28 GMT 50.173119 8.834121 37,025 132 467 0
2022-05-13 06:49:26 GMT 50.176189 8.828925 37,025 132 467 0
2022-05-13 06:49:24 GMT 50.181473 8.819781 37,025 132 468 64
2022-05-13 06:49:22 GMT 50.181473 8.819781 37,025 132 469 0
2022-05-13 06:49:20 GMT 50.189255 8.806554 37,000 132 471 64
2022-05-13 06:49:17 GMT 50.189255 8.806554 37,000 132 471 64
2022-05-13 06:49:15 GMT 50.192112 8.801682 37,000 132 479 -384
2022-05-13 06:49:13 GMT 50.196068 8.794927 36,975 132 477 -128
2022-05-13 06:49:10 GMT 50.204494 8.780526 36,975 132 476 -64
2022-05-13 06:49:07 GMT 50.204494 8.780526 36,975 132 477 -128
2022-05-13 06:49:05 GMT 50.206680 8.776666 37,000 132 477 -192
2022-05-13 06:49:03 GMT 50.212555 8.766584 37,025 132 479 -320
2022-05-13 06:49:01 GMT 50.212555 8.766584 37,025 132 479 -320
2022-05-13 06:48:56 GMT 50.220646 8.752689 37,050 132 480 -128
2022-05-13 06:48:54 GMT 50.223587 8.747719 37,050 132 481 -128
2022-05-13 06:48:52 GMT 50.225967 8.743599 37,050 132 481 -128
2022-05-13 06:48:50 GMT 50.230408 8.735866 37,050 132 481 -64
2022-05-13 06:48:47 GMT 50.234844 8.728267 37,075 132 481 -64
2022-05-13 06:48:44 GMT 50.238647 8.721771 37,075 132 482 0
2022-05-13 06:48:42 GMT 50.242153 8.715721 37,050 132 482 64
2022-05-13 06:48:39 GMT 50.247414 8.706739 37,050 132 482 64
2022-05-13 06:48:36 GMT 50.250458 8.701533 37,050 132 482 64
2022-05-13 06:48:34 GMT 50.253616 8.696112 37,050 132 482 64
2022-05-13 06:48:32 GMT 50.256638 8.690981 37,050 132 482 64
2022-05-13 06:48:29 GMT 50.260448 8.684395 37,050 132 484 0
2022-05-13 06:48:26 GMT 50.265060 8.676597 37,050 132 483 -64
2022-05-13 06:48:23 GMT 50.272568 8.663732 37,050 132 482 0
2022-05-13 06:48:21 GMT 50.272568 8.663732 37,050 132 483 0
2022-05-13 06:48:18 GMT 50.282455 8.646746 37,050 132 483 0
2022-05-13 06:48:15 GMT 50.282455 8.646746 37,050 132 483 0
2022-05-13 06:48:13 GMT 50.289593 8.634512 37,050 132 482 0
2022-05-13 06:48:10 GMT 50.289593 8.634512 37,050 132 482 0
2022-05-13 06:48:08 GMT 50.297333 8.621232 37,050 132 483 0
2022-05-13 06:48:05 GMT 50.297333 8.621232 37,050 132 483 0
2022-05-13 06:48:02 GMT 50.301136 8.614692 37,050 132 482 64
2022-05-13 06:48:00 GMT 50.304161 8.609495 37,050 132 482 64
2022-05-13 06:47:58 GMT 50.307358 8.603957 37,050 132 484 64
2022-05-13 06:47:56 GMT 50.311249 8.597235 37,025 132 485 -64
2022-05-13 06:47:53 GMT 50.317757 8.585964 37,050 132 484 64
2022-05-13 06:47:51 GMT 50.317757 8.585964 37,050 132 484 -64
2022-05-13 06:47:49 GMT 50.320641 8.581065 37,025 132 484 0
2022-05-13 06:47:46 GMT 50.326126 8.571649 37,025 132 484 0
2022-05-13 06:47:43 GMT 50.329208 8.566292 37,025 132 484 -64
2022-05-13 06:47:41 GMT 50.335739 8.555097 37,050 132 484 -64
2022-05-13 06:47:39 GMT 50.335739 8.555097 37,050 132 484 -64
2022-05-13 06:47:36 GMT 50.341869 8.544617 37,050 132 485 -64
2022-05-13 06:47:33 GMT 50.345535 8.538256 37,050 132 485 -128
2022-05-13 06:47:31 GMT 50.348557 8.533124 37,050 132 485 -128
2022-05-13 06:47:29 GMT 50.352219 8.526908 37,050 132 485 -64
2022-05-13 06:47:26 GMT 50.354996 8.522124 37,050 132 484 0
2022-05-13 06:47:24 GMT 50.359512 8.514330 37,050 132 484 0
2022-05-13 06:47:21 GMT 50.363205 8.507972 37,050 132 484 0
2022-05-13 06:47:19 GMT 50.366447 8.502379 37,050 132 485 128
2022-05-13 06:47:16 GMT 50.370358 8.495624 37,050 132 485 128
2022-05-13 06:47:14 GMT 50.373524 8.490205 37,050 132 485 128
2022-05-13 06:47:12 GMT 50.376831 8.484489 37,050 132 485 128
2022-05-13 06:47:10 GMT 50.379250 8.480332 37,050 132 485 64
2022-05-13 06:47:08 GMT 50.383072 8.473712 37,025 132 486 64
2022-05-13 06:47:06 GMT 50.386093 8.468507 37,025 132 485 64
2022-05-13 06:47:04 GMT 50.390167 8.461496 37,025 132 485 128
2022-05-13 06:47:01 GMT 50.392593 8.457377 36,975 132 485 64
2022-05-13 06:46:58 GMT 50.398521 8.447076 37,000 131 484 0
2022-05-13 06:46:55 GMT 50.401550 8.441880 37,000 132 485 64
2022-05-13 06:46:53 GMT 50.404449 8.436777 37,000 132 485 64
2022-05-13 06:46:51 GMT 50.407696 8.431190 37,000 132 485 64
2022-05-13 06:46:49 GMT 50.410580 8.426291 37,000 132 485 64
2022-05-13 06:46:46 GMT 50.417191 8.414859 37,000 132 485 64
2022-05-13 06:46:43 GMT 50.421890 8.406637 37,000 132 485 64
2022-05-13 06:46:40 GMT 50.424080 8.402908 37,000 132 485 64
2022-05-13 06:46:38 GMT 50.432926 8.387542 36,975 132 485 64
2022-05-13 06:46:35 GMT 50.432926 8.387542 37,000 131 484 64
2022-05-13 06:46:33 GMT 50.435120 8.383725 36,975 131 484 64
2022-05-13 06:46:30 GMT 50.444145 8.368019 36,975 131 482 128
2022-05-13 06:46:27 GMT 50.448853 8.359801 36,975 131 484 64
2022-05-13 06:46:24 GMT 50.448853 8.359801 36,975 131 484 64
2022-05-13 06:46:21 GMT 50.452744 8.353006 36,975 131 484 64
2022-05-13 06:46:19 GMT 50.456635 8.346285 36,975 131 484 64
2022-05-13 06:46:15 GMT 50.462448 8.336093 36,975 131 483 64
2022-05-13 06:46:13 GMT 50.465370 8.331051 36,975 131 483 64
2022-05-13 06:46:10 GMT 50.469982 8.322960 36,975 131 483 64
2022-05-13 06:46:07 GMT 50.473892 8.316205 36,950 131 482 128
2022-05-13 06:46:04 GMT 50.478779 8.307668 36,950 131 483 128
2022-05-13 06:46:01 GMT 50.483109 8.300097 36,950 131 482 0
2022-05-13 06:45:58 GMT 50.492325 8.283988 36,950 131 482 64
2022-05-13 06:45:55 GMT 50.492325 8.283988 36,950 131 482 0
2022-05-13 06:45:52 GMT 50.495911 8.277679 36,950 131 482 0
2022-05-13 06:45:50 GMT 50.498425 8.273299 36,950 131 482 0
2022-05-13 06:45:48 GMT 50.502228 8.266634 36,925 131 482 64
2022-05-13 06:45:45 GMT 50.510239 8.252612 36,950 131 482 0
2022-05-13 06:45:42 GMT 50.510239 8.252612 36,950 131 481 -64
2022-05-13 06:45:40 GMT 50.514626 8.244942 36,950 131 481 -64
2022-05-13 06:45:38 GMT 50.517059 8.240613 36,950 131 481 -64
2022-05-13 06:45:35 GMT 50.524338 8.227892 36,950 131 480 -128
2022-05-13 06:45:33 GMT 50.524338 8.227892 36,950 131 480 0
2022-05-13 06:45:31 GMT 50.527985 8.221559 36,950 131 480 -64
2022-05-13 06:45:28 GMT 50.531525 8.215324 36,950 131 480 -64
2022-05-13 06:45:26 GMT 50.536194 8.207221 36,950 131 480 0
2022-05-13 06:45:23 GMT 50.539902 8.200716 36,950 131 480 0
2022-05-13 06:45:21 GMT 50.542648 8.195949 36,950 131 480 0
2022-05-13 06:45:18 GMT 50.549835 8.183441 36,975 131 479 0
2022-05-13 06:45:14 GMT 50.552170 8.179249 36,975 131 479 0
2022-05-13 06:45:12 GMT 50.556568 8.171675 36,975 131 478 64
2022-05-13 06:45:09 GMT 50.560387 8.164920 36,950 131 478 64
2022-05-13 06:45:06 GMT 50.564247 8.158239 36,950 131 479 0
2022-05-13 06:45:03 GMT 50.571396 8.145712 36,950 131 479 -64
2022-05-13 06:45:01 GMT 50.571396 8.145712 36,950 131 478 -64
2022-05-13 06:44:59 GMT 50.574398 8.140350 36,950 131 478 0
2022-05-13 06:44:57 GMT 50.577438 8.135087 36,950 131 478 0
2022-05-13 06:44:54 GMT 50.582218 8.126691 36,975 131 478 -128
2022-05-13 06:44:51 GMT 50.589523 8.113837 36,975 131 478 -128
2022-05-13 06:44:49 GMT 50.589523 8.113837 36,975 131 478 -128
2022-05-13 06:44:47 GMT 50.593048 8.107621 36,975 131 478 -64
2022-05-13 06:44:44 GMT 50.596848 8.100899 36,975 131 478 -64
2022-05-13 06:44:42 GMT 50.599861 8.095588 36,975 131 478 64
2022-05-13 06:44:40 GMT 50.606285 8.084156 36,975 131 478 64
2022-05-13 06:44:38 GMT 50.606285 8.084156 36,975 131 478 64
2022-05-13 06:44:35 GMT 50.610031 8.077553 36,975 131 478 64
2022-05-13 06:44:32 GMT 50.614479 8.069606 36,975 131 478 64
2022-05-13 06:44:29 GMT 50.621090 8.057952 36,975 131 478 0
2022-05-13 06:44:27 GMT 50.624580 8.051717 36,975 131 478 0
2022-05-13 06:44:25 GMT 50.624580 8.051717 36,975 131 478 -64
2022-05-13 06:44:22 GMT 50.629002 8.043922 36,975 131 478 -64
2022-05-13 06:44:19 GMT 50.634064 8.034981 36,975 131 478 0
2022-05-13 06:44:16 GMT 50.638687 8.026775 36,975 131 478 0
2022-05-13 06:44:13 GMT 50.642506 8.020020 36,975 131 478 0
2022-05-13 06:44:11 GMT 50.644363 8.016839 36,975 131 478 0
2022-05-13 06:44:09 GMT 50.648163 8.010045 36,975 131 478 0
2022-05-13 06:44:07 GMT 50.652046 8.003169 36,975 131 478 0
2022-05-13 06:44:04 GMT 50.654938 7.998119 36,975 131 478 0
2022-05-13 06:44:01 GMT 50.666702 7.977375 36,975 131 478 -64
2022-05-13 06:43:58 GMT 50.666702 7.977375 36,975 132 478 -64
2022-05-13 06:43:55 GMT 50.669411 7.972585 36,975 131 478 -64
2022-05-13 06:43:52 GMT 50.673340 7.965682 36,975 131 478 -64
2022-05-13 06:43:50 GMT 50.676270 7.960486 36,975 132 477 -128
2022-05-13 06:43:47 GMT 50.679977 7.954027 37,000 132 478 -128
2022-05-13 06:43:45 GMT 50.684418 7.946307 37,000 132 478 -192
2022-05-13 06:43:42 GMT 50.688446 7.939404 37,000 132 478 -192
2022-05-13 06:43:40 GMT 50.690777 7.935410 37,025 132 478 -192
2022-05-13 06:43:37 GMT 50.699577 7.920303 37,025 132 478 -64
2022-05-13 06:43:34 GMT 50.705536 7.910080 37,025 132 478 0
2022-05-13 06:43:31 GMT 50.705536 7.910080 37,025 132 478 -64
2022-05-13 06:43:28 GMT 50.708702 7.904739 37,025 131 478 -64
2022-05-13 06:43:26 GMT 50.712425 7.898331 37,025 132 478 -64
2022-05-13 06:43:24 GMT 50.715179 7.893603 37,025 131 478 -64
2022-05-13 06:43:22 GMT 50.717422 7.889668 37,025 131 478 -64
2022-05-13 06:43:20 GMT 50.720901 7.883433 37,025 130 480 -64
2022-05-13 06:43:17 GMT 50.724854 7.876129 37,025 125 482 -64
2022-05-13 06:43:14 GMT 50.728905 7.868271 37,025 127 480 0
2022-05-13 06:43:11 GMT 50.734543 7.856709 37,025 124 482 -64
2022-05-13 06:43:08 GMT 50.737843 7.849503 37,025 122 483 0
2022-05-13 06:43:06 GMT 50.741150 7.841949 37,025 122 483 -64
2022-05-13 06:43:03 GMT 50.742966 7.837706 37,025 120 484 0
2022-05-13 06:43:00 GMT 50.747406 7.826794 37,025 121 483 0
2022-05-13 06:42:58 GMT 50.749741 7.820781 37,025 121 483 0
2022-05-13 06:42:56 GMT 50.751709 7.815659 37,025 120 483 64
2022-05-13 06:42:53 GMT 50.754696 7.807617 37,025 120 484 128
2022-05-13 06:42:51 GMT 50.758072 7.798660 37,025 120 484 128
2022-05-13 06:42:48 GMT 50.761139 7.790420 37,025 120 485 64
2022-05-13 06:42:46 GMT 50.763657 7.783739 37,000 120 485 64
2022-05-13 06:42:43 GMT 50.767544 7.773285 37,000 120 485 -64
2022-05-13 06:42:40 GMT 50.769882 7.767037 37,000 120 485 -64
2022-05-13 06:42:38 GMT 50.772572 7.759857 37,000 120 485 -64
2022-05-13 06:42:36 GMT 50.774990 7.753525 37,000 120 485 -64
2022-05-13 06:42:33 GMT 50.777756 7.746029 37,025 120 485 0
2022-05-13 06:42:30 GMT 50.781052 7.737196 37,025 120 485 64
2022-05-13 06:42:27 GMT 50.784676 7.727585 37,025 120 485 64
2022-05-13 06:42:25 GMT 50.788071 7.718506 37,000 120 486 64
2022-05-13 06:42:22 GMT 50.790958 7.710876 37,000 120 485 64
2022-05-13 06:42:20 GMT 50.793331 7.704468 37,000 120 485 64
2022-05-13 06:42:17 GMT 50.796570 7.695774 37,000 120 486 64
2022-05-13 06:42:15 GMT 50.802155 7.680854 37,000 120 487 64
2022-05-13 06:42:12 GMT 50.802155 7.680854 37,000 120 486 0
2022-05-13 06:42:10 GMT 50.805130 7.672911 36,975 120 486 0
2022-05-13 06:42:07 GMT 50.808044 7.665100 36,975 120 486 0
2022-05-13 06:42:04 GMT 50.811443 7.655945 36,975 120 486 0
2022-05-13 06:42:01 GMT 50.814838 7.646713 36,975 120 487 64
2022-05-13 06:41:59 GMT 50.817307 7.640100 36,975 120 487 64
2022-05-13 06:41:56 GMT 50.824127 7.621765 36,975 120 487 64
2022-05-13 06:41:53 GMT 50.824127 7.621765 36,975 120 487 64
2022-05-13 06:41:50 GMT 50.828110 7.611076 36,975 120 488 64
2022-05-13 06:41:47 GMT 50.830341 7.605057 36,975 120 487 64
2022-05-13 06:41:45 GMT 50.833603 7.596207 36,975 120 487 64
2022-05-13 06:41:42 GMT 50.835938 7.589920 36,975 120 488 64
2022-05-13 06:41:39 GMT 50.839420 7.580566 36,975 120 488 64
2022-05-13 06:41:36 GMT 50.846497 7.561569 36,950 120 488 64
2022-05-13 06:41:33 GMT 50.846497 7.561569 36,950 120 488 64
2022-05-13 06:41:31 GMT 50.848846 7.555253 36,950 120 488 0
2022-05-13 06:41:28 GMT 50.852051 7.546642 36,950 120 488 0
2022-05-13 06:41:25 GMT 50.855389 7.537613 36,950 120 488 0
2022-05-13 06:41:22 GMT 50.859009 7.527936 36,975 120 488 -64
2022-05-13 06:41:19 GMT 50.862076 7.519622 36,975 120 488 -64
2022-05-13 06:41:17 GMT 50.864792 7.512436 36,975 120 488 -64
2022-05-13 06:41:15 GMT 50.866371 7.508163 36,975 120 488 -64
2022-05-13 06:41:12 GMT 50.870842 7.496185 36,975 120 488 0
2022-05-13 06:41:10 GMT 50.873978 7.487776 36,975 120 488 0
2022-05-13 06:41:07 GMT 50.879360 7.473145 36,975 120 488 0
2022-05-13 06:41:05 GMT 50.879360 7.473145 36,975 120 488 -64
2022-05-13 06:41:02 GMT 50.882629 7.464393 36,975 120 488 0
2022-05-13 06:40:59 GMT 50.886112 7.454987 36,975 120 488 -64
2022-05-13 06:40:56 GMT 50.889511 7.445755 36,975 120 488 -128
2022-05-13 06:40:53 GMT 50.896679 7.426376 36,975 120 488 -64
2022-05-13 06:40:50 GMT 50.896679 7.426376 37,000 120 488 -64
2022-05-13 06:40:47 GMT 50.898422 7.421636 37,000 120 488 -64
2022-05-13 06:40:45 GMT 50.900940 7.414881 37,000 120 488 0
2022-05-13 06:40:42 GMT 50.905472 7.402558 37,000 120 488 0
2022-05-13 06:40:39 GMT 50.907898 7.395935 37,000 120 487 0
2022-05-13 06:40:37 GMT 50.909805 7.390671 37,000 120 488 0
2022-05-13 06:40:35 GMT 50.913204 7.381439 37,000 120 488 -64
2022-05-13 06:40:32 GMT 50.915451 7.375389 37,000 120 488 0
2022-05-13 06:40:30 GMT 50.917694 7.369228 37,000 120 489 -64
2022-05-13 06:40:28 GMT 50.921127 7.360023 37,000 120 488 -64
2022-05-13 06:40:25 GMT 50.924515 7.350744 37,000 120 488 -64
2022-05-13 06:40:22 GMT 50.928429 7.340088 37,000 120 489 -64
2022-05-13 06:40:19 GMT 50.934174 7.324540 37,000 120 489 -128
2022-05-13 06:40:16 GMT 50.937553 7.315445 37,025 120 489 -128
2022-05-13 06:40:13 GMT 50.937553 7.315445 37,025 120 491 -128
2022-05-13 06:40:09 GMT 50.943790 7.298431 37,025 120 489 -64
2022-05-13 06:40:06 GMT 50.945419 7.294083 37,025 120 489 -64
2022-05-13 06:40:04 GMT 50.948257 7.286377 37,025 120 489 0
2022-05-13 06:40:01 GMT 50.950634 7.279816 37,025 120 489 0
2022-05-13 06:39:59 GMT 50.954086 7.270425 37,025 120 489 0
2022-05-13 06:39:56 GMT 50.956547 7.263794 37,025 120 490 64
2022-05-13 06:39:54 GMT 50.958572 7.258400 37,025 120 490 64
2022-05-13 06:39:52 GMT 50.961502 7.250308 37,025 120 490 0
2022-05-13 06:39:49 GMT 50.968090 7.232513 37,025 120 490 0
2022-05-13 06:39:46 GMT 50.969788 7.228039 37,025 120 491 -64
2022-05-13 06:39:44 GMT 50.974281 7.215805 37,025 120 490 -128
2022-05-13 06:39:41 GMT 50.977028 7.208328 37,025 120 490 -128
2022-05-13 06:39:38 GMT 50.977028 7.208328 37,025 120 491 -128
2022-05-13 06:39:36 GMT 50.979218 7.202454 37,050 120 491 -128
2022-05-13 06:39:34 GMT 50.982147 7.194366 37,050 120 491 -128
2022-05-13 06:39:31 GMT 50.985031 7.186469 37,050 120 491 64
2022-05-13 06:39:29 GMT 50.987549 7.179640 37,050 120 491 0
2022-05-13 06:39:27 GMT 50.990204 7.172318 37,050 119 490 0
2022-05-13 06:39:24 GMT 50.993275 7.163925 37,025 120 491 64
2022-05-13 06:39:21 GMT 50.997696 7.151794 37,050 119 490 64
2022-05-13 06:39:18 GMT 50.999931 7.145615 37,050 120 491 64
2022-05-13 06:39:16 GMT 51.002678 7.138138 37,025 120 491 64
2022-05-13 06:39:14 GMT 51.005051 7.131577 37,025 120 491 64
2022-05-13 06:39:11 GMT 51.008591 7.121964 37,025 120 491 0
2022-05-13 06:39:08 GMT 51.014099 7.106892 37,025 120 491 0
2022-05-13 06:39:06 GMT 51.014099 7.106892 37,025 120 491 0
2022-05-13 06:39:03 GMT 51.018040 7.096100 37,025 120 492 0
2022-05-13 06:39:00 GMT 51.020462 7.089615 37,025 120 492 0
2022-05-13 06:38:57 GMT 51.023804 7.080392 37,025 119 492 64
2022-05-13 06:38:54 GMT 51.028015 7.068886 37,025 120 491 0
2022-05-13 06:38:51 GMT 51.031586 7.059161 37,025 120 492 0
2022-05-13 06:38:48 GMT 51.034382 7.051544 37,025 120 491 0
2022-05-13 06:38:46 GMT 51.036118 7.046690 37,025 119 492 64
2022-05-13 06:38:43 GMT 51.039780 7.036743 37,025 119 492 64
2022-05-13 06:38:41 GMT 51.046391 7.018433 37,025 119 492 64
2022-05-13 06:38:38 GMT 51.046391 7.018433 37,025 119 492 64
2022-05-13 06:38:35 GMT 51.048752 7.012024 37,025 119 493 0
2022-05-13 06:38:33 GMT 51.050903 7.006085 37,025 119 492 64
2022-05-13 06:38:31 GMT 51.053375 6.999182 37,025 119 492 0
2022-05-13 06:38:28 GMT 51.056580 6.990422 37,025 119 493 0
2022-05-13 06:38:26 GMT 51.063244 6.972122 37,025 119 493 0
2022-05-13 06:38:23 GMT 51.063244 6.972122 37,025 119 493 -64
2022-05-13 06:38:20 GMT 51.066643 6.962662 37,025 119 493 -64
2022-05-13 06:38:17 GMT 51.070599 6.951752 37,025 119 493 0
2022-05-13 06:38:15 GMT 51.071762 6.948624 37,025 119 493 0
2022-05-13 06:38:13 GMT 51.073975 6.942469 37,025 119 493 0
2022-05-13 06:38:11 GMT 51.077442 6.932907 37,025 119 493 0
2022-05-13 06:38:08 GMT 51.079742 6.926509 37,025 119 493 64
2022-05-13 06:38:05 GMT 51.083122 6.917267 37,025 119 493 64
2022-05-13 06:38:03 GMT 51.084869 6.912405 37,025 119 493 64
2022-05-13 06:38:01 GMT 51.088196 6.903152 37,025 119 493 64
2022-05-13 06:37:58 GMT 51.091461 6.894218 37,025 119 493 0
2022-05-13 06:37:55 GMT 51.094807 6.884995 37,025 119 493 0
2022-05-13 06:37:52 GMT 51.097878 6.876526 37,025 119 493 0
2022-05-13 06:37:50 GMT 51.103558 6.860809 37,025 119 493 0
2022-05-13 06:37:47 GMT 51.103558 6.860809 37,025 119 492 0
2022-05-13 06:37:45 GMT 51.106026 6.853943 37,025 119 492 0
2022-05-13 06:37:42 GMT 51.110493 6.841736 37,025 119 492 0
2022-05-13 06:37:39 GMT 51.112167 6.837006 37,025 119 492 64
2022-05-13 06:37:36 GMT 51.116226 6.825924 37,025 119 492 0
2022-05-13 06:37:34 GMT 51.127441 6.794895 37,025 119 492 0
2022-05-13 06:37:29 GMT 51.127441 6.794895 37,025 119 492 64
2022-05-13 06:37:25 GMT 51.129822 6.788289 37,000 119 493 0
2022-05-13 06:37:22 GMT 51.132744 6.780319 37,000 119 493 0
2022-05-13 06:37:19 GMT 51.138519 6.764297 37,000 119 493 0
2022-05-13 06:37:16 GMT 51.138519 6.764297 37,000 119 493 0
2022-05-13 06:37:14 GMT 51.140854 6.757854 37,000 119 493 0
2022-05-13 06:37:12 GMT 51.144012 6.749094 37,000 119 493 0
2022-05-13 06:37:09 GMT 51.145844 6.744047 37,000 119 493 0
2022-05-13 06:37:07 GMT 51.149094 6.734990 37,000 119 492 64
2022-05-13 06:37:04 GMT 51.153992 6.721480 37,000 119 492 64
2022-05-13 06:37:01 GMT 51.155548 6.717100 37,000 119 492 64
2022-05-13 06:36:58 GMT 51.159931 6.705017 37,000 119 492 64
2022-05-13 06:36:55 GMT 51.163239 6.695722 37,000 119 492 64
2022-05-13 06:36:52 GMT 51.165756 6.688818 37,000 119 492 0
2022-05-13 06:36:49 GMT 51.169052 6.679762 37,000 119 493 0
2022-05-13 06:36:46 GMT 51.173218 6.668107 37,000 119 493 0
2022-05-13 06:36:43 GMT 51.176605 6.658680 37,000 119 493 0
2022-05-13 06:36:41 GMT 51.178848 6.652444 37,000 119 492 64
2022-05-13 06:36:38 GMT 51.181717 6.644440 36,975 119 491 64
2022-05-13 06:36:36 GMT 51.184093 6.637878 36,975 119 491 64
2022-05-13 06:36:34 GMT 51.187584 6.628113 36,975 119 491 64
2022-05-13 06:36:31 GMT 51.190704 6.619485 36,975 119 491 64
2022-05-13 06:36:28 GMT 51.195358 6.606445 36,975 119 491 64
2022-05-13 06:36:26 GMT 51.195358 6.606445 36,975 119 491 64
2022-05-13 06:36:24 GMT 51.198212 6.598478 36,975 119 491 64
2022-05-13 06:36:21 GMT 51.201317 6.589890 36,975 119 491 0
2022-05-13 06:36:18 GMT 51.204716 6.580429 36,975 119 491 0
2022-05-13 06:36:16 GMT 51.206390 6.575775 36,975 119 491 0
2022-05-13 06:36:14 GMT 51.209152 6.568117 36,975 119 491 0
2022-05-13 06:36:11 GMT 51.212494 6.558689 36,975 119 491 0
2022-05-13 06:36:08 GMT 51.216522 6.547406 36,975 119 491 0
2022-05-13 06:36:05 GMT 51.218029 6.543198 36,975 119 491 0
2022-05-13 06:36:03 GMT 51.221466 6.533599 36,975 119 491 0
2022-05-13 06:36:01 GMT 51.223755 6.527176 36,975 119 490 0
2022-05-13 06:35:58 GMT 51.227142 6.517565 36,975 119 489 0
2022-05-13 06:35:55 GMT 51.229294 6.511626 36,975 119 490 0
2022-05-13 06:35:53 GMT 51.232544 6.502570 36,975 119 490 0
2022-05-13 06:35:50 GMT 51.236435 6.491584 36,975 119 490 64
2022-05-13 06:35:47 GMT 51.238586 6.485645 36,950 119 490 0
2022-05-13 06:35:45 GMT 51.240978 6.478882 36,950 119 489 0
2022-05-13 06:35:43 GMT 51.243912 6.470795 36,975 119 490 0
2022-05-13 06:35:40 GMT 51.249825 6.454163 36,950 119 489 0
2022-05-13 06:35:37 GMT 51.249825 6.454163 36,975 119 489 0
2022-05-13 06:35:35 GMT 51.254665 6.440735 36,975 119 489 -64
2022-05-13 06:35:33 GMT 51.254665 6.440735 36,975 119 489 -64
2022-05-13 06:35:31 GMT 51.257458 6.432953 36,975 119 489 -64
2022-05-13 06:35:29 GMT 51.258671 6.429520 36,975 119 489 -64
2022-05-13 06:35:27 GMT 51.260880 6.423439 36,975 119 489 -64
2022-05-13 06:35:25 GMT 51.264221 6.414011 36,975 119 489 -64
2022-05-13 06:35:22 GMT 51.267929 6.403767 36,975 119 488 -64
2022-05-13 06:35:19 GMT 51.270813 6.395602 36,975 119 488 -64
2022-05-13 06:35:16 GMT 51.274220 6.386032 36,975 119 488 0
2022-05-13 06:35:13 GMT 51.278137 6.374965 36,975 119 488 -64
2022-05-13 06:35:10 GMT 51.281570 6.365241 36,975 119 488 -64
2022-05-13 06:35:07 GMT 51.286652 6.350840 37,000 119 488 -64
2022-05-13 06:35:03 GMT 51.289215 6.343639 37,000 119 488 0
2022-05-13 06:35:00 GMT 51.291321 6.337701 36,975 119 488 0
2022-05-13 06:34:58 GMT 51.294792 6.327820 37,000 119 488 64
2022-05-13 06:34:55 GMT 51.297119 6.321259 36,975 119 488 64
2022-05-13 06:34:52 GMT 51.301392 6.309196 36,975 119 488 0
2022-05-13 06:34:49 GMT 51.303589 6.302886 36,975 119 488 0
2022-05-13 06:34:46 GMT 51.307434 6.291900 36,975 119 488 0
2022-05-13 06:34:42 GMT 51.310806 6.282349 36,975 119 488 0
2022-05-13 06:34:40 GMT 51.313461 6.274872 36,975 119 488 0
2022-05-13 06:34:38 GMT 51.315628 6.268739 36,975 119 488 0
2022-05-13 06:34:35 GMT 51.319328 6.258240 36,975 119 488 0
2022-05-13 06:34:32 GMT 51.322128 6.250256 36,975 119 488 0
2022-05-13 06:34:29 GMT 51.326111 6.238898 36,975 119 488 0
2022-05-13 06:34:26 GMT 51.328995 6.230807 36,975 119 488 0
2022-05-13 06:34:24 GMT 51.331944 6.222458 36,975 119 488 0
2022-05-13 06:34:21 GMT 51.334270 6.215897 36,975 119 488 -64
2022-05-13 06:34:19 GMT 51.336040 6.210861 36,975 119 488 0
2022-05-13 06:34:17 GMT 51.339344 6.201477 36,975 119 488 0
2022-05-13 06:34:14 GMT 51.341721 6.194656 36,975 119 488 -64
2022-05-13 06:34:12 GMT 51.344147 6.187827 37,000 119 488 -64
2022-05-13 06:34:09 GMT 51.347958 6.176987 37,000 119 488 -64
2022-05-13 06:34:07 GMT 51.350285 6.170349 37,000 119 488 -64
2022-05-13 06:34:04 GMT 51.352798 6.163101 37,000 119 488 -64
2022-05-13 06:34:02 GMT 51.356335 6.153107 37,000 119 488 -64
2022-05-13 06:33:59 GMT 51.359081 6.145248 37,000 119 488 -64
2022-05-13 06:33:56 GMT 51.361679 6.137869 37,000 119 488 -64
2022-05-13 06:33:54 GMT 51.365112 6.128144 37,000 119 488 -64
2022-05-13 06:33:51 GMT 51.368454 6.118717 37,000 119 488 -64
2022-05-13 06:33:48 GMT 51.372349 6.107559 37,000 119 488 -64
2022-05-13 06:33:46 GMT 51.372349 6.107559 37,000 119 488 -64
2022-05-13 06:33:44 GMT 51.375561 6.098480 37,000 119 488 -64
2022-05-13 06:33:42 GMT 51.378773 6.089401 37,000 119 488 0
2022-05-13 06:33:39 GMT 51.381500 6.081675 37,025 119 488 0
2022-05-13 06:33:36 GMT 51.387199 6.065598 37,025 119 488 0
2022-05-13 06:33:34 GMT 51.389603 6.058811 37,025 119 488 0
2022-05-13 06:33:31 GMT 51.393021 6.049271 37,025 119 488 0
2022-05-13 06:33:28 GMT 51.393021 6.049271 37,025 119 488 0
2022-05-13 06:33:25 GMT 51.396835 6.038472 37,025 119 488 0
2022-05-13 06:33:23 GMT 51.398529 6.033721 37,025 119 488 0
2022-05-13 06:33:21 GMT 51.401321 6.025927 37,025 119 488 0
2022-05-13 06:33:19 GMT 51.403587 6.019516 37,025 119 488 0
2022-05-13 06:33:16 GMT 51.406860 6.010264 37,025 119 489 0
2022-05-13 06:33:13 GMT 51.410011 6.001282 37,025 119 488 0
2022-05-13 06:33:10 GMT 51.415741 5.985099 37,025 119 488 0
2022-05-13 06:33:07 GMT 51.415741 5.985099 37,025 119 488 0
2022-05-13 06:33:05 GMT 51.419086 5.975494 37,025 119 489 0
2022-05-13 06:33:03 GMT 51.420765 5.970764 37,025 119 489 0
2022-05-13 06:33:01 GMT 51.426407 5.954516 37,025 119 489 0
2022-05-13 06:32:58 GMT 51.426407 5.954516 37,025 119 489 -64
2022-05-13 06:32:56 GMT 51.429096 5.946808 37,025 119 488 -64
2022-05-13 06:32:53 GMT 51.431808 5.939075 37,025 119 488 -64
2022-05-13 06:32:51 GMT 51.436752 5.924897 37,025 119 488 -64
2022-05-13 06:32:49 GMT 51.436752 5.924897 37,025 119 488 -64
2022-05-13 06:32:46 GMT 51.440186 5.915098 37,025 119 488 -64
2022-05-13 06:32:43 GMT 51.444901 5.901588 37,025 119 488 -64
2022-05-13 06:32:41 GMT 51.444901 5.901588 37,025 119 488 0
2022-05-13 06:32:39 GMT 51.447578 5.893860 37,050 119 488 0
2022-05-13 06:32:36 GMT 51.450623 5.885109 37,025 119 488 0
2022-05-13 06:32:33 GMT 51.453861 5.875854 37,025 119 488 0
2022-05-13 06:32:31 GMT 51.455956 5.869827 37,025 119 489 0
2022-05-13 06:32:29 GMT 51.458939 5.861282 37,025 119 489 0
2022-05-13 06:32:26 GMT 51.462334 5.851517 37,025 119 489 64
2022-05-13 06:32:23 GMT 51.465042 5.843762 37,025 119 490 0
2022-05-13 06:32:21 GMT 51.469620 5.830474 37,025 119 489 64
2022-05-13 06:32:19 GMT 51.469620 5.830474 37,025 119 489 64
2022-05-13 06:32:16 GMT 51.475983 5.812139 37,025 119 489 64
2022-05-13 06:32:13 GMT 51.475983 5.812139 37,025 119 489 64
2022-05-13 06:32:11 GMT 51.478256 5.805664 37,025 119 489 0
2022-05-13 06:32:09 GMT 51.480446 5.799332 37,025 119 489 0
2022-05-13 06:32:06 GMT 51.484634 5.787277 37,025 119 490 0
2022-05-13 06:32:03 GMT 51.487427 5.779254 37,025 119 490 0
2022-05-13 06:32:01 GMT 51.489624 5.772870 37,000 119 490 0
2022-05-13 06:31:58 GMT 51.495621 5.755692 37,000 119 489 0
2022-05-13 06:31:55 GMT 51.495621 5.755692 37,000 119 489 0
2022-05-13 06:31:52 GMT 51.500748 5.740950 37,025 119 489 0
2022-05-13 06:31:50 GMT 51.500748 5.740950 37,025 119 489 0
2022-05-13 06:31:48 GMT 51.503952 5.731746 37,025 119 489 0
2022-05-13 06:31:45 GMT 51.507862 5.720520 37,025 119 489 0
2022-05-13 06:31:42 GMT 51.510563 5.712585 37,025 119 489 0
2022-05-13 06:31:39 GMT 51.513290 5.704799 37,000 118 490 64
2022-05-13 06:31:37 GMT 51.519745 5.686093 37,000 118 490 64
2022-05-13 06:31:34 GMT 51.519745 5.686093 37,000 118 490 64
2022-05-13 06:31:31 GMT 51.522945 5.676804 37,000 118 490 64
2022-05-13 06:31:28 GMT 51.525272 5.670090 37,000 118 490 64
2022-05-13 06:31:26 GMT 51.527554 5.663452 37,000 118 489 64
2022-05-13 06:31:24 GMT 51.529835 5.656815 37,000 118 489 64
2022-05-13 06:31:22 GMT 51.531876 5.650907 37,000 118 489 64
2022-05-13 06:31:20 GMT 51.533745 5.645370 37,000 118 489 64
2022-05-13 06:31:18 GMT 51.536224 5.638213 36,975 118 489 64
2022-05-13 06:31:15 GMT 51.540115 5.626782 36,975 118 489 0
2022-05-13 06:31:12 GMT 51.542862 5.618839 37,000 118 489 -64
2022-05-13 06:31:10 GMT 51.546825 5.607224 37,000 118 489 -64
2022-05-13 06:31:06 GMT 51.552460 5.590744 37,000 118 489 0
2022-05-13 06:31:03 GMT 51.552460 5.590744 37,000 118 489 0
2022-05-13 06:31:01 GMT 51.554321 5.585327 37,000 118 489 0
2022-05-13 06:30:58 GMT 51.561859 5.563239 37,000 118 489 -64
2022-05-13 06:30:55 GMT 51.565338 5.553069 37,000 118 489 -64
2022-05-13 06:30:52 GMT 51.565338 5.553069 37,000 118 489 0
2022-05-13 06:30:49 GMT 51.570618 5.537643 37,000 118 489 0
2022-05-13 06:30:45 GMT 51.572899 5.531006 37,000 118 489 0
2022-05-13 06:30:42 GMT 51.575504 5.523376 37,000 118 488 0
2022-05-13 06:30:40 GMT 51.577225 5.518265 37,000 118 488 64
2022-05-13 06:30:38 GMT 51.580578 5.508499 37,000 118 488 64
2022-05-13 06:30:35 GMT 51.582687 5.502295 37,000 118 488 0
2022-05-13 06:30:33 GMT 51.585846 5.493090 37,000 118 488 0
2022-05-13 06:30:30 GMT 51.588455 5.485518 37,000 118 487 64
2022-05-13 06:30:27 GMT 51.592484 5.473790 37,000 118 487 0
2022-05-13 06:30:24 GMT 51.594639 5.467606 37,000 118 487 0
2022-05-13 06:30:21 GMT 51.598709 5.455677 37,000 118 487 0
2022-05-13 06:30:18 GMT 51.601898 5.446396 37,000 118 488 0
2022-05-13 06:30:15 GMT 51.605717 5.435257 37,000 118 487 0
2022-05-13 06:30:12 GMT 51.608696 5.426712 37,000 118 488 0
2022-05-13 06:30:09 GMT 51.610382 5.421827 37,000 118 488 0
2022-05-13 06:30:07 GMT 51.613174 5.413587 37,000 118 487 0
2022-05-13 06:30:04 GMT 51.616703 5.403290 37,000 118 487 0
2022-05-13 06:30:01 GMT 51.621078 5.390625 37,000 118 487 0
2022-05-13 06:29:58 GMT 51.623451 5.383682 37,000 118 486 0
2022-05-13 06:29:55 GMT 51.626896 5.373535 37,000 118 486 0
2022-05-13 06:29:52 GMT 51.629505 5.365906 37,000 118 486 -64
2022-05-13 06:29:50 GMT 51.631786 5.359268 37,000 118 486 -64
2022-05-13 06:29:47 GMT 51.634323 5.351826 37,000 118 486 64
2022-05-13 06:29:45 GMT 51.637695 5.341797 37,000 118 486 64
2022-05-13 06:29:42 GMT 51.640396 5.333939 37,000 118 486 64
2022-05-13 06:29:40 GMT 51.642929 5.326513 36,975 118 486 64
2022-05-13 06:29:37 GMT 51.645702 5.318375 36,975 118 486 0
2022-05-13 06:29:34 GMT 51.648972 5.308698 37,000 118 486 0
2022-05-13 06:29:31 GMT 51.652084 5.299567 36,975 118 486 -64
2022-05-13 06:29:28 GMT 51.655289 5.289991 37,000 118 486 -64
2022-05-13 06:29:25 GMT 51.658039 5.281982 37,000 118 486 -64
2022-05-13 06:29:23 GMT 51.660648 5.274353 37,000 118 486 -64
2022-05-13 06:29:21 GMT 51.663349 5.266418 37,000 118 486 -64
2022-05-13 06:29:19 GMT 51.665581 5.259781 37,000 118 486 0
2022-05-13 06:29:16 GMT 51.668373 5.251541 37,000 118 486 0
2022-05-13 06:29:14 GMT 51.670074 5.246640 37,000 118 486 64
2022-05-13 06:29:12 GMT 51.675919 5.229416 37,000 118 486 64
2022-05-13 06:29:09 GMT 51.675919 5.229416 37,000 118 485 0
2022-05-13 06:29:06 GMT 51.679176 5.219955 37,000 118 486 0
2022-05-13 06:29:04 GMT 51.681412 5.213242 37,000 118 485 0
2022-05-13 06:29:02 GMT 51.683598 5.206985 37,000 118 485 -64
2022-05-13 06:28:59 GMT 51.686810 5.197449 37,000 118 485 -64
2022-05-13 06:28:56 GMT 51.690308 5.187180 37,000 118 485 0
2022-05-13 06:28:53 GMT 51.694153 5.175748 37,000 118 485 0
2022-05-13 06:28:50 GMT 51.699238 5.160751 37,000 118 485 0
2022-05-13 06:28:48 GMT 51.699238 5.160751 37,000 118 485 64
2022-05-13 06:28:45 GMT 51.701847 5.153122 37,000 118 485 0
2022-05-13 06:28:43 GMT 51.703522 5.148087 37,000 118 485 0
2022-05-13 06:28:40 GMT 51.707386 5.136642 37,000 118 484 0
2022-05-13 06:28:37 GMT 51.710953 5.126013 37,000 118 485 -64
2022-05-13 06:28:34 GMT 51.713577 5.118256 37,000 118 485 -64
2022-05-13 06:28:31 GMT 51.716400 5.109905 37,000 118 485 -64
2022-05-13 06:28:29 GMT 51.720188 5.098648 37,000 118 485 -64
2022-05-13 06:28:24 GMT 51.724274 5.086447 37,025 118 485 -128
2022-05-13 06:28:22 GMT 51.729675 5.070265 37,025 118 485 -64
2022-05-13 06:28:19 GMT 51.729675 5.070265 37,025 118 485 0
2022-05-13 06:28:16 GMT 51.733780 5.058060 37,025 118 485 0
2022-05-13 06:28:13 GMT 51.735783 5.052032 37,025 118 484 0
2022-05-13 06:28:10 GMT 51.738831 5.042947 37,025 118 484 0
2022-05-13 06:28:08 GMT 51.740437 5.038071 37,025 118 484 64
2022-05-13 06:28:06 GMT 51.743042 5.030254 37,025 118 484 0
2022-05-13 06:28:03 GMT 51.747528 5.016966 37,000 118 483 0
2022-05-13 06:28:00 GMT 51.750214 5.008850 37,025 118 484 0
2022-05-13 06:27:57 GMT 51.752541 5.001907 37,000 118 483 0
2022-05-13 06:27:54 GMT 51.756500 4.990158 37,025 118 484 0
2022-05-13 06:27:51 GMT 51.759064 4.982448 37,025 118 484 0
2022-05-13 06:27:49 GMT 51.761993 4.973755 37,025 118 484 0
2022-05-13 06:27:46 GMT 51.764282 4.966934 37,025 118 484 0
2022-05-13 06:27:44 GMT 51.767487 4.957432 37,025 118 484 0
2022-05-13 06:27:41 GMT 51.770050 4.949860 37,025 118 483 0
2022-05-13 06:27:38 GMT 51.773804 4.938726 37,025 118 483 0
2022-05-13 06:27:35 GMT 51.776375 4.931030 37,025 118 483 0
2022-05-13 06:27:33 GMT 51.779030 4.923096 37,025 118 483 0
2022-05-13 06:27:30 GMT 51.781170 4.916763 37,025 118 483 64
2022-05-13 06:27:28 GMT 51.783875 4.908662 37,025 118 484 64
2022-05-13 06:27:25 GMT 51.790375 4.889361 37,000 118 484 0
2022-05-13 06:27:22 GMT 51.790375 4.889361 37,000 118 484 64
2022-05-13 06:27:19 GMT 51.793442 4.880157 37,000 118 484 0
2022-05-13 06:27:17 GMT 51.795044 4.875406 37,000 118 484 0
2022-05-13 06:27:14 GMT 51.799210 4.863083 37,000 118 484 0
2022-05-13 06:27:11 GMT 51.801956 4.854844 37,000 118 484 0
2022-05-13 06:27:08 GMT 51.805252 4.845045 37,000 118 484 0
2022-05-13 06:27:06 GMT 51.806915 4.840088 37,000 118 484 0
2022-05-13 06:27:04 GMT 51.809692 4.831683 37,000 118 484 0
2022-05-13 06:27:01 GMT 51.812027 4.824705 37,000 118 484 0
2022-05-13 06:26:58 GMT 51.818554 4.805222 37,000 118 483 0
2022-05-13 06:26:56 GMT 51.818554 4.805222 37,000 118 483 0
2022-05-13 06:26:53 GMT 51.820175 4.800283 37,000 118 483 0
2022-05-13 06:26:51 GMT 51.823380 4.790781 37,000 118 483 0
2022-05-13 06:26:48 GMT 51.826309 4.781948 37,000 118 483 0
2022-05-13 06:26:45 GMT 51.828415 4.775564 37,000 118 483 0
2022-05-13 06:26:43 GMT 51.830608 4.769135 37,000 118 483 0
2022-05-13 06:26:41 GMT 51.833817 4.759456 37,000 118 482 0
2022-05-13 06:26:38 GMT 51.836975 4.749954 37,000 118 482 0
2022-05-13 06:26:35 GMT 51.839310 4.742902 37,000 118 482 0
2022-05-13 06:26:33 GMT 51.842525 4.733276 37,000 118 482 0
2022-05-13 06:26:30 GMT 51.845535 4.724270 37,000 118 482 0
2022-05-13 06:26:27 GMT 51.851944 4.704895 37,000 118 482 0
2022-05-13 06:26:24 GMT 51.851944 4.704895 37,000 118 482 -64
2022-05-13 06:26:21 GMT 51.855190 4.695282 37,025 118 482 -64
2022-05-13 06:26:18 GMT 51.857285 4.688950 37,000 118 482 -64
2022-05-13 06:26:16 GMT 51.859192 4.683228 37,025 118 482 -64
2022-05-13 06:26:13 GMT 51.863434 4.670377 37,025 118 482 0
2022-05-13 06:26:10 GMT 51.866180 4.662137 37,000 118 481 0
2022-05-13 06:26:08 GMT 51.868286 4.655828 37,000 118 481 0
2022-05-13 06:26:06 GMT 51.869751 4.651374 37,025 118 481 64
2022-05-13 06:26:03 GMT 51.877441 4.628067 37,000 118 481 64
2022-05-13 06:26:00 GMT 51.877441 4.628067 37,025 118 481 0
2022-05-13 06:25:57 GMT 51.879444 4.622040 37,000 118 481 0
2022-05-13 06:25:55 GMT 51.881119 4.617004 37,000 118 482 0
2022-05-13 06:25:53 GMT 51.883308 4.610367 37,000 118 482 0
2022-05-13 06:25:51 GMT 51.886642 4.600302 37,000 118 482 0
2022-05-13 06:25:48 GMT 51.888931 4.593399 37,000 118 481 0
2022-05-13 06:25:45 GMT 51.892227 4.583526 37,000 118 481 64
2022-05-13 06:25:43 GMT 51.894245 4.577375 37,000 118 481 64
2022-05-13 06:25:41 GMT 51.897675 4.567108 37,000 118 481 0
2022-05-13 06:25:38 GMT 51.899925 4.560268 37,000 118 481 64
2022-05-13 06:25:36 GMT 51.902069 4.553990 37,000 118 481 64
2022-05-13 06:25:33 GMT 51.905094 4.544809 37,000 118 481 64
2022-05-13 06:25:31 GMT 51.908203 4.535446 37,000 118 482 0
2022-05-13 06:25:28 GMT 51.910446 4.528643 37,000 118 482 -64
2022-05-13 06:25:25 GMT 51.913559 4.519272 37,000 118 482 -64
2022-05-13 06:25:22 GMT 51.917770 4.506607 37,000 118 481 -64
2022-05-13 06:25:19 GMT 51.919292 4.502040 37,000 118 481 -64
2022-05-13 06:25:17 GMT 51.921982 4.493942 37,000 118 481 -64
2022-05-13 06:25:15 GMT 51.924042 4.487758 37,000 118 481 0
2022-05-13 06:25:12 GMT 51.927246 4.478073 37,000 118 481 0
2022-05-13 06:25:10 GMT 51.929672 4.470651 37,000 118 481 0
2022-05-13 06:25:07 GMT 51.932373 4.462585 37,000 118 481 0
2022-05-13 06:25:05 GMT 51.938145 4.444990 37,000 118 481 0
2022-05-13 06:25:02 GMT 51.938145 4.444990 37,000 118 481 -64
2022-05-13 06:24:59 GMT 51.940987 4.436436 37,000 118 481 -64
2022-05-13 06:24:56 GMT 51.946991 4.417995 37,025 117 480 -64
2022-05-13 06:24:53 GMT 51.946991 4.417995 37,000 117 480 -64
2022-05-13 06:24:51 GMT 51.948715 4.412766 37,025 117 480 0
2022-05-13 06:24:48 GMT 51.952950 4.399867 37,025 117 480 0
2022-05-13 06:24:45 GMT 51.956161 4.390058 37,025 117 480 0
2022-05-13 06:24:42 GMT 51.957603 4.385664 37,025 117 480 0
2022-05-13 06:24:40 GMT 51.960072 4.377973 37,025 117 480 0
2022-05-13 06:24:38 GMT 51.962585 4.370361 37,025 117 480 0
2022-05-13 06:24:35 GMT 51.968403 4.352626 37,025 117 480 0
2022-05-13 06:24:32 GMT 51.968403 4.352626 37,025 117 480 0
2022-05-13 06:24:29 GMT 51.972641 4.339600 37,025 117 480 0
2022-05-13 06:24:26 GMT 51.975906 4.329605 37,025 117 480 0
2022-05-13 06:24:23 GMT 51.980988 4.314041 37,025 117 480 -64
2022-05-13 06:24:21 GMT 51.980988 4.314041 37,025 117 480 0
2022-05-13 06:24:18 GMT 51.982956 4.308014 37,025 117 480 0
2022-05-13 06:24:15 GMT 51.986187 4.298009 37,025 117 479 0
2022-05-13 06:24:12 GMT 51.989365 4.288330 37,025 117 480 -64
2022-05-13 06:24:10 GMT 51.991425 4.281998 37,025 117 480 -64
2022-05-13 06:24:07 GMT 51.996384 4.266854 37,025 117 480 -64
2022-05-13 06:24:05 GMT 51.996384 4.266854 37,025 117 480 -64
2022-05-13 06:24:02 GMT 51.999756 4.256592 37,025 117 480 -64
2022-05-13 06:23:59 GMT 52.003281 4.245834 37,025 118 480 -64
2022-05-13 06:23:56 GMT 52.007088 4.234209 37,025 117 480 0
2022-05-13 06:23:53 GMT 52.009735 4.226151 37,025 117 480 0
2022-05-13 06:23:51 GMT 52.011837 4.219613 37,025 117 479 0
2022-05-13 06:23:48 GMT 52.013931 4.213335 37,025 117 479 0
2022-05-13 06:23:46 GMT 52.016144 4.206467 37,025 117 479 64
2022-05-13 06:23:44 GMT 52.018261 4.199995 37,000 117 479 64
2022-05-13 06:23:41 GMT 52.021637 4.189682 37,025 117 479 128
2022-05-13 06:23:39 GMT 52.023849 4.182887 37,000 117 479 128
2022-05-13 06:23:36 GMT 52.027954 4.170380 37,000 117 479 64
2022-05-13 06:23:33 GMT 52.029667 4.165152 37,000 117 479 64
2022-05-13 06:23:30 GMT 52.033539 4.153214 37,000 117 479 0
2022-05-13 06:23:27 GMT 52.036652 4.143677 37,000 117 480 0
2022-05-13 06:23:24 GMT 52.039677 4.134312 37,025 117 479 -64
2022-05-13 06:23:21 GMT 52.041630 4.128270 37,000 117 480 -128
2022-05-13 06:23:19 GMT 52.044331 4.120030 37,000 117 479 -64
2022-05-13 06:23:16 GMT 52.047867 4.109039 37,000 117 479 -64
2022-05-13 06:23:14 GMT 52.049870 4.102844 37,025 117 478 -64
2022-05-13 06:23:12 GMT 52.051498 4.097822 37,025 117 479 192
2022-05-13 06:23:09 GMT 52.054573 4.088248 37,025 117 478 64
2022-05-13 06:23:06 GMT 52.058159 4.077105 37,000 117 479 128
2022-05-13 06:23:03 GMT 52.061138 4.067923 37,000 117 479 128
2022-05-13 06:23:00 GMT 52.064667 4.056931 37,000 117 479 64
2022-05-13 06:22:57 GMT 52.067699 4.047599 36,975 117 479 128
2022-05-13 06:22:54 GMT 52.069885 4.040756 36,975 117 479 0
2022-05-13 06:22:51 GMT 52.073044 4.030914 36,975 117 479 64
2022-05-13 06:22:48 GMT 52.076431 4.020386 36,975 117 479 0
2022-05-13 06:22:45 GMT 52.079151 4.011972 36,975 117 479 0
2022-05-13 06:22:42 GMT 52.082291 4.002228 36,975 117 478 0
2022-05-13 06:22:39 GMT 52.085018 3.993844 36,975 117 478 -64
2022-05-13 06:22:36 GMT 52.088654 3.982544 36,975 117 478 0
2022-05-13 06:22:33 GMT 52.090988 3.975220 36,975 117 478 0
2022-05-13 06:22:30 GMT 52.097626 3.954620 36,975 117 478 -64
2022-05-13 06:22:28 GMT 52.097626 3.954620 36,975 117 477 0
2022-05-13 06:22:25 GMT 52.103760 3.935547 37,000 117 477 0
2022-05-13 06:22:22 GMT 52.103760 3.935547 37,000 117 477 64
2022-05-13 06:22:19 GMT 52.105453 3.930359 37,000 117 477 64
2022-05-13 06:22:16 GMT 52.109207 3.918762 36,975 117 477 64
2022-05-13 06:22:14 GMT 52.111179 3.912545 36,975 117 478 0
2022-05-13 06:22:11 GMT 52.113693 3.904800 36,975 117 478 -64
2022-05-13 06:22:08 GMT 52.117676 3.892441 36,975 117 478 0
2022-05-13 06:22:05 GMT 52.119839 3.885550 37,000 117 478 0
2022-05-13 06:22:03 GMT 52.121933 3.879089 36,975 117 478 -64
2022-05-13 06:22:00 GMT 52.125286 3.868757 36,975 117 478 -64
2022-05-13 06:21:57 GMT 52.129395 3.855896 36,975 117 478 -64
2022-05-13 06:21:54 GMT 52.134548 3.839800 37,000 117 478 -64
2022-05-13 06:21:51 GMT 52.134548 3.839800 37,000 117 478 -64
2022-05-13 06:21:48 GMT 52.140835 3.820103 37,000 117 477 0
2022-05-13 06:21:45 GMT 52.140835 3.820103 37,000 117 477 0
2022-05-13 06:21:43 GMT 52.142975 3.813354 37,000 117 477 0
2022-05-13 06:21:40 GMT 52.145462 3.805618 37,000 117 477 0
2022-05-13 06:21:37 GMT 52.150269 3.790588 37,000 117 477 0
2022-05-13 06:21:35 GMT 52.153519 3.780441 37,000 117 477 0
2022-05-13 06:21:32 GMT 52.156265 3.771820 37,000 117 477 0
2022-05-13 06:21:30 GMT 52.156265 3.771820 37,000 117 477 0
2022-05-13 06:21:27 GMT 52.159267 3.762425 37,000 117 478 0
2022-05-13 06:21:24 GMT 52.164761 3.745239 37,000 117 478 0
2022-05-13 06:21:21 GMT 52.164761 3.745239 37,000 117 478 0
2022-05-13 06:21:18 GMT 52.171738 3.723450 37,000 117 478 0
2022-05-13 06:21:15 GMT 52.171738 3.723450 37,000 117 478 0
2022-05-13 06:21:12 GMT 52.173794 3.716910 37,000 117 478 0
2022-05-13 06:21:08 GMT 52.177917 3.703995 37,000 117 479 -64
2022-05-13 06:21:05 GMT 52.181396 3.693161 37,000 117 479 -64
2022-05-13 06:21:02 GMT 52.184052 3.684845 37,000 117 479 -64
2022-05-13 06:20:59 GMT 52.188084 3.672259 37,000 117 479 -64
2022-05-13 06:20:56 GMT 52.190739 3.664019 37,000 117 479 -64
2022-05-13 06:20:53 GMT 52.193577 3.655073 37,000 117 478 -64
2022-05-13 06:20:50 GMT 52.197098 3.644104 37,025 117 479 0
2022-05-13 06:20:47 GMT 52.199249 3.637390 37,025 117 479 -64
2022-05-13 06:20:44 GMT 52.202957 3.625946 37,025 117 479 0
2022-05-13 06:20:41 GMT 52.205154 3.618851 37,025 117 479 0
2022-05-13 06:20:39 GMT 52.207355 3.611991 37,000 117 478 0
2022-05-13 06:20:37 GMT 52.209549 3.605194 37,000 117 478 64
2022-05-13 06:20:34 GMT 52.213177 3.593863 37,000 117 478 64
2022-05-13 06:20:31 GMT 52.215317 3.587115 37,000 117 479 64
2022-05-13 06:20:28 GMT 52.218384 3.577423 37,000 117 478 0
2022-05-13 06:20:25 GMT 52.225204 3.555984 37,000 117 478 0
2022-05-13 06:20:22 GMT 52.225204 3.555984 37,000 117 478 0
2022-05-13 06:20:19 GMT 52.229004 3.544159 37,000 117 478 0
2022-05-13 06:20:16 GMT 52.231472 3.536342 37,000 117 478 0
2022-05-13 06:20:14 GMT 52.233192 3.530927 37,000 117 478 0
2022-05-13 06:20:11 GMT 52.238846 3.513184 37,000 117 478 0
2022-05-13 06:20:08 GMT 52.238846 3.513184 37,000 117 478 0
2022-05-13 06:20:05 GMT 52.243286 3.499146 37,000 117 478 0
2022-05-13 06:20:02 GMT 52.245300 3.492737 37,000 117 478 0
2022-05-13 06:20:00 GMT 52.247818 3.484726 37,000 117 478 0
2022-05-13 06:19:57 GMT 52.250061 3.477707 37,000 117 478 0
2022-05-13 06:19:54 GMT 52.256927 3.455887 37,000 117 478 0
2022-05-13 06:19:51 GMT 52.256927 3.455887 37,000 117 478 0
2022-05-13 06:19:48 GMT 52.259308 3.448373 37,000 117 478 0
2022-05-13 06:19:45 GMT 52.262569 3.438171 37,000 117 478 0
2022-05-13 06:19:42 GMT 52.265965 3.427264 37,000 117 478 0
2022-05-13 06:19:39 GMT 52.268806 3.418318 37,000 117 478 0
2022-05-13 06:19:37 GMT 52.270752 3.412094 36,975 117 478 0
2022-05-13 06:19:34 GMT 52.272858 3.405526 36,975 117 478 0
2022-05-13 06:19:32 GMT 52.275330 3.397675 37,000 117 478 64
2022-05-13 06:19:29 GMT 52.281143 3.379059 37,000 117 478 64
2022-05-13 06:19:27 GMT 52.281143 3.379059 36,975 116 478 64
2022-05-13 06:19:24 GMT 52.284401 3.368644 37,000 116 478 64
2022-05-13 06:19:21 GMT 52.287521 3.358756 36,975 117 478 64
2022-05-13 06:19:18 GMT 52.289474 3.352432 36,975 117 478 64
2022-05-13 06:19:15 GMT 52.292732 3.342041 36,975 117 478 0
2022-05-13 06:19:12 GMT 52.294876 3.335190 36,975 117 478 0
2022-05-13 06:19:09 GMT 52.298832 3.322501 36,975 116 478 0
2022-05-13 06:19:06 GMT 52.300835 3.316066 36,975 116 478 0
2022-05-13 06:19:03 GMT 52.304977 3.302883 36,975 116 478 0
2022-05-13 06:19:00 GMT 52.308281 3.292289 36,975 116 478 0
2022-05-13 06:18:57 GMT 52.313358 3.275966 36,975 116 478 0
2022-05-13 06:18:54 GMT 52.313358 3.275966 36,975 116 478 0
2022-05-13 06:18:52 GMT 52.315357 3.269531 36,975 117 478 -64
2022-05-13 06:18:49 GMT 52.319458 3.256531 36,975 117 478 0
2022-05-13 06:18:46 GMT 52.322388 3.247088 36,975 117 477 0
2022-05-13 06:18:43 GMT 52.325867 3.236084 36,975 117 477 0
2022-05-13 06:18:40 GMT 52.327194 3.231888 36,975 117 477 0
2022-05-13 06:18:38 GMT 52.329895 3.223267 36,975 117 477 0
2022-05-13 06:18:35 GMT 52.332954 3.213501 36,975 117 478 0
2022-05-13 06:18:33 GMT 52.335571 3.205338 36,975 116 478 0
2022-05-13 06:18:30 GMT 52.338634 3.195609 36,975 117 477 0
2022-05-13 06:18:27 GMT 52.340607 3.189316 36,975 117 477 0
2022-05-13 06:18:24 GMT 52.343708 3.179600 36,975 117 477 0
2022-05-13 06:18:20 GMT 52.348938 3.163147 36,975 117 477 0
2022-05-13 06:18:17 GMT 52.350861 3.157120 36,975 117 477 0
2022-05-13 06:18:14 GMT 52.353745 3.148117 36,975 117 477 0
2022-05-13 06:18:12 GMT 52.356976 3.138088 36,975 117 477 0
2022-05-13 06:18:09 GMT 52.359055 3.131561 36,975 117 477 0
2022-05-13 06:18:06 GMT 52.362190 3.121844 36,975 117 477 0
2022-05-13 06:18:04 GMT 52.364143 3.115801 36,975 117 477 0
2022-05-13 06:18:02 GMT 52.366425 3.108817 36,975 117 477 0
2022-05-13 06:17:59 GMT 52.369537 3.099136 36,975 117 477 0
2022-05-13 06:17:56 GMT 52.373550 3.086844 36,975 117 477 0
2022-05-13 06:17:53 GMT 52.375504 3.080802 36,975 117 477 0
2022-05-13 06:17:50 GMT 52.378143 3.072739 37,000 117 477 0
2022-05-13 06:17:47 GMT 52.381943 3.060913 37,000 117 477 -64
2022-05-13 06:17:45 GMT 52.383465 3.056318 37,000 117 477 -64
2022-05-13 06:17:42 GMT 52.386955 3.045489 37,000 117 477 -64
2022-05-13 06:17:40 GMT 52.389359 3.038025 37,000 117 477 0
2022-05-13 06:17:38 GMT 52.392216 3.029245 37,000 117 478 -64
2022-05-13 06:17:35 GMT 52.394211 3.022995 37,000 117 478 -64
2022-05-13 06:17:33 GMT 52.397102 3.013864 37,000 116 477 -64
2022-05-13 06:17:30 GMT 52.399979 3.004761 37,000 116 477 -64
2022-05-13 06:17:27 GMT 52.403526 2.993382 37,000 116 477 -64
2022-05-13 06:17:24 GMT 52.405392 2.987261 37,000 116 477 -64
2022-05-13 06:17:21 GMT 52.408974 2.975255 37,000 115 478 0
2022-05-13 06:17:18 GMT 52.414581 2.956238 37,000 115 477 -64
2022-05-13 06:17:15 GMT 52.414581 2.956238 37,000 115 477 -64
2022-05-13 06:17:12 GMT 52.418331 2.943002 37,000 114 477 -64
2022-05-13 06:17:10 GMT 52.418331 2.943002 37,000 114 477 -64
2022-05-13 06:17:08 GMT 52.420258 2.935944 37,025 113 477 -64
2022-05-13 06:17:05 GMT 52.423592 2.923540 37,000 113 477 0
2022-05-13 06:17:03 GMT 52.424477 2.920244 37,000 113 477 -64
2022-05-13 06:17:01 GMT 52.426666 2.912005 37,025 113 477 -64
2022-05-13 06:16:58 GMT 52.429184 2.902603 37,025 113 477 -64
2022-05-13 06:16:55 GMT 52.431461 2.894113 37,025 113 477 -64
2022-05-13 06:16:52 GMT 52.435364 2.879410 37,025 113 477 0
2022-05-13 06:16:49 GMT 52.438019 2.869492 37,025 113 477 0
2022-05-13 06:16:46 GMT 52.439850 2.862549 37,025 113 478 0
2022-05-13 06:16:42 GMT 52.443005 2.850795 37,025 113 478 0
2022-05-13 06:16:39 GMT 52.446075 2.839181 37,025 113 478 0
2022-05-13 06:16:36 GMT 52.449474 2.826233 37,025 113 478 0
2022-05-13 06:16:33 GMT 52.451153 2.819955 37,025 113 478 0
2022-05-13 06:16:31 GMT 52.455643 2.802887 37,025 113 478 0
2022-05-13 06:16:28 GMT 52.457993 2.794059 37,025 113 478 0
2022-05-13 06:16:25 GMT 52.457993 2.794059 37,025 113 478 0
2022-05-13 06:16:22 GMT 52.461159 2.782131 37,025 113 478 0
2022-05-13 06:16:19 GMT 52.463581 2.772871 37,025 113 478 0
2022-05-13 06:16:16 GMT 52.465851 2.764359 37,025 113 478 0
2022-05-13 06:16:14 GMT 52.468460 2.754440 37,025 113 478 0
2022-05-13 06:16:11 GMT 52.471252 2.743759 37,025 113 478 0
2022-05-13 06:16:08 GMT 52.472427 2.739284 37,025 113 478 0
2022-05-13 06:16:05 GMT 52.475693 2.726822 37,025 113 478 0
2022-05-13 06:16:02 GMT 52.477982 2.718201 37,025 113 478 0
2022-05-13 06:16:00 GMT 52.479828 2.711033 37,025 113 478 0
2022-05-13 06:15:58 GMT 52.482529 2.700753 37,025 113 478 0
2022-05-13 06:15:55 GMT 52.484161 2.694550 37,025 113 478 0
2022-05-13 06:15:52 GMT 52.486496 2.685547 37,025 113 479 0
2022-05-13 06:15:50 GMT 52.488785 2.676926 37,025 113 479 -64
2022-05-13 06:15:47 GMT 52.491211 2.667618 37,025 113 478 0
2022-05-13 06:15:44 GMT 52.494259 2.656102 37,025 113 478 0
2022-05-13 06:15:41 GMT 52.496586 2.647077 37,025 113 479 0
2022-05-13 06:15:38 GMT 52.499660 2.635463 37,025 113 479 0
2022-05-13 06:15:35 GMT 52.504269 2.617807 37,025 113 478 0
2022-05-13 06:15:32 GMT 52.506550 2.609174 37,025 113 478 64
2022-05-13 06:15:30 GMT 52.506550 2.609174 37,025 113 479 0
2022-05-13 06:15:27 GMT 52.508698 2.601013 37,025 113 479 0
2022-05-13 06:15:25 GMT 52.510437 2.594376 37,000 113 478 0
2022-05-13 06:15:22 GMT 52.513298 2.583514 37,000 113 478 0
2022-05-13 06:15:20 GMT 52.517628 2.566877 37,000 113 479 64
2022-05-13 06:15:17 GMT 52.517628 2.566877 37,000 113 479 64
2022-05-13 06:15:14 GMT 52.519867 2.558365 37,000 113 479 0
2022-05-13 06:15:11 GMT 52.523445 2.544512 37,000 113 479 64
2022-05-13 06:15:08 GMT 52.526241 2.533840 37,000 113 479 0
2022-05-13 06:15:05 GMT 52.527683 2.528190 37,000 113 479 0
2022-05-13 06:15:02 GMT 52.532570 2.509513 37,000 113 479 64
2022-05-13 06:15:00 GMT 52.532570 2.509513 37,000 113 479 64
2022-05-13 06:14:58 GMT 52.533920 2.504177 37,000 113 479 0
2022-05-13 06:14:55 GMT 52.539688 2.481995 37,000 112 479 0
2022-05-13 06:14:52 GMT 52.539688 2.481995 37,000 112 479 0
2022-05-13 06:14:50 GMT 52.541275 2.475848 37,000 113 479 0
2022-05-13 06:14:47 GMT 52.545685 2.458954 37,000 112 479 0
2022-05-13 06:14:44 GMT 52.545685 2.458954 37,000 113 479 64
2022-05-13 06:14:41 GMT 52.548157 2.449341 37,000 113 479 0
2022-05-13 06:14:38 GMT 52.551750 2.435434 36,975 113 479 0
2022-05-13 06:14:35 GMT 52.556545 2.417071 37,000 113 479 0
2022-05-13 06:14:32 GMT 52.556545 2.417071 37,000 113 479 0
2022-05-13 06:14:30 GMT 52.558640 2.408981 37,000 113 479 0
2022-05-13 06:14:27 GMT 52.561665 2.397452 37,000 112 479 64
2022-05-13 06:14:24 GMT 52.566929 2.377049 36,975 112 479 64
2022-05-13 06:14:21 GMT 52.566929 2.377049 37,000 113 478 0
2022-05-13 06:14:17 GMT 52.570541 2.363205 37,000 113 478 0
2022-05-13 06:14:14 GMT 52.572784 2.354584 37,000 113 478 0
2022-05-13 06:14:11 GMT 52.574745 2.347072 37,000 113 478 0
2022-05-13 06:14:09 GMT 52.576565 2.340088 37,000 113 478 0
2022-05-13 06:14:06 GMT 52.579605 2.328186 37,000 113 478 0
2022-05-13 06:14:03 GMT 52.582336 2.317723 37,000 112 479 64
2022-05-13 06:14:00 GMT 52.584755 2.308384 37,000 112 479 64
2022-05-13 06:13:57 GMT 52.587662 2.297211 37,000 112 479 64
2022-05-13 06:13:54 GMT 52.589905 2.288513 37,000 112 479 64
2022-05-13 06:13:51 GMT 52.592110 2.279977 37,000 112 479 64
2022-05-13 06:13:48 GMT 52.594345 2.271266 36,975 112 479 0
2022-05-13 06:13:45 GMT 52.597000 2.260908 37,000 112 479 -64
2022-05-13 06:13:42 GMT 52.599655 2.250748 37,000 112 479 -64
2022-05-13 06:13:39 GMT 52.605057 2.229691 37,000 112 479 -64
2022-05-13 06:13:36 GMT 52.605057 2.229691 37,000 112 479 -64
2022-05-13 06:13:33 GMT 52.607300 2.220993 37,000 112 479 -64
2022-05-13 06:13:30 GMT 52.609634 2.211990 37,000 112 479 -64
2022-05-13 06:13:28 GMT 52.612061 2.202606 37,000 113 478 0
2022-05-13 06:13:25 GMT 52.614502 2.193107 37,000 112 479 -64
2022-05-13 06:13:22 GMT 52.617142 2.182922 37,000 112 478 -128
2022-05-13 06:13:19 GMT 52.619762 2.172703 37,025 112 478 -64
2022-05-13 06:13:17 GMT 52.621857 2.164536 37,025 112 478 0
2022-05-13 06:13:14 GMT 52.623535 2.158029 37,025 112 478 0
2022-05-13 06:13:12 GMT 52.625954 2.148690 37,025 112 478 0
2022-05-13 06:13:09 GMT 52.630749 2.129935 37,025 112 478 0
2022-05-13 06:13:06 GMT 52.630749 2.129935 37,025 112 478 -64
2022-05-13 06:13:03 GMT 52.632984 2.121225 37,025 112 478 -64
2022-05-13 06:13:01 GMT 52.634800 2.114240 37,025 112 478 -64
2022-05-13 06:12:59 GMT 52.636662 2.106864 37,025 112 477 0
2022-05-13 06:12:56 GMT 52.639343 2.096329 37,025 112 477 0
2022-05-13 06:12:53 GMT 52.642319 2.084579 37,025 112 477 0
2022-05-13 06:12:50 GMT 52.644669 2.075396 37,025 112 478 0
2022-05-13 06:12:47 GMT 52.647324 2.065037 37,025 112 478 64
2022-05-13 06:12:44 GMT 52.649418 2.056641 37,025 112 478 0
2022-05-13 06:12:41 GMT 52.651886 2.047119 37,025 112 478 0
2022-05-13 06:12:38 GMT 52.654999 2.034760 37,025 112 478 64
2022-05-13 06:12:35 GMT 52.657471 2.024994 37,025 112 478 0
2022-05-13 06:12:33 GMT 52.659145 2.018502 37,000 112 478 64
2022-05-13 06:12:30 GMT 52.661774 2.008286 37,000 112 478 64
2022-05-13 06:12:27 GMT 52.663879 1.999893 37,000 112 478 64
2022-05-13 06:12:24 GMT 52.666031 1.991501 37,000 112 478 64
2022-05-13 06:12:21 GMT 52.671528 1.969927 37,000 112 478 0
2022-05-13 06:12:18 GMT 52.671528 1.969927 37,000 112 478 64
2022-05-13 06:12:15 GMT 52.676651 1.949838 37,000 112 478 64
2022-05-13 06:12:12 GMT 52.676651 1.949838 37,000 112 478 64
2022-05-13 06:12:09 GMT 52.681026 1.932731 37,000 112 478 0
2022-05-13 06:12:07 GMT 52.681026 1.932731 37,000 112 478 0
2022-05-13 06:12:04 GMT 52.683289 1.923828 37,000 112 478 0
2022-05-13 06:12:01 GMT 52.685310 1.916016 37,000 112 478 0
2022-05-13 06:11:59 GMT 52.687912 1.905746 37,000 112 478 0
2022-05-13 06:11:57 GMT 52.690567 1.895370 37,000 112 477 0
2022-05-13 06:11:54 GMT 52.692352 1.888351 37,000 112 478 0
2022-05-13 06:11:51 GMT 52.694733 1.878967 37,000 112 478 0
2022-05-13 06:11:49 GMT 52.696342 1.872777 37,000 112 477 0
2022-05-13 06:11:47 GMT 52.698074 1.865921 37,000 112 477 0
2022-05-13 06:11:45 GMT 52.700317 1.857224 37,000 112 477 0
2022-05-13 06:11:42 GMT 52.702423 1.848831 37,000 112 477 0
2022-05-13 06:11:39 GMT 52.704987 1.838837 37,000 112 477 0
2022-05-13 06:11:37 GMT 52.706863 1.831436 37,000 112 477 0
2022-05-13 06:11:35 GMT 52.708584 1.824594 37,000 112 477 0
2022-05-13 06:11:32 GMT 52.711472 1.813137 37,000 112 477 0
2022-05-13 06:11:29 GMT 52.713146 1.806466 37,000 112 477 0
2022-05-13 06:11:27 GMT 52.715195 1.798462 37,000 112 476 0
2022-05-13 06:11:25 GMT 52.717010 1.791399 37,000 112 477 0
2022-05-13 06:11:22 GMT 52.720036 1.779393 37,000 112 477 0
2022-05-13 06:11:19 GMT 52.722015 1.771469 37,000 112 477 -64
2022-05-13 06:11:17 GMT 52.724075 1.763458 37,000 112 477 -64
2022-05-13 06:11:14 GMT 52.726227 1.754909 37,000 112 477 0
2022-05-13 06:11:11 GMT 52.729248 1.743011 37,000 112 476 0
2022-05-13 06:11:08 GMT 52.731304 1.734820 37,000 112 476 0
2022-05-13 06:11:05 GMT 52.734055 1.723938 37,000 112 476 0
2022-05-13 06:11:02 GMT 52.736237 1.715437 37,000 112 476 0
2022-05-13 06:10:59 GMT 52.739170 1.703744 37,000 112 476 0
2022-05-13 06:10:57 GMT 52.740967 1.696548 37,000 112 476 0
2022-05-13 06:10:54 GMT 52.743546 1.686323 37,000 112 476 0
2022-05-13 06:10:51 GMT 52.745865 1.677094 37,000 112 476 0
2022-05-13 06:10:48 GMT 52.750214 1.659698 37,000 112 476 0
2022-05-13 06:10:46 GMT 52.750214 1.659698 37,000 112 476 0
2022-05-13 06:10:43 GMT 52.753235 1.647644 37,000 112 476 0
2022-05-13 06:10:40 GMT 52.755882 1.637120 37,000 112 475 64
2022-05-13 06:10:37 GMT 52.758041 1.628571 37,000 112 475 64
2022-05-13 06:10:34 GMT 52.759651 1.622053 37,000 112 476 -64
2022-05-13 06:10:31 GMT 52.762115 1.612167 37,000 112 476 -64
2022-05-13 06:10:28 GMT 52.764679 1.601791 37,000 112 476 -64
2022-05-13 06:10:26 GMT 52.766312 1.595215 37,000 112 476 -64
2022-05-13 06:10:24 GMT 52.767929 1.588669 37,000 112 475 0
2022-05-13 06:10:21 GMT 52.770500 1.578421 37,025 112 476 0
2022-05-13 06:10:18 GMT 52.773010 1.568222 37,025 112 476 -64
2022-05-13 06:10:16 GMT 52.775482 1.558332 37,000 112 475 0
2022-05-13 06:10:13 GMT 52.778366 1.546640 37,000 112 475 0
2022-05-13 06:10:10 GMT 52.780369 1.538557 37,025 112 475 0
2022-05-13 06:10:07 GMT 52.783207 1.527178 37,000 112 475 0
2022-05-13 06:10:04 GMT 52.785004 1.520004 37,000 112 475 64
2022-05-13 06:10:01 GMT 52.787121 1.511483 37,000 112 475 0
2022-05-13 06:09:58 GMT 52.789959 1.500105 37,000 112 476 64
2022-05-13 06:09:56 GMT 52.792145 1.491394 37,000 112 475 0
2022-05-13 06:09:53 GMT 52.793427 1.486206 37,000 112 475 0
2022-05-13 06:09:50 GMT 52.796448 1.474075 37,000 112 476 0
2022-05-13 06:09:47 GMT 52.798573 1.465576 37,000 112 476 0
2022-05-13 06:09:44 GMT 52.801849 1.452332 37,000 112 476 -64
2022-05-13 06:09:41 GMT 52.804596 1.441193 37,000 112 476 64
2022-05-13 06:09:38 GMT 52.806808 1.432303 37,000 112 476 0
2022-05-13 06:09:36 GMT 52.808899 1.423798 37,000 112 476 0
2022-05-13 06:09:33 GMT 52.810535 1.417236 37,000 112 476 64
2022-05-13 06:09:30 GMT 52.813004 1.407113 37,000 112 476 64
2022-05-13 06:09:28 GMT 52.815285 1.398089 37,000 112 475 64
2022-05-13 06:09:25 GMT 52.819290 1.381836 36,975 112 475 0
2022-05-13 06:09:23 GMT 52.819290 1.381836 37,000 112 475 -64
2022-05-13 06:09:20 GMT 52.821754 1.371957 37,000 112 475 -64
2022-05-13 06:09:17 GMT 52.823524 1.364894 37,000 112 475 -64
2022-05-13 06:09:15 GMT 52.825699 1.356049 37,000 112 472 128
2022-05-13 06:09:12 GMT 52.828217 1.345978 37,000 112 474 -64
2022-05-13 06:09:09 GMT 52.830086 1.338449 37,000 112 474 -64
2022-05-13 06:09:07 GMT 52.832199 1.329880 37,025 112 471 64
2022-05-13 06:09:05 GMT 52.834351 1.321259 37,025 112 473 64
2022-05-13 06:09:02 GMT 52.838047 1.306353 37,000 112 472 64
2022-05-13 06:08:59 GMT 52.839569 1.300201 37,000 112 471 64
2022-05-13 06:08:56 GMT 52.844513 1.280212 36,975 112 471 64
2022-05-13 06:08:53 GMT 52.844513 1.280212 36,975 112 471 64
2022-05-13 06:08:50 GMT 52.846519 1.272138 36,975 112 471 64
2022-05-13 06:08:47 GMT 52.849545 1.259739 36,975 112 471 128
2022-05-13 06:08:43 GMT 52.852982 1.245956 36,975 112 470 256
2022-05-13 06:08:40 GMT 52.855179 1.236954 36,975 112 470 256
2022-05-13 06:08:37 GMT 52.859413 1.219875 36,950 112 470 320
2022-05-13 06:08:34 GMT 52.859413 1.219875 36,925 112 469 576
2022-05-13 06:08:31 GMT 52.862366 1.207733 36,925 112 469 576
2022-05-13 06:08:28 GMT 52.864861 1.197588 36,925 112 469 512
2022-05-13 06:08:26 GMT 52.866440 1.191101 36,875 112 469 576
2022-05-13 06:08:23 GMT 52.868866 1.181183 36,850 112 469 640
2022-05-13 06:08:20 GMT 52.871284 1.171456 36,825 112 469 640
2022-05-13 06:08:17 GMT 52.873611 1.161804 36,800 112 469 704
2022-05-13 06:08:15 GMT 52.874916 1.156468 36,750 112 469 768
2022-05-13 06:08:12 GMT 52.878269 1.142892 36,675 112 469 896
2022-05-13 06:08:09 GMT 52.879944 1.136093 36,700 111 470 1280
2022-05-13 06:08:06 GMT 52.881947 1.127982 36,650 111 470 1280
2022-05-13 06:08:04 GMT 52.883835 1.120224 36,625 112 469 1152
2022-05-13 06:08:01 GMT 52.886646 1.108756 36,525 111 471 1344
2022-05-13 06:07:58 GMT 52.888695 1.100438 36,500 112 472 1408
2022-05-13 06:07:55 GMT 52.891617 1.088257 36,300 112 472 1408
2022-05-13 06:07:52 GMT 52.893818 1.079407 36,300 112 472 1408
2022-05-13 06:07:49 GMT 52.896057 1.070175 36,050 111 475 1152
2022-05-13 06:07:46 GMT 52.898163 1.061478 36,225 112 473 1344
2022-05-13 06:07:44 GMT 52.900726 1.051102 36,150 111 475 1152
2022-05-13 06:07:41 GMT 52.903221 1.040876 36,075 111 475 1152
2022-05-13 06:07:38 GMT 52.905807 1.030273 36,025 111 475 1152
2022-05-13 06:07:35 GMT 52.908142 1.020813 35,925 111 476 1088
2022-05-13 06:07:32 GMT 52.910065 1.012939 35,900 111 476 1152
2022-05-13 06:07:29 GMT 52.912994 1.000776 35,850 112 477 1088
2022-05-13 06:07:26 GMT 52.914780 0.993500 35,825 111 477 1088
2022-05-13 06:07:24 GMT 52.917252 0.983353 35,725 112 477 960
2022-05-13 06:07:21 GMT 52.918861 0.976763 35,675 111 477 896
2022-05-13 06:07:18 GMT 52.921932 0.964286 35,650 111 478 832
2022-05-13 06:07:15 GMT 52.924309 0.954476 35,575 111 478 832
2022-05-13 06:07:12 GMT 52.926727 0.944443 35,575 111 478 768
2022-05-13 06:07:09 GMT 52.931385 0.925284 35,525 111 478 768
2022-05-13 06:07:06 GMT 52.931385 0.925284 35,525 111 478 768
2022-05-13 06:07:04 GMT 52.932594 0.920183 35,475 111 477 768
2022-05-13 06:07:02 GMT 52.935287 0.909195 35,475 111 477 768
2022-05-13 06:06:59 GMT 52.937759 0.899048 35,425 111 477 768
2022-05-13 06:06:56 GMT 52.939957 0.889893 35,375 111 477 832
2022-05-13 06:06:54 GMT 52.941998 0.881574 35,300 111 477 960
2022-05-13 06:06:51 GMT 52.944305 0.871964 35,300 111 477 960
2022-05-13 06:06:48 GMT 52.946228 0.864182 35,250 111 477 1088
2022-05-13 06:06:45 GMT 52.949158 0.851974 35,225 111 477 1152
2022-05-13 06:06:42 GMT 52.953781 0.832977 35,075 111 479 1536
2022-05-13 06:06:39 GMT 52.956802 0.820389 35,025 111 479 1472
2022-05-13 06:06:36 GMT 52.956802 0.820389 34,875 111 480 1600
2022-05-13 06:06:33 GMT 52.958103 0.815186 34,975 111 480 1600
2022-05-13 06:06:31 GMT 52.960339 0.805926 34,825 111 482 1536
2022-05-13 06:06:28 GMT 52.964584 0.788345 34,700 111 483 1536
2022-05-13 06:06:25 GMT 52.964584 0.788345 34,750 111 483 1536
2022-05-13 06:06:23 GMT 52.967239 0.777435 34,600 111 485 1600
2022-05-13 06:06:20 GMT 52.972488 0.755545 34,600 111 484 1536
2022-05-13 06:06:17 GMT 52.972488 0.755545 34,500 111 485 1600
2022-05-13 06:06:14 GMT 52.974678 0.746599 34,325 111 487 1664
2022-05-13 06:06:11 GMT 52.977192 0.736319 34,275 111 486 1664
2022-05-13 06:06:08 GMT 52.979141 0.728149 34,150 111 488 1664
2022-05-13 06:06:05 GMT 52.981380 0.718977 34,200 111 488 1664
2022-05-13 06:06:03 GMT 52.983948 0.708389 34,125 111 489 1600
2022-05-13 06:06:00 GMT 52.986786 0.696640 34,050 111 489 1536
2022-05-13 06:05:57 GMT 52.988571 0.689316 33,925 111 491 0
2022-05-13 06:05:54 GMT 52.991455 0.677490 33,775 111 492 1344
2022-05-13 06:05:51 GMT 52.993927 0.667419 33,775 111 492 1280
2022-05-13 06:05:48 GMT 52.996948 0.654831 33,750 111 492 1280
2022-05-13 06:05:45 GMT 52.998322 0.649261 33,550 111 492 1216
2022-05-13 06:05:43 GMT 53.000610 0.639801 33,575 111 493 1024
2022-05-13 06:05:40 GMT 53.003864 0.626299 33,575 111 492 832
2022-05-13 06:05:37 GMT 53.006470 0.615616 33,550 111 492 896
2022-05-13 06:05:34 GMT 53.009033 0.604954 33,500 111 492 832
2022-05-13 06:05:31 GMT 53.010757 0.597970 33,375 111 491 832
2022-05-13 06:05:28 GMT 53.013268 0.587455 33,375 111 491 832
2022-05-13 06:05:25 GMT 53.015736 0.577332 33,400 111 491 832
2022-05-13 06:05:23 GMT 53.017731 0.569153 33,300 111 491 832
2022-05-13 06:05:20 GMT 53.020844 0.556259 33,300 111 491 832
2022-05-13 06:05:17 GMT 53.022068 0.551200 33,275 111 490 832
2022-05-13 06:05:15 GMT 53.024258 0.542097 33,250 111 490 832
2022-05-13 06:05:13 GMT 53.026382 0.533218 33,225 111 490 832
2022-05-13 06:05:10 GMT 53.028580 0.524139 33,150 111 489 896
2022-05-13 06:05:07 GMT 53.031052 0.513925 33,150 111 489 896
2022-05-13 06:05:04 GMT 53.033478 0.503616 32,650 111 488 832
2022-05-13 06:05:01 GMT 53.038101 0.484085 33,025 110 488 1280
2022-05-13 06:04:58 GMT 53.038101 0.484085 33,025 111 487 960
2022-05-13 06:04:55 GMT 53.040874 0.472098 32,950 110 488 1088
2022-05-13 06:04:53 GMT 53.042038 0.467154 32,725 110 488 1152
2022-05-13 06:04:51 GMT 53.044006 0.458679 32,775 110 488 1280
2022-05-13 06:04:48 GMT 53.048859 0.437317 32,775 110 488 1280
2022-05-13 06:04:45 GMT 53.050793 0.428702 32,725 110 487 1280
2022-05-13 06:04:43 GMT 53.050793 0.428702 32,700 110 488 1152
2022-05-13 06:04:40 GMT 53.053345 0.417328 32,550 110 488 1216
2022-05-13 06:04:37 GMT 53.055351 0.408456 32,575 110 488 1216
2022-05-13 06:04:34 GMT 53.057648 0.398102 32,525 110 488 1152
2022-05-13 06:04:30 GMT 53.060520 0.385228 32,450 110 488 1152
2022-05-13 06:04:27 GMT 53.063416 0.372086 32,375 110 487 1024
2022-05-13 06:04:24 GMT 53.065521 0.362625 32,225 110 486 640
2022-05-13 06:04:21 GMT 53.067875 0.351955 32,275 110 487 832
2022-05-13 06:04:18 GMT 53.069458 0.344696 32,250 110 486 768
2022-05-13 06:04:16 GMT 53.071507 0.335475 32,200 110 483 1280
2022-05-13 06:04:13 GMT 53.073944 0.324402 32,200 110 485 576
2022-05-13 06:04:10 GMT 53.076206 0.314131 32,100 110 485 576
2022-05-13 06:04:07 GMT 53.081238 0.291452 32,100 110 484 832
2022-05-13 06:04:04 GMT 53.081238 0.291452 32,050 109 483 1088
2022-05-13 06:04:01 GMT 53.083424 0.281328 32,025 110 484 1152
2022-05-13 06:03:58 GMT 53.084961 0.274344 32,000 109 483 1152
2022-05-13 06:03:56 GMT 53.086899 0.265427 31,925 109 483 1152
2022-05-13 06:03:53 GMT 53.089245 0.254804 31,875 110 483 1216
2022-05-13 06:03:51 GMT 53.090332 0.249786 31,825 110 483 1216
2022-05-13 06:03:48 GMT 53.092621 0.239334 31,750 110 483 1216
2022-05-13 06:03:46 GMT 53.094452 0.230942 31,550 110 483 1280
2022-05-13 06:03:43 GMT 53.096737 0.220696 31,675 110 483 1280
2022-05-13 06:03:40 GMT 53.099483 0.208175 31,625 110 483 1280
2022-05-13 06:03:38 GMT 53.100266 0.204503 31,575 110 483 1280
2022-05-13 06:03:36 GMT 53.102230 0.195654 31,475 110 483 1280
2022-05-13 06:03:33 GMT 53.104431 0.185669 31,475 110 482 1344
2022-05-13 06:03:31 GMT 53.105804 0.179391 31,325 110 482 1408
2022-05-13 06:03:28 GMT 53.108467 0.167461 31,325 110 482 1408
2022-05-13 06:03:24 GMT 53.111893 0.151925 31,175 110 483 1664
2022-05-13 06:03:20 GMT 53.114685 0.139448 30,975 110 485 2048
2022-05-13 06:03:17 GMT 53.119171 0.119202 31,000 110 485 2112
2022-05-13 06:03:14 GMT 53.119171 0.119202 30,975 110 485 2176
2022-05-13 06:03:12 GMT 53.120758 0.112044 30,800 110 486 2304
2022-05-13 06:03:09 GMT 53.122742 0.103115 30,775 110 487 2368
2022-05-13 06:03:06 GMT 53.127960 0.079572 30,550 110 488 2368
2022-05-13 06:03:03 GMT 53.130707 0.066860 30,500 109 490 2240
2022-05-13 06:03:00 GMT 53.130707 0.066860 30,350 109 490 1984
2022-05-13 06:02:57 GMT 53.132908 0.056790 30,350 109 490 1920
2022-05-13 06:02:54 GMT 53.134724 0.048227 30,075 109 493 1408
2022-05-13 06:02:52 GMT 53.135925 0.042690 30,200 109 493 1408
2022-05-13 06:02:50 GMT 53.137936 0.033282 30,100 109 493 1344
2022-05-13 06:02:47 GMT 53.139847 0.024315 30,100 109 493 1344
2022-05-13 06:02:45 GMT 53.141235 0.017735 30,025 109 493 1216
2022-05-13 06:02:42 GMT 53.143475 0.007190 29,950 109 493 1024
2022-05-13 06:02:39 GMT 53.148148 -0.014753 29,825 109 493 1024
2022-05-13 06:02:36 GMT 53.148148 -0.014753 29,825 109 493 1024
2022-05-13 06:02:33 GMT 53.150970 -0.028112 29,800 109 490 1024
2022-05-13 06:02:30 GMT 53.152771 -0.036490 29,750 109 491 1024
2022-05-13 06:02:27 GMT 53.154327 -0.043945 29,750 109 490 960
2022-05-13 06:02:25 GMT 53.156185 -0.052670 29,650 109 490 1024
2022-05-13 06:02:22 GMT 53.158539 -0.063878 29,650 109 490 1280
2022-05-13 06:02:20 GMT 53.160095 -0.071169 29,550 109 490 1280
2022-05-13 06:02:17 GMT 53.162201 -0.080906 29,550 109 489 1344
2022-05-13 06:02:15 GMT 53.165726 -0.097543 29,450 109 489 1344
2022-05-13 06:02:12 GMT 53.165726 -0.097543 29,425 109 488 1344
2022-05-13 06:02:10 GMT 53.167637 -0.106551 29,250 109 488 1472
2022-05-13 06:02:07 GMT 53.170074 -0.118103 29,250 109 488 1472
2022-05-13 06:02:04 GMT 53.175922 -0.145892 29,200 109 488 1472
2022-05-13 06:02:01 GMT 53.175922 -0.145892 29,100 109 489 1408
2022-05-13 06:01:58 GMT 53.179047 -0.160557 29,025 109 488 1408
2022-05-13 06:01:55 GMT 53.179047 -0.160557 28,900 109 488 1472
2022-05-13 06:01:52 GMT 53.181473 -0.172250 28,675 109 489 1536
2022-05-13 06:01:49 GMT 53.183838 -0.183456 28,725 109 488 1536
2022-05-13 06:01:46 GMT 53.186069 -0.194119 28,750 109 489 1536
2022-05-13 06:01:43 GMT 53.187935 -0.202924 28,700 109 489 1536
2022-05-13 06:01:41 GMT 53.191589 -0.220511 28,575 108 488 960
2022-05-13 06:01:38 GMT 53.191589 -0.220511 28,600 108 488 1280
2022-05-13 06:01:36 GMT 53.193787 -0.231184 28,475 108 489 1088
2022-05-13 06:01:33 GMT 53.195522 -0.239518 28,475 108 488 896
2022-05-13 06:01:30 GMT 53.198227 -0.252921 28,425 108 487 704
2022-05-13 06:01:27 GMT 53.199738 -0.260376 28,400 108 486 704
2022-05-13 06:01:25 GMT 53.201340 -0.268357 28,375 108 484 704
2022-05-13 06:01:22 GMT 53.203156 -0.277566 28,325 108 477 1024
2022-05-13 06:01:19 GMT 53.205345 -0.288553 28,300 108 484 704
2022-05-13 06:01:16 GMT 53.207161 -0.297762 28,300 108 483 704
2022-05-13 06:01:13 GMT 53.211319 -0.318682 28,225 108 480 768
2022-05-13 06:01:11 GMT 53.211319 -0.318682 28,225 108 481 768
2022-05-13 06:01:08 GMT 53.213608 -0.330296 28,175 108 480 960
2022-05-13 06:01:05 GMT 53.217178 -0.348580 28,100 108 478 1088
2022-05-13 06:01:02 GMT 53.219357 -0.359560 27,975 108 478 1152
2022-05-13 06:00:59 GMT 53.221729 -0.371839 27,975 108 478 1152
2022-05-13 06:00:56 GMT 53.221729 -0.371839 27,975 108 478 1088
2022-05-13 06:00:53 GMT 53.223495 -0.380755 27,925 108 477 1024
2022-05-13 06:00:50 GMT 53.225464 -0.390878 27,875 107 476 1152
2022-05-13 06:00:47 GMT 53.227158 -0.399667 27,825 107 476 1088
2022-05-13 06:00:45 GMT 53.230270 -0.415597 27,700 108 475 960
2022-05-13 06:00:42 GMT 53.230270 -0.415597 27,725 108 474 960
2022-05-13 06:00:40 GMT 53.231964 -0.424308 27,700 108 474 960
2022-05-13 06:00:37 GMT 53.234253 -0.435980 27,675 108 474 960
2022-05-13 06:00:34 GMT 53.236534 -0.447774 27,600 108 472 1088
2022-05-13 06:00:31 GMT 53.238350 -0.457064 27,500 108 472 1216
2022-05-13 06:00:28 GMT 53.240398 -0.467404 27,475 108 471 1280
2022-05-13 06:00:25 GMT 53.242264 -0.476885 27,425 108 471 1280
2022-05-13 06:00:23 GMT 53.245937 -0.495677 27,350 108 471 1344
2022-05-13 06:00:20 GMT 53.245937 -0.495677 27,150 107 467 1280
2022-05-13 06:00:17 GMT 53.247253 -0.502389 27,150 108 470 1344
2022-05-13 06:00:15 GMT 53.248627 -0.509609 27,150 108 470 1344
2022-05-13 06:00:12 GMT 53.251431 -0.523870 27,100 108 468 1280
2022-05-13 06:00:09 GMT 53.252918 -0.531464 26,950 107 467 1344
2022-05-13 06:00:06 GMT 53.255035 -0.542254 26,950 108 468 1280
2022-05-13 06:00:04 GMT 53.256645 -0.550690 26,950 107 467 1280
2022-05-13 06:00:01 GMT 53.258461 -0.559899 26,900 107 467 1280
2022-05-13 05:59:58 GMT 53.260895 -0.572388 26,800 107 467 1344
2022-05-13 05:59:55 GMT 53.264191 -0.589573 26,725 107 466 1408
2022-05-13 05:59:52 GMT 53.265106 -0.594282 26,675 107 466 1408
2022-05-13 05:59:50 GMT 53.265106 -0.594282 26,600 107 465 1408
2022-05-13 05:59:47 GMT 53.267212 -0.605268 26,600 107 466 1408
2022-05-13 05:59:45 GMT 53.268841 -0.613619 26,475 107 465 1408
2022-05-13 05:59:42 GMT 53.270702 -0.623555 26,025 108 463 1152
2022-05-13 05:59:39 GMT 53.272751 -0.633911 26,400 107 465 1408
2022-05-13 05:59:37 GMT 53.274429 -0.642619 26,250 108 463 1280
2022-05-13 05:59:34 GMT 53.276367 -0.652666 26,250 108 463 1280
2022-05-13 05:59:31 GMT 53.278290 -0.662554 26,175 108 463 1152
2022-05-13 05:59:28 GMT 53.280014 -0.671216 26,150 108 463 1216
2022-05-13 05:59:25 GMT 53.282295 -0.682687 26,100 108 462 1280
2022-05-13 05:59:22 GMT 53.284424 -0.693316 26,025 108 461 1344
2022-05-13 05:59:20 GMT 53.285461 -0.698601 26,000 108 461 1472
2022-05-13 05:59:17 GMT 53.287766 -0.710188 25,900 108 461 1472
2022-05-13 05:59:14 GMT 53.289505 -0.718977 25,800 108 460 1344
2022-05-13 05:59:11 GMT 53.291557 -0.729218 25,775 108 460 1344
2022-05-13 05:59:08 GMT 53.293579 -0.739537 25,675 108 459 1408
2022-05-13 05:59:05 GMT 53.297287 -0.757978 25,575 108 458 1536
2022-05-13 05:59:03 GMT 53.297287 -0.757978 25,400 108 458 1600
2022-05-13 05:59:00 GMT 53.298843 -0.766061 25,450 108 456 1664
2022-05-13 05:58:57 GMT 53.300812 -0.775713 25,375 108 457 1728
2022-05-13 05:58:54 GMT 53.305298 -0.798549 25,250 108 457 1792
2022-05-13 05:58:51 GMT 53.305298 -0.798549 25,175 108 457 1728
2022-05-13 05:58:48 GMT 53.306873 -0.806364 25,175 108 457 1664
2022-05-13 05:58:45 GMT 53.310059 -0.822248 25,025 108 456 1664
2022-05-13 05:58:43 GMT 53.310059 -0.822248 24,975 108 456 1664
2022-05-13 05:58:40 GMT 53.312599 -0.835123 24,925 108 455 1792
2022-05-13 05:58:37 GMT 53.314232 -0.843039 24,850 108 455 1728
2022-05-13 05:58:35 GMT 53.318047 -0.862023 24,725 108 455 1792
2022-05-13 05:58:32 GMT 53.318047 -0.862023 24,650 108 455 1792
2022-05-13 05:58:29 GMT 53.320267 -0.872864 24,475 108 455 1792
2022-05-13 05:58:26 GMT 53.321632 -0.879714 22,875 108 441 1472
2022-05-13 05:58:23 GMT 53.324471 -0.893609 24,400 108 455 1728
2022-05-13 05:58:20 GMT 53.326126 -0.901821 24,300 108 455 1600
2022-05-13 05:58:17 GMT 53.328941 -0.915581 24,250 108 454 1600
2022-05-13 05:58:15 GMT 53.328941 -0.915581 24,200 108 454 1600
2022-05-13 05:58:13 GMT 53.330246 -0.922067 24,125 108 453 1600
2022-05-13 05:58:10 GMT 53.332291 -0.932141 24,025 108 452 1600
2022-05-13 05:58:07 GMT 53.334339 -0.942401 23,925 108 451 0
2022-05-13 05:58:05 GMT 53.335693 -0.949219 23,925 108 452 1600
2022-05-13 05:58:03 GMT 53.337112 -0.956124 23,700 108 451 1600
2022-05-13 05:58:00 GMT 53.338856 -0.964939 23,825 108 451 1664
2022-05-13 05:57:57 GMT 53.341324 -0.977312 23,625 108 450 1600
2022-05-13 05:57:54 GMT 53.342953 -0.985377 23,075 108 444 1472
2022-05-13 05:57:51 GMT 53.345078 -0.996068 23,550 108 449 1536
2022-05-13 05:57:49 GMT 53.346130 -1.001404 23,425 107 446 1472
2022-05-13 05:57:46 GMT 53.348053 -1.011213 23,475 108 449 1472
2022-05-13 05:57:43 GMT 53.350540 -1.023910 23,325 108 448 1408
2022-05-13 05:57:40 GMT 53.353180 -1.037580 23,225 108 445 1536
2022-05-13 05:57:37 GMT 53.354450 -1.043944 23,175 108 445 1536
2022-05-13 05:57:34 GMT 53.356293 -1.053589 23,125 108 444 1536
2022-05-13 05:57:31 GMT 53.357941 -1.061958 23,050 108 442 1408
2022-05-13 05:57:29 GMT 53.359200 -1.068420 22,925 108 441 1472
2022-05-13 05:57:26 GMT 53.361481 -1.079891 22,950 108 443 1472
2022-05-13 05:57:23 GMT 53.363022 -1.087803 22,825 108 442 1408
2022-05-13 05:57:20 GMT 53.365250 -1.099037 22,775 108 440 1472
2022-05-13 05:57:17 GMT 53.366787 -1.106711 22,725 108 439 1600
2022-05-13 05:57:15 GMT 53.368469 -1.115269 22,625 108 439 1664
2022-05-13 05:57:12 GMT 53.370758 -1.126883 22,525 108 439 1728
2022-05-13 05:57:09 GMT 53.372326 -1.134742 22,500 108 438 1792
2022-05-13 05:57:06 GMT 53.374237 -1.144436 22,400 108 437 1856
2022-05-13 05:57:03 GMT 53.375565 -1.151289 22,275 108 437 1920
2022-05-13 05:57:00 GMT 53.377819 -1.162693 22,175 108 437 1856
2022-05-13 05:56:57 GMT 53.379730 -1.172225 22,125 108 437 1856
2022-05-13 05:56:54 GMT 53.381310 -1.180303 22,050 108 436 1664
2022-05-13 05:56:52 GMT 53.382523 -1.186523 21,800 108 435 1600
2022-05-13 05:56:49 GMT 53.384663 -1.197187 21,900 108 433 1536
2022-05-13 05:56:46 GMT 53.386963 -1.208810 21,525 108 434 1536
2022-05-13 05:56:43 GMT 53.388203 -1.215039 21,750 108 432 1536
2022-05-13 05:56:40 GMT 53.390110 -1.224572 21,700 108 429 1536
2022-05-13 05:56:37 GMT 53.392456 -1.236511 21,575 108 431 1536
2022-05-13 05:56:34 GMT 53.394020 -1.244525 21,550 108 430 1536
2022-05-13 05:56:32 GMT 53.395462 -1.251795 21,450 108 429 1536
2022-05-13 05:56:29 GMT 53.396988 -1.259504 21,400 108 428 1472
2022-05-13 05:56:26 GMT 53.399281 -1.271344 21,350 108 428 1472
2022-05-13 05:56:23 GMT 53.401108 -1.280613 21,200 108 426 1536
2022-05-13 05:56:20 GMT 53.403122 -1.290972 21,150 108 426 1536
2022-05-13 05:56:17 GMT 53.404633 -1.298568 21,100 108 425 1664
2022-05-13 05:56:15 GMT 53.405613 -1.303576 21,000 108 423 1792
2022-05-13 05:56:12 GMT 53.407745 -1.314671 20,950 108 423 1792
2022-05-13 05:56:09 GMT 53.409245 -1.322318 20,725 107 422 2048
2022-05-13 05:56:06 GMT 53.410828 -1.330719 20,800 107 422 1920
2022-05-13 05:56:03 GMT 53.412689 -1.340332 20,675 107 422 2048
2022-05-13 05:56:01 GMT 53.414474 -1.349513 20,350 107 422 2688
2022-05-13 05:55:58 GMT 53.415714 -1.356165 20,400 107 424 2688
2022-05-13 05:55:55 GMT 53.417854 -1.367313 20,250 107 422 2752
2022-05-13 05:55:52 GMT 53.419785 -1.377450 20,125 107 424 2752
2022-05-13 05:55:49 GMT 53.421021 -1.384042 20,025 107 425 2496
2022-05-13 05:55:46 GMT 53.423492 -1.396833 19,900 107 425 2240
2022-05-13 05:55:43 GMT 53.424419 -1.401645 19,825 107 424 1856
2022-05-13 05:55:41 GMT 53.426331 -1.411586 19,725 107 424 1856
2022-05-13 05:55:38 GMT 53.428188 -1.421114 19,650 107 424 1856
2022-05-13 05:55:35 GMT 53.429672 -1.428772 19,550 108 423 1792
2022-05-13 05:55:32 GMT 53.431820 -1.439774 19,450 108 422 1856
2022-05-13 05:55:29 GMT 53.433289 -1.447449 19,200 108 419 2176
2022-05-13 05:55:26 GMT 53.435078 -1.456577 19,300 108 421 1984
2022-05-13 05:55:24 GMT 53.436310 -1.462908 19,200 108 419 2112
2022-05-13 05:55:21 GMT 53.440201 -1.482831 18,975 108 419 2176
2022-05-13 05:55:18 GMT 53.440201 -1.482831 19,025 108 419 2176
2022-05-13 05:55:15 GMT 53.441502 -1.489294 18,900 108 417 2112
2022-05-13 05:55:13 GMT 53.442947 -1.496645 18,825 108 418 2112
2022-05-13 05:55:11 GMT 53.444458 -1.504185 18,725 108 417 2112
2022-05-13 05:55:08 GMT 53.446251 -1.513205 18,600 108 416 2112
2022-05-13 05:55:05 GMT 53.447845 -1.521293 18,525 108 415 2112
2022-05-13 05:55:02 GMT 53.449448 -1.529218 18,475 108 415 2112
2022-05-13 05:55:00 GMT 53.451416 -1.539263 18,350 108 414 2112
2022-05-13 05:54:57 GMT 53.452240 -1.543265 18,300 108 413 2112
2022-05-13 05:54:55 GMT 53.454025 -1.552223 18,200 108 413 2112
2022-05-13 05:54:53 GMT 53.455235 -1.558281 18,125 108 412 2112
2022-05-13 05:54:51 GMT 53.456726 -1.565794 18,000 108 412 2048
2022-05-13 05:54:48 GMT 53.458263 -1.573630 17,950 108 410 1856
2022-05-13 05:54:46 GMT 53.459705 -1.580900 17,875 108 410 1856
2022-05-13 05:54:43 GMT 53.461441 -1.589565 17,775 108 409 1920
2022-05-13 05:54:41 GMT 53.463802 -1.601742 17,650 108 409 2368
2022-05-13 05:54:38 GMT 53.465607 -1.610910 17,525 108 409 2496
2022-05-13 05:54:35 GMT 53.465607 -1.610910 17,550 108 409 2496
2022-05-13 05:54:32 GMT 53.467712 -1.621534 16,775 108 410 3008
2022-05-13 05:54:29 GMT 53.469635 -1.631391 16,875 108 410 2944
2022-05-13 05:54:26 GMT 53.471100 -1.638925 17,000 108 411 2816
2022-05-13 05:54:23 GMT 53.472462 -1.646010 16,875 108 411 2688
2022-05-13 05:54:21 GMT 53.474510 -1.656351 16,750 108 412 2560
2022-05-13 05:54:18 GMT 53.476456 -1.666155 16,575 106 410 1792
2022-05-13 05:54:15 GMT 53.479248 -1.680751 16,575 107 410 1920
2022-05-13 05:54:12 GMT 53.481117 -1.691248 16,450 106 410 1728
2022-05-13 05:54:09 GMT 53.481117 -1.691248 16,325 104 407 1536
2022-05-13 05:54:06 GMT 53.482937 -1.702558 16,325 102 406 1664
2022-05-13 05:54:03 GMT 53.483963 -1.710022 16,250 89 399 2368
2022-05-13 05:54:01 GMT 53.484844 -1.718553 16,175 97 403 2112
2022-05-13 05:53:58 GMT 53.485401 -1.725984 15,975 92 400 2368
2022-05-13 05:53:55 GMT 53.485821 -1.743029 15,600 88 398 2368
2022-05-13 05:53:52 GMT 53.485821 -1.743029 15,800 86 396 2368
2022-05-13 05:53:49 GMT 53.485497 -1.754339 15,700 83 395 2432
2022-05-13 05:53:46 GMT 53.485062 -1.760559 15,575 81 393 2688
2022-05-13 05:53:44 GMT 53.484333 -1.768556 15,475 80 392 2880
2022-05-13 05:53:41 GMT 53.483448 -1.776635 15,250 78 391 3328
2022-05-13 05:53:38 GMT 53.482189 -1.787056 15,125 78 393 3392
2022-05-13 05:53:35 GMT 53.481400 -1.793440 14,950 78 394 3456
2022-05-13 05:53:32 GMT 53.479340 -1.810468 14,825 78 394 3456
2022-05-13 05:53:30 GMT 53.479340 -1.810468 14,725 78 395 3328
2022-05-13 05:53:27 GMT 53.478466 -1.817833 14,500 78 398 2560
2022-05-13 05:53:24 GMT 53.476746 -1.831728 14,375 78 398 2624
2022-05-13 05:53:21 GMT 53.476410 -1.834638 14,350 78 398 2560
2022-05-13 05:53:19 GMT 53.474396 -1.850882 14,125 78 397 2176
2022-05-13 05:53:16 GMT 53.474396 -1.850882 14,075 78 396 2048
2022-05-13 05:53:13 GMT 53.473206 -1.860221 13,950 78 395 1856
2022-05-13 05:53:10 GMT 53.471901 -1.870503 13,825 77 392 1792
2022-05-13 05:53:07 GMT 53.470963 -1.878113 13,825 77 392 1856
2022-05-13 05:53:05 GMT 53.470181 -1.883913 13,725 77 391 2048
2022-05-13 05:53:02 GMT 53.468903 -1.894121 13,650 77 390 2176
2022-05-13 05:53:00 GMT 53.468365 -1.898131 13,625 77 389 2240
2022-05-13 05:52:57 GMT 53.467209 -1.907462 13,475 77 388 2368
2022-05-13 05:52:55 GMT 53.466431 -1.913583 13,300 77 387 2560
2022-05-13 05:52:52 GMT 53.465424 -1.921273 13,300 77 387 2624
2022-05-13 05:52:50 GMT 53.463226 -1.938851 13,125 77 386 2880
2022-05-13 05:52:47 GMT 53.463226 -1.938851 12,825 77 386 3200
2022-05-13 05:52:44 GMT 53.462082 -1.947641 12,800 77 386 3200
2022-05-13 05:52:41 GMT 53.461334 -1.953305 12,725 77 386 3200
2022-05-13 05:52:39 GMT 53.460526 -1.959569 12,675 77 387 3072
2022-05-13 05:52:36 GMT 53.459240 -1.969380 12,425 77 387 2624
2022-05-13 05:52:34 GMT 53.458168 -1.977620 12,350 77 386 2304
2022-05-13 05:52:31 GMT 53.457321 -1.984131 12,150 77 382 1664
2022-05-13 05:52:28 GMT 53.456120 -1.993049 12,075 77 383 1792
2022-05-13 05:52:25 GMT 53.454723 -2.003147 12,025 77 381 1472
2022-05-13 05:52:22 GMT 53.452698 -2.017953 11,975 77 378 1344
2022-05-13 05:52:19 GMT 53.452698 -2.017953 11,925 77 376 1408
2022-05-13 05:52:16 GMT 53.451187 -2.029018 11,825 77 374 1728
2022-05-13 05:52:13 GMT 53.450089 -2.037179 11,725 77 372 2048
2022-05-13 05:52:10 GMT 53.448853 -2.046125 11,625 77 369 2368
2022-05-13 05:52:07 GMT 53.448074 -2.052011 11,125 77 369 2496
2022-05-13 05:52:04 GMT 53.446518 -2.063703 11,375 77 368 2432
2022-05-13 05:52:01 GMT 53.445557 -2.070687 11,275 77 367 2368
2022-05-13 05:51:58 GMT 53.444366 -2.079555 11,150 76 365 2112
2022-05-13 05:51:55 GMT 53.443451 -2.086147 11,050 76 363 1856
2022-05-13 05:51:52 GMT 53.442341 -2.093946 10,950 76 361 1664
2022-05-13 05:51:49 GMT 53.441086 -2.102912 10,875 76 357 1472
2022-05-13 05:51:46 GMT 53.440105 -2.109860 10,850 76 354 1408
2022-05-13 05:51:44 GMT 53.438992 -2.117938 10,800 76 353 1472
2022-05-13 05:51:41 GMT 53.438187 -2.123579 10,700 76 349 1472
2022-05-13 05:51:38 GMT 53.436893 -2.132963 10,625 76 344 1536
2022-05-13 05:51:34 GMT 53.435532 -2.142962 10,500 76 340 1600
2022-05-13 05:51:31 GMT 53.434429 -2.150816 10,400 76 336 1920
2022-05-13 05:51:28 GMT 53.433311 -2.158652 10,350 76 336 1920
2022-05-13 05:51:25 GMT 53.432335 -2.165761 10,250 76 334 2240
2022-05-13 05:51:23 GMT 53.431496 -2.171819 10,150 77 333 2560
2022-05-13 05:51:20 GMT 53.430634 -2.178196 10,050 77 332 2624
2022-05-13 05:51:17 GMT 53.429493 -2.186602 9,875 77 331 2368
2022-05-13 05:51:14 GMT 53.428757 -2.191929 9,775 77 330 2176
2022-05-13 05:51:11 GMT 53.427490 -2.201547 9,275 76 328 1856
2022-05-13 05:51:08 GMT 53.426792 -2.206556 9,425 76 325 1536
2022-05-13 05:51:05 GMT 53.425720 -2.214149 9,425 76 325 1536
2022-05-13 05:51:03 GMT 53.424839 -2.220208 9,450 76 323 1472
2022-05-13 05:51:00 GMT 53.423950 -2.226222 9,425 76 321 1600
2022-05-13 05:50:57 GMT 53.423115 -2.232083 9,275 76 317 2240
2022-05-13 05:50:54 GMT 53.421532 -2.242827 9,075 76 315 2752
2022-05-13 05:50:50 GMT 53.420517 -2.249765 8,675 75 313 3456
2022-05-13 05:50:47 GMT 53.419437 -2.257206 8,750 75 313 3456
2022-05-13 05:50:44 GMT 53.418182 -2.265538 8,650 75 313 3520
2022-05-13 05:50:41 GMT 53.417267 -2.271659 8,500 75 313 3456
2022-05-13 05:50:39 GMT 53.415344 -2.284293 8,275 75 313 3392
2022-05-13 05:50:36 GMT 53.415344 -2.284293 8,200 75 313 3328
2022-05-13 05:50:33 GMT 53.414200 -2.291591 8,025 75 313 3136
2022-05-13 05:50:30 GMT 53.413239 -2.297712 7,900 75 313 3008
2022-05-13 05:50:28 GMT 53.412415 -2.303127 7,750 75 311 2752
2022-05-13 05:50:25 GMT 53.411198 -2.310926 7,650 75 309 2560
2022-05-13 05:50:22 GMT 53.410267 -2.316904 7,125 75 304 2432
2022-05-13 05:50:19 GMT 53.409210 -2.324001 7,375 75 305 2368
2022-05-13 05:50:16 GMT 53.407940 -2.332090 7,225 75 302 2560
2022-05-13 05:50:13 GMT 53.407150 -2.336949 7,175 75 301 2624
2022-05-13 05:50:11 GMT 53.406403 -2.341623 7,100 74 301 2688
2022-05-13 05:50:09 GMT 53.404449 -2.353740 6,950 74 299 2816
2022-05-13 05:50:06 GMT 53.404449 -2.353740 6,850 74 299 2880
2022-05-13 05:50:03 GMT 53.403564 -2.358991 6,725 72 297 3008
2022-05-13 05:50:01 GMT 53.402912 -2.362545 6,600 72 296 3136
2022-05-13 05:49:58 GMT 53.401608 -2.369331 6,525 70 296 3136
2022-05-13 05:49:55 GMT 53.399746 -2.377328 6,250 64 293 2944
2022-05-13 05:49:52 GMT 53.397949 -2.383327 6,150 58 289 2752
2022-05-13 05:49:49 GMT 53.396488 -2.387507 6,025 55 288 2496
2022-05-13 05:49:47 GMT 53.394161 -2.392919 5,875 50 284 2496
2022-05-13 05:49:44 GMT 53.392090 -2.397060 5,775 42 280 2304
2022-05-13 05:49:41 GMT 53.389088 -2.402048 5,700 39 277 2048
2022-05-13 05:49:38 GMT 53.386597 -2.405535 5,575 33 272 1600
2022-05-13 05:49:35 GMT 53.380096 -2.412127 5,525 30 269 1408
2022-05-13 05:49:32 GMT 53.380096 -2.412127 5,450 14 251 1408
2022-05-13 05:49:29 GMT 53.377167 -2.414246 5,400 18 255 1472
2022-05-13 05:49:26 GMT 53.372955 -2.416364 5,300 4 239 1472
2022-05-13 05:49:23 GMT 53.370071 -2.417306 5,225 0 235 1600
2022-05-13 05:49:20 GMT 53.366089 -2.417855 5,150 0 233 1664
2022-05-13 05:49:17 GMT 53.363205 -2.417698 5,050 352 225 2560
2022-05-13 05:49:14 GMT 53.359989 -2.417073 4,900 346 221 2944
2022-05-13 05:49:11 GMT 53.357105 -2.415942 4,825 341 218 3008
2022-05-13 05:49:09 GMT 53.352722 -2.413461 4,675 339 218 3072
2022-05-13 05:49:06 GMT 53.352722 -2.413461 4,475 338 218 0
2022-05-13 05:49:03 GMT 53.349564 -2.411095 4,325 333 213 2688
2022-05-13 05:49:00 GMT 53.347328 -2.409318 4,225 333 213 2688
2022-05-13 05:48:57 GMT 53.344208 -2.406634 4,100 329 212 3200
2022-05-13 05:48:55 GMT 53.342880 -2.405457 3,875 329 212 3264
2022-05-13 05:48:52 GMT 53.339905 -2.402553 3,875 326 213 3520
2022-05-13 05:48:49 GMT 53.337524 -2.399963 3,575 320 211 3456
2022-05-13 05:48:46 GMT 53.335144 -2.397138 3,600 324 212 3712
2022-05-13 05:48:43 GMT 53.332489 -2.393685 3,150 320 211 3456
2022-05-13 05:48:40 GMT 53.330894 -2.391384 3,125 316 211 3200
2022-05-13 05:48:37 GMT 53.328323 -2.387251 3,000 313 210 2880
2022-05-13 05:48:34 GMT 53.326519 -2.383952 2,825 311 207 2432
2022-05-13 05:48:31 GMT 53.324612 -2.380156 2,775 309 205 2240
2022-05-13 05:48:28 GMT 53.323120 -2.376924 2,625 307 203 2048
2022-05-13 05:48:25 GMT 53.321686 -2.373518 2,625 304 199 1344
2022-05-13 05:48:22 GMT 53.319351 -2.367231 2,550 301 188 448
2022-05-13 05:48:19 GMT 53.318977 -2.366100 2,525 296 180 1152
2022-05-13 05:48:16 GMT 53.317612 -2.361904 2,450 291 176 1216
2022-05-13 05:48:14 GMT 53.316925 -2.359157 2,425 288 175 1152
2022-05-13 05:48:11 GMT 53.316376 -2.355940 2,375 280 169 1088
2022-05-13 05:48:08 GMT 53.315998 -2.351882 2,300 269 164 1344
2022-05-13 05:48:05 GMT 53.316044 -2.347439 2,175 259 160 1344
2022-05-13 05:48:02 GMT 53.316330 -2.344325 2,100 241 156 1472
2022-05-13 05:47:59 GMT 53.317337 -2.339852 2,075 241 156 1472
2022-05-13 05:47:56 GMT 53.318207 -2.337341 2,050 235 155 1472
2022-05-13 05:47:54 GMT 53.319077 -2.335301 2,000 232 154 1472
2022-05-13 05:47:53 GMT 53.319538 -2.334272 1,975 231 154 1472
2022-05-13 05:47:52 GMT 53.319809 -2.333810 1,950 230 152 1472
2022-05-13 05:47:50 GMT 53.320770 -2.331927 1,900 230 151 1600
2022-05-13 05:47:48 GMT 53.321640 -2.330200 1,850 230 149 1536
2022-05-13 05:47:46 GMT 53.322647 -2.328238 1,800 230 147 1600
2022-05-13 05:47:45 GMT 53.323151 -2.327297 1,750 230 146 1600
2022-05-13 05:47:44 GMT 53.323517 -2.326512 1,725 230 146 1664
2022-05-13 05:47:43 GMT 53.324432 -2.324786 1,675 230 143 1728
2022-05-13 05:47:40 GMT 53.325775 -2.322154 1,575 230 142 1728
2022-05-13 05:47:38 GMT 53.326195 -2.321347 1,550 230 141 1664
2022-05-13 05:47:37 GMT 53.326630 -2.320548 1,525 230 141 1728
2022-05-13 05:47:34 GMT 53.327824 -2.318196 1,450 230 138 1920
2022-05-13 05:47:33 GMT 53.328754 -2.316338 1,350 230 137 2560
2022-05-13 05:47:31 GMT 53.329193 -2.315447 1,300 230 137 2752
2022-05-13 05:47:30 GMT 53.329639 -2.314642 1,250 230 138 2752
2022-05-13 05:47:28 GMT 53.330242 -2.313430 1,100 230 139 2752
2022-05-13 05:47:25 GMT 53.331482 -2.310896 1,050 230 139 2752
2022-05-13 05:47:21 GMT 53.333267 -2.307364 850 231 141 2624
2022-05-13 05:47:18 GMT 53.334389 -2.305190 775 230 142 2624
2022-05-13 05:47:14 GMT 53.335972 -2.302040 550 230 145 2432
2022-05-13 05:47:10 GMT 53.337753 -2.298497 400 230 146 2304
2022-05-13 05:47:05 GMT 53.340179 -2.293631 225 231 147 1472
2022-05-13 05:46:55 GMT 53.344299 -2.285235 175 232 119 -64
2022-05-13 05:46:47 GMT 53.346817 -2.279986 175 232 93 -64
2022-05-13 05:46:40 GMT 53.348446 -2.276634 0 230 64
2022-05-13 05:46:34 GMT 53.349300 -2.274837 0 230 42
2022-05-13 05:46:28 GMT 53.349831 -2.273766 0 230 12
2022-05-13 05:46:22 GMT 53.349995 -2.273402 0 230 7
2022-05-13 05:46:18 GMT 53.350044 -2.273307 0 230 6
2022-05-13 05:46:13 GMT 53.350121 -2.273140 0 225 5
2022-05-13 05:46:04 GMT 53.350262 -2.272918 0 188 7

Making use of Plane Finder data

You are free to use the raw flight data, aircraft information and images provided in this report for your own purposes provided the data is correctly attributed to Plane Finder. We ask that you please credit Plane Finder and link to planefinder.net in close proximity to the content.

Optionally one of the following logos (no smaller then 150x24px) can be used and must link to planefinder.net

Embedding the Plane Finder map

You are welcome to embed the Plane Finder playback map on your website to offer visitors a more interactive experience. We suggest using the following HTML code:

<iframe src="//planefinder.net/data/report/U21991-G-EZBZ-7700-squawk-2022-05-13/map" width="800" height="600" seamless="seamless"></iframe>

Where our data comes from

Plane Finder has a global network of data feeds and antenna radars that receive data broadcast directly from aircraft. The primary technologies used are ADS-B and MLAT. We also show feeds from the FAA and a FLARM glider feed.

Click here to find out more about the Plane Finder network.

How we collect our data